[[{"header":{"parameterUnit":"m.s-1","parameterCategory":1,"la1":31.0,"la2":29.5877,"lo1":-88.7671,"lo2":-86.6584,"dy":0.0162,"dx":0.0185,"nx":115,"ny":88,"refTime":"2023-04-22T00:00:00:Z","depth":0,"parameterNumber":2,"parameterNumberName":"U-component_of_WINDS"},"data":[0.0,0.0,0.0,0.0,0.0,0.0,0.0,0.0,0.0,0.0,0.0,0.0,0.0,0.0,0.0,0.0,0.0,0.0,0.0,0.0,0.0,0.0,0.0,0.0,0.0,0.0,0.0,0.0,0.0,0.0,0.0,0.0,0.0,0.0,0.0,0.0,0.0,0.0,0.0,0.0,0.0,0.0,0.0,0.0,0.0,0.0,0.0,0.0,0.0,0.0,0.0,0.0,0.0,0.0,0.0,0.0,0.0,0.0,0.0,0.0,0.0,0.0,0.0,0.0,0.0,0.0,0.0,0.0,0.0,0.0,0.0,0.0,0.0,0.0,0.0,0.0,0.0,0.0,0.0,0.0,0.0,0.0,0.0,0.0,0.0,0.0,0.0,0.0,0.0,0.0,0.0,0.0,0.0,0.0,0.0,0.0,0.0,0.0,0.0,0.0,0.0,0.0,0.0,0.0,0.0,0.0,0.0,0.0,0.0,0.0,0.0,0.0,0.0,0.0,0.0,0.0,0.0,0.0,0.0,0.0,0.0,0.0,0.0,0.0,0.0,0.0,0.0,0.0,0.0,0.0,0.0,0.0,0.0,0.0,0.0,0.0,0.0,0.0,0.0,0.0,0.0,0.0,0.0,0.0,0.0,0.0,0.0,0.0,0.0,0.0,0.0,0.0,0.0,0.0,0.0,0.0,0.0,0.0,0.0,0.0,0.0,0.0,0.0,0.0,0.0,0.0,0.0,0.0,0.0,0.0,0.0,0.0,0.0,0.0,0.0,0.0,0.0,0.0,0.0,0.0,0.0,0.0,0.0,0.0,0.0,0.0,0.0,0.0,0.0,0.0,0.0,0.0,0.0,0.0,0.0,0.0,0.0,0.0,0.0,0.0,0.0,0.0,0.0,0.0,0.0,0.0,0.0,0.0,0.0,0.0,0.0,0.0,0.0,0.0,0.0,0.0,0.0,0.0,0.0,0.0,0.0,0.0,0.0,0.0,0.0,0.0,0.0,0.0,0.0,0.0,0.0,0.0,0.0,0.0,0.0,0.0,0.0,0.0,0.0,0.0,0.0,0.0,0.0,0.0,0.0,0.0,0.0,0.0,0.0,0.0,0.0,0.0,0.0,0.0,0.0,0.0,0.0,0.0,0.0,0.0,0.0,0.0,0.0,0.0,0.0,0.0,0.0,0.0,0.0,0.0,0.0,0.0,0.0,0.0,0.0,0.0,0.0,0.0,0.0,0.0,0.0,0.0,0.0,0.0,0.0,0.0,0.0,0.0,0.0,0.0,0.0,0.0,0.0,0.0,0.0,0.0,0.0,0.0,0.0,0.0,0.0,0.0,0.0,0.0,0.0,0.0,0.0,0.0,0.0,0.0,0.0,0.0,0.0,0.0,0.0,0.0,0.0,0.0,0.0,0.0,0.0,0.0,0.0,0.0,0.0,0.0,0.0,0.0,0.0,0.0,0.0,0.0,0.0,0.0,0.0,0.0,0.0,0.0,0.0,0.0,0.0,0.0,0.0,0.0,0.0,0.0,0.0,0.0,0.0,0.0,0.0,0.0,0.0,0.0,0.0,0.0,0.0,0.0,0.0,0.0,0.0,0.0,0.0,0.0,0.0,0.0,0.0,0.0,0.0,0.0,0.0,0.0,0.0,0.0,0.0,0.0,0.0,0.0,0.0,0.0,0.0,0.0,0.0,0.0,0.0,0.0,0.0,0.0,0.0,0.0,0.0,0.0,0.0,0.0,0.0,0.0,0.0,0.0,0.0,0.0,0.0,0.0,0.0,0.0,0.0,0.0,0.0,0.0,0.0,0.0,0.0,0.0,0.0,0.0,0.0,0.0,0.0,0.0,0.0,0.0,0.0,0.0,0.0,0.0,0.0,0.0,0.0,0.0,0.0,0.0,0.0,0.0,0.0,0.0,0.0,0.0,0.0,0.0,0.0,0.0,0.0,0.0,0.0,0.0,0.0,0.0,0.0,0.0,0.0,0.0,0.0,0.0,0.0,0.0,0.0,0.0,0.0,0.0,0.0,0.0,0.0,0.0,0.0,0.0,0.0,0.0,0.0,0.0,0.0,0.0,0.0,0.0,0.0,0.0,0.0,0.0,0.0,0.0,0.0,0.0,0.0,0.0,0.0,0.0,0.0,0.0,0.0,0.0,0.0,0.0,0.0,0.0,0.0,0.0,0.0,0.0,0.0,0.0,0.0,0.0,0.0,0.0,0.0,0.0,0.0,0.0,0.0,0.0,0.0,0.0,0.0,0.0,0.0,0.0,0.0,0.0,0.0,0.0,0.0,0.0,0.0,0.0,0.0,0.0,0.0,0.0,0.0,0.0,0.0,0.0,0.0,0.0,0.0,0.0,0.0,0.0,0.0,0.0,0.0,0.0,0.0,0.0,0.0,0.0,0.0,0.0,0.0,0.0,0.0,0.0,0.0,0.0,0.0,0.0,0.0,0.0,0.0,0.0,0.0,0.0,0.0,0.0,0.0,0.0,0.0,0.0,0.0,0.0,0.0,0.0,0.0,0.0,0.0,0.0,0.0,0.0,0.0,0.0,0.0,0.0,0.0,0.0,0.0,0.0,0.0,0.0,0.0,0.0,0.0,0.0,0.0,0.0,0.0,0.0,0.0,0.0,0.0,0.0,0.0,0.0,0.0,0.0,0.0,0.0,0.0,0.0,0.0,0.0,0.0,0.0,0.0,0.0,0.0,0.0,0.0,0.0,0.0,0.0,0.0,0.0,0.0,0.0,0.0,0.0,0.0,0.0,0.0,0.0,0.0,0.0,0.0,0.0,0.0,0.0,0.0,0.0,0.0,0.0,0.0,0.0,0.0,0.0,0.0,0.0,0.0,0.0,0.0,0.0,0.0,0.0,0.0,0.0,0.0,0.0,0.0,0.0,0.0,0.0,0.0,0.0,0.0,0.0,0.0,0.0,0.0,0.0,0.0,0.0,0.0,0.0,0.0,0.0,0.0,0.0,0.0,0.0,0.0,0.0,0.0,0.0,0.0,0.0,0.0,0.0,0.0,0.0,0.0,0.0,0.0,0.0,0.0,0.0,0.0,0.0,0.0,0.0,0.0,0.0,0.0,0.0,0.0,0.0,0.0,0.0,0.0,0.0,0.0,0.0,0.0,0.0,0.0,0.0,0.0,0.0,0.0,0.0,0.0,0.0,0.0,0.0,0.0,0.0,0.0,0.0,0.0,0.0,0.0,0.0,0.0,0.0,0.0,0.0,0.0,0.0,0.0,0.0,0.0,0.0,0.0,0.0,0.0,0.0,0.0,0.0,0.0,0.0,0.0,0.0,0.0,0.0,0.0,0.0,0.0,0.0,0.0,0.0,0.0,0.0,0.0,0.0,0.0,0.0,0.0,0.0,0.0,0.0,0.0,0.0,0.0,0.0,0.0,0.0,0.0,0.0,0.0,0.0,0.0,0.0,0.0,0.0,0.0,0.0,0.0,0.0,0.0,0.0,0.0,0.0,0.0,0.0,0.0,0.0,0.0,0.0,0.0,0.0,0.0,0.0,0.0,0.0,0.0,0.0,0.0,0.0,0.0,0.0,0.0,0.0,0.0,0.0,0.0,0.0,0.0,0.0,0.0,0.0,0.0,0.0,0.0,0.0,0.0,0.0,0.0,0.0,0.0,0.0,0.0,0.0,0.0,0.0,0.0,0.0,0.0,0.0,0.0,0.0,0.0,0.0,0.0,0.0,0.0,0.0,0.0,0.0,0.0,0.0,0.0,0.0,0.0,0.0,0.0,0.0,0.0,0.0,0.0,0.0,0.0,0.0,0.0,0.0,0.0,0.0,0.0,0.0,0.0,0.0,0.0,0.0,0.0,0.0,0.0,0.0,0.0,0.0,0.0,0.0,0.0,0.0,0.0,0.0,0.0,0.0,0.0,0.0,0.0,0.0,0.0,0.0,0.0,0.0,0.0,0.0,0.0,0.0,0.0,0.0,0.0,0.0,0.0,0.0,0.0,0.0,0.0,0.0,0.0,0.0,0.0,0.0,0.0,0.0,0.0,0.0,0.0,0.0,0.0,0.0,0.0,0.0,0.0,0.0,0.0,0.0,0.0,0.0,0.0,0.0,0.0,0.0,0.0,0.0,0.0,0.0,0.0,0.0,0.0,0.0,0.0,0.0,0.0,0.0,0.0,0.0,0.0,0.0,0.0,0.0,0.0,0.0,0.0,0.0,0.0,0.0,0.0,0.0,0.0,0.0,0.0,0.0,0.0,0.0,0.0,0.0,0.0,0.0,0.0,0.0,2.0957,0.0,0.0,0.0,0.0,0.0,0.0,0.0,0.0,0.0,0.0,0.0,0.0,0.0,0.0,0.0,0.0,0.0,0.0,0.0,0.0,0.0,0.0,0.0,0.0,0.0,0.0,0.0,0.0,0.0,0.0,0.0,0.0,0.0,0.0,0.0,0.0,0.0,0.0,0.0,0.0,0.0,0.0,0.0,0.0,0.0,0.0,0.0,0.0,0.0,0.0,0.0,0.0,0.0,0.0,0.0,0.0,0.0,0.0,0.0,0.0,0.0,0.0,0.0,0.0,0.0,0.0,0.0,0.0,0.0,0.0,0.0,0.0,0.0,0.0,0.0,0.0,0.0,0.0,0.0,0.0,0.0,0.0,0.0,0.0,0.0,0.0,0.0,0.0,0.0,0.0,0.0,0.0,0.0,0.0,0.0,0.0,0.0,0.0,0.0,0.0,0.0,0.0,0.0,0.0,0.0,0.0,0.0,0.0,0.0,0.0,2.3402,2.3344,2.2548,2.2072,2.1939,0.0,0.0,0.0,0.0,0.0,0.0,0.0,0.0,0.0,0.0,0.0,0.0,0.0,0.0,0.0,0.0,0.0,0.0,0.0,0.0,0.0,0.0,0.0,0.0,0.0,0.0,0.0,0.0,0.0,0.0,0.0,0.0,0.0,0.0,0.0,0.0,0.0,0.0,0.0,0.0,0.0,0.0,0.0,0.0,0.0,0.0,0.0,0.0,0.0,0.0,0.0,0.0,0.0,0.0,0.0,0.0,0.0,0.0,0.0,0.0,0.0,0.0,0.0,0.0,0.0,0.0,0.0,0.0,0.0,0.0,0.0,0.0,0.0,0.0,0.0,0.0,0.0,0.0,0.0,0.0,0.0,0.0,0.0,0.0,0.0,0.0,0.0,0.0,0.0,0.0,0.0,0.0,0.0,0.0,0.0,0.0,0.0,0.0,0.0,0.0,0.0,0.0,0.0,0.0,0.0,0.0,0.0,0.0,0.0,0.0,0.0,0.0,2.337,2.2822,2.258,0.0,0.0,0.0,0.0,0.0,0.0,0.0,0.0,0.0,0.0,0.0,0.0,0.0,0.0,0.0,0.0,0.0,0.0,0.0,0.0,0.0,0.0,0.0,0.0,0.0,0.0,0.0,0.0,0.0,0.0,0.0,0.0,0.0,0.0,0.0,0.0,0.0,0.0,0.0,0.0,0.0,0.0,0.0,0.0,0.0,0.0,0.0,0.0,0.0,0.0,0.0,0.0,0.0,0.0,0.0,0.0,0.0,0.0,0.0,0.0,0.0,0.0,0.0,0.0,0.0,0.0,0.0,0.0,0.0,0.0,0.0,0.0,0.0,0.0,0.0,0.0,0.0,0.0,0.0,0.0,0.0,0.0,0.0,0.0,0.0,0.0,0.0,0.0,0.0,0.0,0.0,0.0,0.0,0.0,0.0,0.0,0.0,0.0,0.0,0.0,0.0,0.0,0.0,0.0,0.0,0.0,0.0,0.0,0.0,0.0,2.5068,2.4979,2.4031,0.0,2.293,0.0,0.0,0.0,0.0,0.0,0.0,0.0,0.0,0.0,0.0,0.0,0.0,0.0,0.0,0.0,0.0,0.0,0.0,0.0,0.0,0.0,0.0,0.0,0.0,0.0,0.0,0.0,0.0,0.0,0.0,0.0,0.0,0.0,0.0,0.0,0.0,0.0,0.0,0.0,0.0,0.0,0.0,0.0,0.0,0.0,0.0,0.0,0.0,0.0,0.0,0.0,0.0,0.0,0.0,0.0,0.0,0.0,0.0,0.0,0.0,0.0,0.0,0.0,0.0,0.0,0.0,0.0,0.0,0.0,0.0,0.0,0.0,0.0,0.0,0.0,0.0,0.0,0.0,0.0,0.0,0.0,0.0,0.0,0.0,0.0,0.0,0.0,0.0,0.0,0.0,0.0,0.0,0.0,0.0,0.0,0.0,0.0,0.0,0.0,0.0,0.0,0.0,0.0,0.0,0.0,0.0,0.0,0.0,0.0,0.0,2.5156,2.5035,2.4534,2.4087,0.0,0.0,0.0,0.0,0.0,0.0,0.0,0.0,0.0,0.0,0.0,0.0,0.0,0.0,0.0,0.0,0.0,0.0,0.0,0.0,0.0,0.0,0.0,0.0,0.0,0.0,0.0,0.0,0.0,0.0,0.0,0.0,0.0,0.0,0.0,0.0,0.0,0.0,0.0,0.0,0.0,0.0,0.0,0.0,0.0,0.0,0.0,0.0,0.0,0.0,0.0,0.0,0.0,0.0,0.0,0.0,0.0,0.0,0.0,0.0,0.0,0.0,0.0,0.0,0.0,0.0,0.0,0.0,0.0,0.0,0.0,0.0,0.0,0.0,0.0,0.0,0.0,0.0,0.0,0.0,0.0,0.0,0.0,0.0,0.0,0.0,0.0,0.0,0.0,0.0,0.0,0.0,0.0,0.0,0.0,0.0,0.0,0.0,0.0,0.0,0.0,0.0,0.0,0.0,0.0,0.0,0.0,0.0,0.0,0.0,2.5704,2.564,2.528,2.5092,2.475,2.4298,0.0,0.0,0.0,0.0,0.0,0.0,0.0,0.0,0.0,0.0,0.0,0.0,0.0,0.0,0.0,0.0,0.0,0.0,0.0,0.0,0.0,0.0,0.0,0.0,0.0,0.0,0.0,0.0,0.0,0.0,0.0,0.0,0.0,0.0,0.0,0.0,0.0,0.0,0.0,0.0,0.0,0.0,0.0,0.0,0.0,0.0,0.0,0.0,0.0,0.0,0.0,0.0,0.0,0.0,0.0,0.0,0.0,0.0,0.0,0.0,0.0,0.0,0.0,0.0,0.0,0.0,0.0,0.0,0.0,0.0,0.0,0.0,0.0,0.0,0.0,0.0,0.0,0.0,0.0,0.0,0.0,0.0,0.0,0.0,0.0,0.0,0.0,0.0,0.0,0.0,0.0,0.0,0.0,0.0,0.0,0.0,0.0,0.0,0.0,0.0,0.0,0.0,0.0,0.0,0.0,0.0,0.0,0.0,2.6198,2.6884,2.6854,2.5906,2.5805,2.5276,0.0,0.0,0.0,0.0,0.0,0.0,0.0,0.0,0.0,0.0,0.0,0.0,0.0,0.0,0.0,0.0,0.0,0.0,0.0,0.0,0.0,0.0,0.0,0.0,0.0,0.0,0.0,0.0,0.0,0.0,0.0,0.0,0.0,0.0,0.0,0.0,0.0,0.0,0.0,0.0,0.0,0.0,0.0,0.0,0.0,0.0,0.0,0.0,0.0,0.0,0.0,0.0,0.0,0.0,0.0,0.0,0.0,0.0,0.0,0.0,0.0,0.0,0.0,0.0,0.0,0.0,0.0,0.0,0.0,0.0,0.0,0.0,0.0,0.0,0.0,0.0,0.0,0.0,0.0,0.0,0.0,0.0,0.0,0.0,0.0,0.0,0.0,0.0,0.0,0.0,0.0,0.0,0.0,0.0,0.0,0.0,0.0,0.0,0.0,0.0,0.0,0.0,0.0,0.0,0.0,0.0,0.0,0.0,0.0,2.7033,2.7214,2.7147,2.6747,2.661,2.6075,0.0,0.0,0.0,0.0,0.0,0.0,0.0,0.0,0.0,0.0,0.0,0.0,0.0,0.0,0.0,0.0,0.0,0.0,0.0,0.0,0.0,0.0,0.0,0.0,0.0,0.0,0.0,0.0,0.0,0.0,0.0,0.0,0.0,0.0,0.0,0.0,0.0,0.0,0.0,0.0,0.0,0.0,0.0,0.0,0.0,0.0,0.0,0.0,0.0,0.0,0.0,0.0,0.0,0.0,0.0,0.0,0.0,0.0,0.0,0.0,0.0,0.0,0.0,0.0,0.0,0.0,0.0,0.0,0.0,0.0,0.0,0.0,0.0,0.0,0.0,0.0,0.0,0.0,0.0,0.0,0.0,0.0,0.0,0.0,0.0,0.0,0.0,0.0,0.0,0.0,0.0,0.0,0.0,0.0,0.0,0.0,0.0,0.0,0.0,0.0,0.0,0.0,0.0,0.0,0.0,0.0,0.0,0.0,0.0,2.826,0.0,2.7917,2.7559,2.7401,2.6862,0.0,0.0,0.0,0.0,0.0,0.0,0.0,0.0,0.0,0.0,0.0,0.0,0.0,0.0,0.0,0.0,0.0,0.0,0.0,0.0,0.0,0.0,0.0,0.0,0.0,0.0,0.0,0.0,0.0,0.0,0.0,0.0,0.0,0.0,0.0,0.0,0.0,0.0,0.0,0.0,0.0,0.0,0.0,0.0,0.0,0.0,0.0,0.0,0.0,0.0,0.0,0.0,0.0,0.0,0.0,0.0,0.0,0.0,0.0,0.0,0.0,0.0,0.0,0.0,0.0,0.0,0.0,0.0,0.0,0.0,0.0,0.0,0.0,0.0,0.0,0.0,0.0,0.0,0.0,0.0,0.0,0.0,0.0,0.0,0.0,0.0,0.0,0.0,0.0,0.0,0.0,0.0,0.0,0.0,0.0,0.0,0.0,0.0,0.0,0.0,0.0,0.0,0.0,0.0,0.0,0.0,0.0,0.0,2.9197,2.9847,2.9779,2.928,2.8367,2.8162,2.7617,0.0,0.0,0.0,0.0,0.0,0.0,0.0,0.0,0.0,0.0,0.0,0.0,0.0,0.0,0.0,0.0,0.0,0.0,0.0,0.0,0.0,0.0,0.0,0.0,0.0,0.0,0.0,0.0,0.0,0.0,0.0,0.0,0.0,0.0,0.0,0.0,0.0,0.0,0.0,0.0,0.0,0.0,0.0,0.0,0.0,0.0,0.0,0.0,0.0,0.0,0.0,0.0,0.0,0.0,0.0,0.0,0.0,0.0,0.0,0.0,0.0,0.0,0.0,0.0,0.0,0.0,0.0,0.0,0.0,0.0,0.0,0.0,0.0,0.0,0.0,0.0,0.0,0.0,0.0,0.0,0.0,0.0,0.0,0.0,0.0,0.0,0.0,0.0,0.0,0.0,0.0,0.0,0.0,0.0,0.0,0.0,0.0,0.0,0.0,0.0,0.0,0.0,0.0,0.0,0.0,0.0,0.0,0.0,0.0,3.0602,3.1004,3.1033,3.0627,2.9976,2.906,0.0,0.0,0.0,0.0,0.0,0.0,0.0,0.0,0.0,0.0,0.0,0.0,0.0,0.0,0.0,0.0,0.0,0.0,0.0,0.0,0.0,0.0,0.0,0.0,0.0,0.0,0.0,0.0,0.0,0.0,0.0,0.0,0.0,0.0,0.0,0.0,0.0,0.0,0.0,0.0,0.0,0.0,0.0,0.0,0.0,0.0,0.0,0.0,0.0,0.0,0.0,0.0,0.0,0.0,0.0,0.0,0.0,0.0,0.0,0.0,0.0,0.0,0.0,0.0,0.0,0.0,0.0,0.0,0.0,0.0,0.0,0.0,0.0,0.0,0.0,0.0,0.0,0.0,0.0,0.0,0.0,0.0,0.0,0.0,0.0,0.0,0.0,0.0,0.0,0.0,0.0,0.0,0.0,0.0,0.0,0.0,0.0,0.0,0.0,0.0,0.0,0.0,0.0,0.0,0.0,0.0,0.0,0.0,0.0,3.252,3.2298,3.2129,3.201,3.1329,3.0303,2.894,0.0,0.0,0.0,0.0,0.0,0.0,0.0,0.0,0.0,0.0,0.0,0.0,0.0,0.0,0.0,0.0,0.0,0.0,0.0,0.0,0.0,0.0,0.0,0.0,0.0,0.0,0.0,0.0,0.0,0.0,0.0,0.0,0.0,0.0,0.0,0.0,0.0,0.0,0.0,0.0,0.0,0.0,0.0,0.0,0.0,0.0,0.0,0.0,0.0,0.0,0.0,0.0,0.0,0.0,0.0,0.0,0.0,0.0,0.0,0.0,0.0,0.0,0.0,0.0,0.0,0.0,0.0,0.0,0.0,0.0,0.0,0.0,0.0,0.0,0.0,0.0,0.0,0.0,0.0,0.0,0.0,0.0,0.0,0.0,0.0,0.0,0.0,0.0,0.0,0.0,0.0,0.0,0.0,0.0,0.0,0.0,0.0,0.0,0.0,0.0,0.0,0.0,0.0,0.0,0.0,0.0,0.0,0.0,3.5363,3.3856,3.2952,3.27,3.2312,3.1326,0.0,0.0,0.0,0.0,0.0,0.0,0.0,0.0,0.0,0.0,0.0,0.0,0.0,0.0,0.0,0.0,0.0,0.0,0.0,0.0,0.0,0.0,0.0,0.0,0.0,0.0,0.0,0.0,0.0,0.0,0.0,0.0,0.0,0.0,0.0,0.0,0.0,0.0,0.0,0.0,0.0,0.0,0.0,0.0,0.0,0.0,0.0,0.0,0.0,0.0,0.0,0.0,0.0,0.0,0.0,0.0,0.0,0.0,0.0,0.0,0.0,0.0,0.0,0.0,0.0,0.0,0.0,0.0,0.0,0.0,0.0,0.0,0.0,0.0,0.0,0.0,0.0,0.0,0.0,0.0,0.0,0.0,0.0,0.0,0.0,0.0,0.0,0.0,0.0,0.0,0.0,0.0,0.0,0.0,0.0,0.0,0.0,0.0,0.0,0.0,0.0,0.0,0.0,0.0,0.0,0.0,0.0,0.0,0.0,3.7217,3.7324,3.654,3.491,3.3319,3.2183,0.0,0.0,0.0,0.0,0.0,0.0,0.0,0.0,0.0,0.0,0.0,0.0,0.0,0.0,0.0,0.0,0.0,0.0,0.0,0.0,0.0,0.0,0.0,0.0,0.0,0.0,0.0,0.0,0.0,0.0,0.0,0.0,0.0,0.0,0.0,0.0,0.0,0.0,0.0,0.0,0.0,0.0,0.0,0.0,0.0,0.0,0.0,0.0,0.0,0.0,0.0,0.0,0.0,0.0,0.0,0.0,0.0,0.0,0.0,0.0,0.0,0.0,0.0,0.0,0.0,0.0,0.0,0.0,0.0,0.0,0.0,0.0,0.0,0.0,0.0,0.0,0.0,0.0,0.0,0.0,0.0,0.0,0.0,0.0,0.0,0.0,0.0,0.0,0.0,0.0,0.0,0.0,0.0,0.0,0.0,0.0,0.0,0.0,0.0,0.0,0.0,0.0,0.0,0.0,0.0,0.0,0.0,0.0,3.7657,3.8798,3.907,3.851,3.713,3.5286,3.3535,0.0,0.0,0.0,0.0,0.0,0.0,0.0,0.0,0.0,0.0,0.0,0.0,0.0,0.0,0.0,0.0,0.0,0.0,0.0,0.0,0.0,0.0,0.0,0.0,0.0,0.0,0.0,0.0,0.0,0.0,0.0,0.0,0.0,0.0,0.0,0.0,0.0,0.0,0.0,0.0,0.0,0.0,0.0,0.0,0.0,0.0,0.0,0.0,0.0,0.0,0.0,0.0,0.0,0.0,0.0,0.0,0.0,0.0,0.0,0.0,0.0,0.0,0.0,0.0,0.0,0.0,0.0,0.0,0.0,0.0,0.0,0.0,0.0,0.0,0.0,0.0,0.0,0.0,0.0,0.0,0.0,0.0,0.0,0.0,0.0,0.0,0.0,0.0,0.0,0.0,0.0,0.0,0.0,0.0,0.0,0.0,0.0,0.0,0.0,0.0,0.0,0.0,0.0,0.0,0.0,0.0,0.0,0.0,3.887,4.0159,3.9878,3.9526,3.9118,3.7478,3.5084,0.0,0.0,0.0,0.0,0.0,0.0,0.0,0.0,0.0,0.0,0.0,0.0,0.0,0.0,0.0,0.0,0.0,0.0,0.0,0.0,0.0,0.0,0.0,0.0,0.0,0.0,0.0,0.0,0.0,0.0,0.0,0.0,0.0,0.0,0.0,0.0,0.0,0.0,0.0,0.0,0.0,0.0,0.0,0.0,0.0,0.0,0.0,0.0,0.0,0.0,0.0,0.0,0.0,0.0,0.0,0.0,0.0,0.0,0.0,0.0,0.0,0.0,0.0,0.0,0.0,0.0,0.0,0.0,0.0,0.0,0.0,0.0,0.0,0.0,0.0,0.0,0.0,0.0,0.0,0.0,0.0,0.0,0.0,0.0,0.0,0.0,0.0,0.0,0.0,0.0,0.0,0.0,0.0,0.0,0.0,0.0,0.0,0.0,0.0,0.0,0.0,0.0,0.0,0.0,0.0,0.0,0.0,0.0,4.0272,4.1333,4.1661,4.1313,4.0188,3.7556,3.5414,0.0,0.0,0.0,0.0,0.0,0.0,0.0,0.0,0.0,0.0,0.0,0.0,0.0,0.0,0.0,0.0,0.0,0.0,0.0,0.0,0.0,0.0,0.0,0.0,0.0,0.0,0.0,0.0,0.0,0.0,0.0,0.0,0.0,0.0,0.0,0.0,0.0,0.0,0.0,0.0,0.0,0.0,0.0,0.0,0.0,0.0,0.0,0.0,2.5207,0.0,0.0,0.0,0.0,0.0,0.0,0.0,0.0,0.0,0.0,0.0,0.0,0.0,0.0,0.0,0.0,0.0,0.0,0.0,0.0,0.0,0.0,0.0,0.0,0.0,0.0,0.0,0.0,0.0,0.0,0.0,0.0,0.0,0.0,0.0,0.0,0.0,0.0,0.0,0.0,0.0,0.0,0.0,0.0,0.0,0.0,0.0,0.0,0.0,0.0,0.0,0.0,0.0,0.0,0.0,0.0,0.0,0.0,0.0,4.1077,4.2312,4.2228,4.1707,4.0713,3.8444,3.6444,0.0,0.0,0.0,0.0,0.0,0.0,0.0,0.0,0.0,0.0,0.0,0.0,0.0,0.0,0.0,0.0,0.0,0.0,0.0,0.0,0.0,0.0,0.0,0.0,0.0,0.0,0.0,0.0,0.0,0.0,0.0,0.0,0.0,0.0,0.0,0.0,0.0,0.0,0.0,0.0,0.0,0.0,0.0,0.0,0.0,0.0,0.0,0.0,0.0,0.0,0.0,0.0,0.0,0.0,0.0,0.0,0.0,0.0,0.0,0.0,0.0,0.0,0.0,0.0,0.0,0.0,0.0,0.0,0.0,0.0,0.0,0.0,0.0,0.0,0.0,0.0,0.0,0.0,0.0,0.0,0.0,0.0,0.0,0.0,0.0,0.0,0.0,0.0,0.0,0.0,0.0,0.0,0.0,0.0,0.0,0.0,0.0,0.0,0.0,0.0,0.0,0.0,0.0,0.0,0.0,0.0,0.0,4.0368,4.1403,4.2749,4.2046,4.1423,4.0902,3.935,3.7507,3.5397,0.0,0.0,0.0,0.0,0.0,0.0,0.0,0.0,0.0,0.0,0.0,0.0,0.0,0.0,0.0,0.0,0.0,0.0,0.0,0.0,0.0,0.0,0.0,0.0,0.0,0.0,0.0,0.0,0.0,0.0,0.0,0.0,0.0,0.0,0.0,0.0,0.0,0.0,2.5353,2.5517,0.0,0.0,0.0,0.0,0.0,0.0,0.0,0.0,2.625,0.0,0.0,0.0,0.0,0.0,0.0,0.0,0.0,0.0,0.0,0.0,0.0,0.0,0.0,0.0,0.0,0.0,0.0,0.0,0.0,0.0,0.0,0.0,0.0,0.0,0.0,0.0,0.0,0.0,0.0,0.0,0.0,0.0,0.0,0.0,0.0,0.0,0.0,0.0,0.0,0.0,0.0,0.0,0.0,0.0,0.0,0.0,0.0,0.0,0.0,0.0,0.0,0.0,0.0,0.0,0.0,3.8385,4.0011,4.1159,4.1661,4.1212,4.0815,4.046,3.8864,3.7465,3.626,0.0,0.0,0.0,0.0,0.0,0.0,0.0,0.0,0.0,0.0,0.0,0.0,0.0,0.0,0.0,0.0,0.0,0.0,0.0,0.0,0.0,0.0,0.0,0.0,0.0,0.0,0.0,0.0,0.0,0.0,0.0,0.0,0.0,0.0,0.0,0.0,0.0,0.0,0.0,2.7592,2.7811,0.0,0.0,0.0,0.0,0.0,0.0,0.0,0.0,2.6547,0.0,0.0,0.0,0.0,0.0,0.0,0.0,0.0,0.0,0.0,0.0,0.0,0.0,0.0,0.0,0.0,0.0,0.0,0.0,0.0,0.0,0.0,0.0,0.0,0.0,0.0,0.0,0.0,0.0,0.0,0.0,0.0,0.0,0.0,0.0,0.0,0.0,0.0,0.0,0.0,0.0,0.0,0.0,0.0,0.0,0.0,0.0,0.0,0.0,0.0,0.0,0.0,0.0,0.0,0.0,3.948,4.0688,4.1775,4.2706,4.2047,4.1601,4.1342,3.9858,3.837,0.0,0.0,0.0,0.0,0.0,0.0,0.0,0.0,0.0,0.0,0.0,0.0,0.0,0.0,0.0,0.0,0.0,0.0,0.0,0.0,0.0,0.0,0.0,0.0,0.0,0.0,0.0,0.0,0.0,0.0,0.0,0.0,0.0,0.0,0.0,0.0,0.0,0.0,0.0,0.0,2.8564,2.8485,2.9115,0.0,0.0,0.0,0.0,0.0,0.0,2.7906,2.7517,0.0,0.0,0.0,0.0,0.0,0.0,0.0,0.0,0.0,0.0,0.0,0.0,0.0,0.0,0.0,0.0,0.0,0.0,0.0,0.0,0.0,0.0,0.0,0.0,0.0,0.0,0.0,0.0,0.0,0.0,0.0,0.0,0.0,0.0,0.0,0.0,0.0,0.0,0.0,0.0,0.0,0.0,0.0,0.0,0.0,0.0,0.0,0.0,0.0,0.0,0.0,0.0,0.0,0.0,0.0,4.0457,4.1277,4.2198,4.337,4.2601,4.2071,4.1924,4.0601,3.9061,0.0,0.0,0.0,0.0,0.0,0.0,0.0,0.0,0.0,0.0,0.0,0.0,0.0,0.0,0.0,0.0,0.0,0.0,0.0,0.0,0.0,0.0,0.0,0.0,0.0,0.0,0.0,0.0,0.0,0.0,0.0,0.0,0.0,0.0,0.0,0.0,0.0,0.0,0.0,0.0,0.0,2.9115,3.0017,2.9715,0.0,0.0,0.0,0.0,2.8947,2.8746,0.0,0.0,0.0,0.0,0.0,0.0,0.0,0.0,0.0,0.0,0.0,0.0,0.0,0.0,0.0,0.0,0.0,0.0,0.0,0.0,0.0,0.0,0.0,0.0,0.0,0.0,0.0,0.0,0.0,0.0,0.0,0.0,0.0,0.0,0.0,0.0,0.0,0.0,0.0,0.0,0.0,0.0,0.0,0.0,0.0,0.0,0.0,0.0,0.0,0.0,0.0,0.0,0.0,0.0,0.0,0.0,3.9424,4.0952,4.1627,4.1278,4.1027,4.0833,4.0699,3.9789,3.852,0.0,0.0,0.0,0.0,0.0,0.0,0.0,0.0,0.0,0.0,0.0,0.0,0.0,0.0,0.0,0.0,0.0,0.0,0.0,0.0,0.0,0.0,0.0,0.0,0.0,0.0,0.0,0.0,0.0,0.0,0.0,0.0,0.0,0.0,0.0,0.0,0.0,0.0,0.0,0.0,0.0,3.0475,2.9993,3.0324,3.0105,0.0,0.0,2.9354,2.9105,2.937,0.0,0.0,0.0,0.0,0.0,0.0,0.0,0.0,0.0,0.0,0.0,0.0,0.0,0.0,0.0,0.0,0.0,0.0,0.0,0.0,0.0,0.0,0.0,0.0,0.0,0.0,0.0,0.0,0.0,0.0,0.0,0.0,0.0,0.0,0.0,0.0,0.0,0.0,0.0,0.0,0.0,0.0,0.0,0.0,0.0,0.0,0.0,0.0,0.0,0.0,0.0,0.0,0.0,0.0,0.0,3.8322,3.9383,4.0632,4.1533,4.1995,4.1663,4.1332,4.0959,4.0174,3.8745,0.0,0.0,0.0,0.0,0.0,0.0,0.0,0.0,0.0,0.0,0.0,0.0,0.0,0.0,0.0,0.0,0.0,0.0,0.0,0.0,0.0,0.0,0.0,0.0,0.0,0.0,0.0,0.0,0.0,0.0,0.0,0.0,0.0,0.0,0.0,0.0,0.0,0.0,0.0,0.0,0.0,0.0,3.1012,3.1516,0.0,0.0,0.0,3.0871,3.0604,0.0,0.0,0.0,0.0,0.0,0.0,0.0,0.0,0.0,0.0,0.0,0.0,0.0,0.0,0.0,0.0,0.0,0.0,0.0,0.0,0.0,0.0,0.0,0.0,0.0,0.0,0.0,0.0,0.0,0.0,0.0,0.0,0.0,0.0,0.0,0.0,0.0,0.0,0.0,0.0,0.0,0.0,0.0,0.0,0.0,0.0,0.0,0.0,0.0,0.0,0.0,0.0,0.0,0.0,0.0,0.0,0.0,3.9548,4.0728,4.1762,4.2618,4.219,4.1789,4.1389,4.0493,0.0,0.0,0.0,0.0,0.0,0.0,0.0,0.0,0.0,0.0,0.0,0.0,0.0,0.0,0.0,0.0,0.0,0.0,0.0,0.0,0.0,0.0,0.0,0.0,0.0,0.0,0.0,2.4819,0.0,0.0,0.0,0.0,0.0,0.0,0.0,0.0,0.0,0.0,0.0,0.0,0.0,0.0,3.1566,3.1974,3.2508,3.2667,0.0,0.0,3.2051,3.1618,3.1568,3.1275,0.0,0.0,0.0,0.0,0.0,0.0,0.0,0.0,0.0,0.0,0.0,0.0,0.0,0.0,0.0,0.0,0.0,0.0,0.0,0.0,0.0,0.0,0.0,0.0,0.0,0.0,0.0,0.0,0.0,0.0,0.0,0.0,0.0,0.0,0.0,0.0,0.0,0.0,0.0,0.0,0.0,0.0,0.0,0.0,0.0,0.0,0.0,0.0,0.0,0.0,0.0,0.0,0.0,0.0,0.0,3.9748,4.1539,4.2284,4.1964,4.1736,4.1606,4.1543,4.0118,3.8607,0.0,0.0,0.0,0.0,0.0,0.0,0.0,0.0,0.0,0.0,0.0,0.0,0.0,0.0,0.0,0.0,0.0,0.0,0.0,0.0,0.0,0.0,0.0,0.0,0.0,0.0,0.0,0.0,0.0,0.0,0.0,0.0,0.0,0.0,0.0,0.0,0.0,0.0,0.0,0.0,0.0,3.2552,3.2484,3.2868,3.2828,0.0,0.0,3.2231,3.1279,3.2182,3.2447,3.0878,0.0,0.0,0.0,0.0,0.0,0.0,0.0,0.0,0.0,0.0,0.0,0.0,0.0,0.0,0.0,0.0,0.0,0.0,0.0,0.0,0.0,0.0,0.0,0.0,0.0,0.0,0.0,0.0,0.0,0.0,0.0,0.0,0.0,0.0,0.0,0.0,0.0,0.0,0.0,0.0,0.0,0.0,0.0,0.0,0.0,0.0,0.0,0.0,0.0,0.0,0.0,0.0,0.0,3.8413,3.9207,4.0065,4.0784,4.1358,4.1088,4.0769,4.0481,3.9479,3.8277,0.0,0.0,0.0,0.0,0.0,0.0,0.0,0.0,0.0,0.0,0.0,0.0,0.0,0.0,0.0,0.0,0.0,0.0,0.0,0.0,0.0,0.0,0.0,0.0,0.0,0.0,0.0,0.0,2.6276,2.6552,2.6944,0.0,0.0,0.0,0.0,0.0,0.0,0.0,0.0,0.0,0.0,3.3773,3.3879,3.4394,0.0,0.0,3.3585,3.319,3.26,3.2513,3.2173,3.1075,3.0908,0.0,0.0,0.0,0.0,0.0,0.0,0.0,0.0,0.0,0.0,0.0,0.0,0.0,0.0,0.0,0.0,0.0,0.0,0.0,0.0,0.0,0.0,0.0,0.0,0.0,0.0,0.0,0.0,0.0,0.0,0.0,0.0,0.0,0.0,0.0,0.0,0.0,0.0,0.0,0.0,0.0,0.0,0.0,0.0,0.0,0.0,0.0,0.0,0.0,0.0,0.0,0.0,3.7723,3.8914,3.9408,4.0071,4.0803,4.0522,4.0203,3.9865,3.897,3.7954,0.0,0.0,0.0,0.0,0.0,0.0,0.0,0.0,0.0,0.0,0.0,0.0,0.0,0.0,0.0,0.0,0.0,0.0,0.0,0.0,0.0,0.0,0.0,0.0,0.0,0.0,0.0,0.0,2.7322,2.7501,2.7687,0.0,0.0,0.0,0.0,0.0,0.0,0.0,0.0,0.0,0.0,3.4361,3.487,3.5222,3.5317,3.4969,3.4375,3.3832,3.3329,3.2729,3.216,3.155,0.0,0.0,0.0,0.0,0.0,0.0,0.0,0.0,0.0,0.0,0.0,0.0,0.0,0.0,0.0,0.0,0.0,0.0,0.0,0.0,0.0,0.0,0.0,0.0,0.0,0.0,0.0,0.0,0.0,0.0,2.0409,0.0,0.0,0.0,0.0,0.0,0.0,0.0,0.0,0.0,0.0,0.0,0.0,0.0,0.0,0.0,0.0,0.0,0.0,0.0,0.0,0.0,0.0,3.8287,3.8981,4.0092,4.055,4.0218,4.0086,3.998,3.9968,3.8705,3.7704,3.6975,0.0,0.0,0.0,0.0,0.0,0.0,0.0,0.0,0.0,0.0,0.0,0.0,0.0,0.0,0.0,0.0,0.0,0.0,0.0,0.0,0.0,0.0,0.0,0.0,0.0,0.0,2.8872,2.8583,2.8272,0.0,0.0,0.0,0.0,0.0,0.0,0.0,0.0,0.0,0.0,3.3764,3.4035,3.5145,3.5038,3.4767,3.4521,3.4298,3.3921,3.3149,3.2836,3.2645,0.0,0.0,0.0,0.0,0.0,0.0,0.0,0.0,0.0,0.0,0.0,0.0,0.0,0.0,0.0,0.0,0.0,0.0,0.0,0.0,0.0,0.0,0.0,0.0,0.0,0.0,0.0,2.1927,2.1752,0.0,0.0,0.0,0.0,0.0,0.0,0.0,0.0,0.0,0.0,0.0,2.7519,2.7627,0.0,0.0,0.0,0.0,0.0,0.0,0.0,0.0,0.0,0.0,0.0,0.0,3.7777,3.8282,3.91,3.9512,3.9457,3.9289,3.9253,3.9409,3.8524,3.7511,3.632,0.0,0.0,0.0,0.0,0.0,0.0,0.0,0.0,0.0,0.0,0.0,0.0,0.0,0.0,0.0,0.0,0.0,0.0,0.0,0.0,0.0,0.0,0.0,0.0,0.0,2.8396,0.0,0.0,0.0,0.0,0.0,0.0,0.0,0.0,0.0,0.0,0.0,3.2604,3.3839,3.4352,3.4903,3.578,3.5738,3.5569,0.0,0.0,0.0,0.0,0.0,0.0,0.0,0.0,0.0,0.0,0.0,0.0,0.0,0.0,3.2009,3.0955,3.0711,3.0752,3.1097,0.0,0.0,0.0,0.0,0.0,0.0,0.0,0.0,0.0,0.0,0.0,0.0,0.0,0.0,2.3365,0.0,2.3218,0.0,0.0,0.0,0.0,0.0,0.0,0.0,0.0,2.6401,2.7393,2.8373,2.8478,2.9195,0.0,3.058,3.1235,0.0,0.0,0.0,0.0,0.0,0.0,0.0,0.0,3.7552,3.8258,3.9033,3.9379,3.9343,3.9225,3.9106,3.8998,3.8358,3.7449,3.6343,3.565,3.4957,0.0,0.0,0.0,0.0,0.0,0.0,0.0,0.0,0.0,0.0,0.0,0.0,0.0,0.0,0.0,0.0,0.0,0.0,0.0,0.0,0.0,0.0,0.0,2.9348,0.0,0.0,0.0,0.0,0.0,0.0,0.0,0.0,0.0,3.2313,3.2762,3.344,3.4294,3.4798,3.5258,3.5854,0.0,0.0,0.0,0.0,0.0,0.0,0.0,3.3284,3.32,3.3148,3.3058,3.2968,3.2928,3.2915,3.2899,0.0,0.0,3.178,3.1539,3.1557,3.1857,3.2421,3.2851,3.2833,3.318,3.3523,0.0,0.0,0.0,0.0,0.0,0.0,0.0,0.0,2.4771,2.4233,0.0,2.3664,0.0,0.0,0.0,0.0,0.0,2.5151,0.0,0.0,2.7358,2.7906,2.8608,2.9082,2.9816,3.0768,3.1399,3.2203,3.3097,3.2939,0.0,0.0,0.0,0.0,0.0,0.0,3.7635,3.888,3.9824,4.0126,3.9702,3.9702,3.9427,3.8797,3.8112,3.7565,3.7102,3.5891,3.5297,3.5607,3.3711,0.0,0.0,0.0,0.0,0.0,0.0,0.0,0.0,0.0,0.0,0.0,0.0,0.0,0.0,0.0,0.0,0.0,0.0,0.0,0.0,3.111,0.0,0.0,0.0,0.0,0.0,0.0,0.0,0.0,0.0,0.0,3.3033,3.3556,3.428,3.5034,0.0,0.0,0.0,0.0,3.5093,3.4806,3.4739,3.4451,3.3661,3.3866,3.4134,3.4151,0.0,0.0,3.4025,3.3669,3.338,3.3368,3.2893,3.2468,3.3008,3.3048,3.3079,3.3042,3.3394,3.3631,3.3656,3.3748,3.3865,2.771,0.0,0.0,0.0,0.0,2.5438,2.5246,2.5274,2.5259,2.5104,2.4953,2.5042,0.0,0.0,0.0,0.0,0.0,0.0,2.6894,2.7144,2.8007,2.8961,2.9929,2.9987,3.0641,3.1764,3.1954,3.2706,3.3897,3.3622,3.3683,3.4137,0.0,0.0,0.0,0.0,3.8192,3.7802,3.8892,3.9061,3.8256,3.836,3.8405,3.8371,3.7582,3.723,3.7362,3.6681,3.5946,3.5162,3.4777,0.0,0.0,0.0,0.0,0.0,0.0,0.0,0.0,0.0,0.0,0.0,0.0,0.0,0.0,0.0,0.0,0.0,0.0,0.0,3.0832,3.119,3.129,0.0,0.0,0.0,0.0,0.0,0.0,0.0,0.0,0.0,3.3804,3.3833,3.3984,0.0,0.0,3.444,3.4635,3.5015,3.5251,3.5148,3.5176,0.0,0.0,3.5118,3.5017,3.5017,3.4885,3.4806,3.4861,3.4826,3.4786,3.4786,3.4637,3.4558,3.4614,3.41,3.3892,3.4466,3.469,3.4661,3.4671,3.4578,3.4527,2.8479,2.736,2.6201,2.6169,2.6786,2.6229,2.6187,2.6599,2.6318,2.6276,2.6414,2.6221,2.6151,2.6217,2.6344,0.0,0.0,0.0,2.7777,2.8427,2.9044,2.9911,3.0986,3.0979,3.1302,3.1984,3.2323,3.2954,3.3877,3.4119,3.4259,3.4365,0.0,0.0,3.6165,3.7739,3.8421,3.8188,3.9179,3.9263,3.8367,3.7978,3.7815,3.7844,3.7395,3.7172,3.7182,3.6671,3.5945,3.501,3.4635,3.4068,0.0,0.0,0.0,0.0,0.0,0.0,0.0,0.0,0.0,0.0,0.0,3.1082,0.0,0.0,0.0,0.0,3.1909,3.2183,3.2248,3.2403,0.0,0.0,0.0,0.0,0.0,0.0,0.0,3.2432,3.3484,3.4095,3.3852,3.405,3.4201,3.4218,3.442,3.4576,3.4559,0.0,3.5417,3.5346,3.5355,3.5447,3.5677,3.5664,3.5751,3.6005,3.5977,3.5911,3.5909,3.5733,3.5564,3.5536,3.5265,3.5125,3.5349,3.4853,3.4532,3.5058,3.5199,3.5236,3.5217,3.526,3.5358,2.945,2.9331,2.8358,2.809,2.8211,2.747,2.764,2.8439,2.768,2.7519,2.775,2.7153,2.6957,2.7065,2.7065,0.0,2.7031,2.7484,2.8656,3.0233,3.0195,3.0772,3.1862,3.1947,3.191,3.1895,3.2641,3.3163,3.3452,3.4512,3.4937,3.4807,3.5203,3.5956,3.7042,3.7642,3.8388,3.9316,4.0114,4.0171,3.9421,3.8213,3.749,3.7354,3.7461,3.7244,3.6721,3.6065,3.55,3.5077,3.3762,3.3226,3.3647,0.0,0.0,0.0,0.0,0.0,0.0,0.0,0.0,0.0,0.0,0.0,0.0,0.0,0.0,0.0,3.2768,0.0,3.3746,3.422,0.0,0.0,0.0,3.3464,3.297,3.2735,3.2751,3.3053,0.0,0.0,3.3483,3.4186,3.466,3.4461,3.4929,3.5182,3.4864,3.5335,3.566,3.5514,3.5496,3.5469,3.5489,3.5808,3.6266,3.6706,3.694,3.6872,3.6917,3.6456,3.5977,3.6069,3.5322,3.4975,3.5499,3.5628,3.5463,3.5138,3.5319,3.5534,3.5613,3.5879,3.6182,3.0877,2.9728,2.9849,2.9258,2.8183,2.7643,2.7549,2.7762,2.7638,2.7639,2.7725,2.7655,2.7698,2.7824,2.7726,2.7726,2.7839,2.8556,2.9182,2.971,3.041,3.1116,3.1839,3.2278,3.276,3.3169,3.3816,3.4363,3.487,3.5169,3.5385,3.5494,3.5954,3.6085,3.5906,3.7506,3.8137,3.7767,3.8887,3.9222,3.8738,3.7841,3.749,3.776,3.7063,3.6688,3.6676,3.6106,3.5489,3.49,3.4384,3.3972,3.3619,3.3104,0.0,0.0,0.0,0.0,0.0,0.0,0.0,0.0,0.0,3.2622,3.3472,0.0,3.3592,0.0,3.356,3.3547,3.3502,3.3456,0.0,0.0,3.3063,3.3031,3.2908,3.2961,3.3022,3.3082,3.314,3.3364,3.3914,3.4074,3.4275,3.4646,3.4971,3.5129,3.5121,3.5573,3.593,3.5967,3.6171,3.6392,3.6306,3.6328,3.6392,3.6521,3.6543,3.6678,3.7146,3.7103,3.7093,3.7488,3.7304,3.7106,3.7119,3.7126,3.6885,3.6666,3.6463,3.6423,3.6712,3.6692,3.6672,3.1561,3.0475,3.0821,3.0476,2.9604,2.8844,2.8502,2.8474,2.84,2.8355,2.8305,2.8411,2.815,2.7775,2.8499,2.8738,2.8616,2.9557,3.0188,3.0559,3.1261,3.1883,3.2488,3.3092,3.3486,3.374,3.4068,3.4437,3.4854,3.5086,3.5298,3.5541,3.6228,3.6306,3.5824,3.7298,3.7839,3.7386,3.8279,3.8706,3.8608,3.8007,3.7599,3.7444,3.7038,3.6575,3.6139,3.5806,3.5315,3.4695,3.4649,3.4532,3.4294,3.4104,3.3842,0.0,0.0,0.0,0.0,0.0,0.0,0.0,0.0,0.0,0.0,0.0,3.4058,3.4088,3.4033,3.4054,3.4054,3.4047,3.3911,3.3553,3.3755,3.3877,3.3728,3.3765,3.3842,3.3983,3.3852,3.3926,3.4168,3.4409,3.463,3.4913,3.5285,3.5483,3.5356,3.5821,3.6275,3.6574,3.6587,3.6524,3.6417,3.6405,3.635,3.6251,3.6334,3.6538,3.6831,3.6627,3.6586,3.6866,3.6778,3.6624,3.6651,3.6807,3.6897,3.7002,3.6825,3.6726,3.6946,3.6801,3.6623,3.2014,3.1416,3.1619,3.1694,3.1572,3.0564,3.0038,2.9786,2.9447,2.9256,2.9189,2.9189,2.8569,2.7659,2.9228,2.9701,2.9304,3.0426,3.1268,3.1791,3.2236,3.2707,3.3242,3.3802,3.4012,3.3872,3.3973,3.4091,3.4305,3.4833,3.5147,3.5269,3.627,3.6564,3.6117,3.7065,3.7595,3.7754,3.8128,3.8505,3.8786,3.834,3.7722,3.7036,3.7085,3.6631,3.5566,3.5346,3.5063,3.4579,3.4685,3.4836,3.5022,3.5226,3.4929,0.0,3.418,0.0,0.0,0.0,0.0,0.0,0.0,0.0,0.0,3.4292,3.4051,3.409,3.438,3.4638,3.4861,3.5027,3.4917,3.4416,3.4802,3.5006,3.4722,3.4651,3.4733,3.4966,3.4817,3.4554,3.4304,3.4865,3.5233,3.5264,3.5583,3.5812,3.5656,3.6002,3.6515,3.7123,3.6716,3.6286,3.6038,3.6098,3.6166,3.6053,3.6026,3.6256,3.6545,3.6034,3.5612,3.5764,3.587,3.57,3.5557,3.6048,3.6496,3.694,3.6884,3.6817,3.6898,3.6749,3.6577,3.334,3.2431,3.2762,3.2723,3.2457,3.2091,3.1333,3.0388,2.9899,2.9684,2.9663,2.9663,2.9512,2.9351,2.968,2.9856,2.9871,3.0905,3.1531,3.1838,3.2342,3.262,3.2732,3.3197,3.3497,3.371,3.4297,3.4668,3.4708,3.5769,3.5741,3.4778,3.6489,3.6864,3.6021,0.0,0.0,0.0,3.8483,3.8662,3.8831,3.794,3.7505,3.7529,3.6636,0.0,3.6095,3.5177,3.4708,3.473,3.4517,0.0,0.0,0.0,0.0,0.0,0.0,0.0,0.0,0.0,0.0,0.0,3.4883,3.5078,3.5968,3.5293,3.4859,3.4993,3.4576,3.4433,3.4767,3.4705,3.4585,3.4502,3.4567,3.4604,3.4529,3.4426,3.4303,3.4357,3.4213,3.4202,3.4448,3.461,3.4962,3.5612,3.5628,3.5723,3.6088,3.6143,3.6261,3.6483,3.6308,3.6006,3.5548,3.5575,3.5676,3.5779,3.5352,3.5605,3.6674,3.642,3.6345,3.698,3.7314,3.7227,3.7227,3.7407,3.7319,3.7367,3.7324,3.7321,3.7355,3.7169,3.6985,3.4439,0.0,3.369,3.3649,0.0,3.2621,3.2024,3.1674,3.0866,3.036,3.021,3.0184,3.0317,3.0492,3.0674,3.0706,3.0721,3.1392,3.1745,3.1848,3.2315,3.2546,3.2571,3.3362,3.3773,3.3903,3.4459,3.4692,3.4742,3.54,3.5436,3.4906,3.6386,3.6885,3.6537,3.7255,3.7848,3.8236,3.8526,3.8686,3.8733,3.8327,3.7967,3.7701,3.7224,0.0,0.0,0.0,0.0,0.0,0.0,0.0,0.0,0.0,0.0,3.5328,3.5376,3.5274,3.4994,3.5059,3.5293,3.572,3.6041,3.615,3.5994,3.5615,3.5403,3.533,3.4743,3.4446,3.4621,3.4632,3.4651,3.4651,3.4827,3.4952,3.4932,3.4952,3.4893,3.4849,3.4967,3.509,3.5032,3.5435,3.5761,3.613,3.6151,3.6165,3.6421,3.6183,3.5918,3.5898,3.6035,3.5863,3.5396,3.5136,3.5198,3.5455,3.5229,3.5352,3.6151,3.5881,3.5778,3.6319,3.6468,3.6534,3.6675,3.6878,3.7059,3.6968,3.6854,3.676,3.676,3.6828,3.6968,3.5228,3.496,3.4431,3.4345,3.4494,3.296,3.2505,3.27,0.0,0.0,0.0,3.0877,3.0992,3.1256,3.1481,3.1513,3.1387,3.1786,3.196,3.1965,3.2322,3.2496,3.2525,3.3485,3.3991,3.4048,3.4395,3.4578,3.4578,3.4755,3.5004,3.5335,3.6155,3.6734,3.7062,3.7791,3.8073,3.7912,3.8347,3.8605,3.8698,3.8674,3.8336,3.7754,3.7842,3.7593,3.6912,3.6332,3.6013,3.6056,3.5832,3.577,3.5954,3.6048,3.5956,3.5649,3.5613,3.5374,3.4868,3.5058,3.5526,3.627,3.7049,3.7016,3.5789,3.5722,3.5659,3.5515,3.4865,3.4481,3.4591,3.4737,3.4839,3.4866,3.5157,3.5345,3.5345,3.5602,3.5602,3.5519,3.5865,3.6167,3.5759,3.6171,3.6589,3.6511,3.6471,3.6623,3.6603,3.6276,3.5898,3.5678,3.59,3.5865,3.5296,3.5013,3.4959,3.5321,3.5172,3.5131,3.5315,3.5173,3.5015,3.5266,3.5221,3.5402,3.552,3.5964,3.6239,3.6263,3.6098,3.5931,3.5955,3.6216,3.6546,3.5583,3.5292,3.4816,3.4629,3.4528,3.3839,3.3082,3.2315,3.2257,3.2076,3.182,3.182,3.1632,3.1281,3.1317,3.1347,3.1351,3.19,3.2152,3.2156,3.235,3.2407,3.2432,3.2803,3.3162,3.3465,3.4115,3.4429,3.4477,3.4894,3.5282,3.557,3.5929,3.6334,3.6783,3.7572,3.7994,3.7897,3.7979,3.8349,3.9001,3.8158,3.7756,3.7861,3.7408,3.7209,3.7237,3.6678,3.6495,3.6668,3.6796,3.6897,3.6891,3.6616,3.6504,3.6443,3.6416,3.6334,3.6074,3.6485,3.6751,3.6721,3.6839,3.6903,3.6847,3.5987,3.5548,3.5758,3.4948,3.4473,3.4948,3.5068,3.5081,3.5034,3.5094,3.5147,3.5186,3.5559,3.5769,3.5606,3.6039,3.6301,3.6014,3.5965,3.6163,3.6404,3.6367,3.6025,3.6271,3.6474,3.6406,3.6056,3.6157,3.5926,3.5285,3.5171,3.5188,3.5418,3.4906,3.481,3.5619,3.5284,3.5021,3.5419,3.547,3.552,3.5592,3.5642,3.5764,3.5788,3.5716,3.5644,3.5642,3.5739,3.5787,3.595,3.567,3.5188,3.4867,3.4663,3.3954,3.3402,3.2931,3.299,3.2557,3.1925,3.19,3.1885,3.1889,3.1613,3.1421,3.1317,3.1496,3.1528,3.1576,3.2043,3.224,3.2312,3.297,3.336,3.3552,3.4007,3.4245,3.4317,3.4893,3.5256,3.5452,3.6358,3.7115,3.7649,3.8168,3.8545,3.8827,3.8553,3.8564,3.8895,3.8279,3.7924,3.7898,3.7471,3.7254,3.7205,3.6683,3.6438,3.6526,3.6301,3.6232,3.6314,3.6207,3.6183,3.6311,3.6311,3.6225,3.5994,3.6433,3.6655,3.6704,3.7329,3.7562,3.7336,3.6598,3.6369,3.6796,3.6103,3.5571,3.5571,3.56,3.5468,3.5021,3.5155,3.5253,3.5279,3.544,3.5622,3.5744,3.6077,3.6259,3.6013,3.6248,3.6459,3.6647,3.6465,3.645,3.6405,3.6586,3.6534,3.5945,3.5727,3.5571,3.5282,3.4944,3.4963,3.5245,3.4925,3.4833,3.5305,3.5087,3.516,3.5307,3.5356,3.5452,3.5548,3.5596,3.5596,3.5596,3.5476,3.5404,3.5355,3.5283,3.5307,3.6026,3.569,3.5224,3.4814,3.4384,3.364,3.3236,3.3073,3.3118,3.2605,3.1785,3.1972,3.2166,3.2193,3.1795,3.1528,3.1395,3.1239,3.1219,3.1383,3.1943,3.22,3.2272,3.3197,3.36,3.3647,3.3951,3.4159,3.4325,3.4903,3.5314,3.5583,3.692,3.7767,3.8039,3.8311,3.8712,3.9244,3.8913,3.8808,3.8955,3.8635,3.8302,3.8084,3.776,3.75,3.7262,3.6749,3.649,3.6465,3.6035,3.5846,3.6003,3.5896,3.5934,3.6111,3.6133,3.6145,3.6051,3.6431,3.6687,3.6719,3.7798,3.8237,3.7643,3.74,3.7285,3.7382,3.6762,3.6212,3.5836,3.5726,3.555,3.5006,3.5094,3.5188,3.5216,3.5344,3.5488,3.5744,3.6063,3.6238,3.6176,3.6525,3.6777,3.659,3.6734,3.6734,3.6523,3.6427,3.6212,3.5839,3.5418,3.5253,3.5351,3.4918,3.4785,3.509,3.4943,3.4822,3.4872,3.4993,3.509,3.5114,3.5114,3.5163,3.538,3.5404,3.538,3.5356,3.5235,3.5114,3.509,3.5065,3.5041,3.538,3.4896,3.4653,3.4052,3.3361,3.2795,3.2323,3.1898,3.2041,3.1852,3.1525,3.2533,3.2549,3.185,3.1711,3.1665,3.1642,3.1642,3.1855,3.2254,3.2418,3.2465,3.2512,3.31,3.3335,3.3453,3.3899,3.4319,3.4695,3.5066,3.558,3.6288,3.7176,3.7404,3.7066,3.7293,3.7741,3.849,3.8465,3.8793,3.9443,3.903,3.8748,3.8724,3.8161,3.7853,3.778,3.7315,3.7008,3.7008,3.6957,3.6931,3.6903,3.6516,3.6257,3.6279,3.6279,3.6485,3.6929,3.7444,3.7522,3.7185,3.8084,3.8468,3.7956,3.8309,3.8039,3.7017,3.6051,3.5727,3.5432,3.5136,3.5035,3.5072,3.4942,3.4675,3.4879,3.5175,3.5525,3.5525,3.6125,3.6377,3.6281,3.6331,3.6334,3.6122,3.6146,3.6074,3.5835,3.5787,3.574,3.5663,3.5709,3.5517,3.5113,3.5041,3.4969,3.4896,3.4848,3.48,3.4824,3.4823,3.4872,3.5065,3.4944,3.4993,3.5017,3.4872,3.4944,3.5211,3.5138,3.492,3.4871,3.5056,3.5223,3.536,3.4982,3.5082,3.4574,3.3663,3.3127,3.2627,3.2162,3.2258,3.2209,3.2061,3.2553,3.2383,3.1715,3.1739,3.1668,3.148,3.148,3.15,3.1633,3.2327,3.2772,3.3036,3.3775,3.4198,3.4398,3.4481,3.4613,3.4874,3.5385,3.6171,3.7063,3.7617,3.7827,3.7788,3.7997,3.8301,3.8601,3.8626,3.8807,3.9066,3.8944,3.8867,3.8791,3.8285,3.7956,3.7906,3.7449,3.7074,3.693,3.6932,3.686,3.6692,3.6911,3.701,3.6866,3.6986,3.7087,3.7142,3.7514,3.7563,3.7192,3.8015,3.8316,3.7838,3.824,3.8164,3.7379,3.7166,3.6937,3.6232,3.6076,3.5936,3.5618,3.5549,3.5624,3.5818,3.6063,3.6209,3.6059,3.6478,3.6528,3.5912,3.5667,3.5691,3.5716,3.579,3.5694,3.5428,3.538,3.5284,3.5163,3.5235,3.5235,3.5017,3.4945,3.492,3.4823,3.4799,3.4799,3.4799,3.4799,3.4871,3.5208,3.5231,3.5399,3.5785,3.5448,3.5328,3.5497,3.5716,3.5717,3.5562,3.572,3.5768,3.5123,3.4814,3.4967,3.4581,3.3828,3.3436,3.3048,3.2692,3.2667,3.2667,3.2667,3.2744,3.2566,3.2188,3.1925,3.1692,3.1611,3.1476,3.1469,3.1589,3.2504,3.3115,3.3498,3.4136,3.4628,3.4785,3.4684,3.4775,3.5064,3.5789,3.6631,3.7415,3.7812,3.8104,3.8289,3.8622,3.8825,3.8904,3.893,3.893,3.9015,3.8934,3.8916,3.8943,3.8366,3.8042,3.8091,3.7517,3.712,3.6899,3.6899,3.6825,3.6653,3.7171,3.7393,3.7243,3.7393,3.7418,3.7193,3.7517,3.7566,3.7292,3.8011,3.8286,3.7914,3.8186,3.8284,3.7912,3.809,3.7742,3.69,3.6723,3.6497,3.5981,3.6042,3.6208,3.6313,3.6436,3.637,3.628,3.655,3.6698,3.5867,3.5673,3.5722,3.5844,3.5844,3.5673,3.5405,3.5307,3.5232,3.4965,3.4868,3.4845,3.4944,3.4896,3.4775,3.4726,3.4702,3.4823,3.487,3.4893,3.501,3.5363,3.5585,3.5756,3.5923,3.5852,3.588,3.6243,3.6392,3.6294,3.5963,3.6216,3.6206,3.4422,3.3993,3.3728,3.3653,3.3502,3.325,3.3117,3.3029,3.3068,3.309,3.31,3.3281,3.3409,3.3263,3.2227,3.195,3.2261,3.1925,3.2194,3.2907,3.3112,3.3429,3.3877,3.3922,3.3993,3.4238,3.4396,3.4789,3.5443,3.6248,3.6823,3.712,3.7628,3.7947,3.8121,3.853,3.8905,3.9148,3.9121,3.9282,3.942,3.9034,3.887,3.9105,3.8456,3.8134,3.8263,3.7615,3.7194,3.7169,3.7194,3.7169,3.7144,3.7218,3.7266,3.7242,3.7242,3.7242,3.7291,3.7684,3.7732,3.7413,3.8073,3.8518,3.7923,3.8266,3.8408,3.8352,3.8018,3.7605,3.6883,3.6454,3.6173,3.5999,3.5767,3.5711,3.5711,3.5883,3.5819,3.598,3.6259,3.6413,3.6594,3.6497,3.6224,3.6222,3.6322,3.6105,3.5663,3.5573,3.5373,3.5141,3.4925,3.4706,3.4527,3.4675,3.47,3.4674,3.4793,3.4917,3.5055,3.5216,3.535,3.5559,3.5831,3.5979,3.6055,3.6181,3.6333,3.6504,3.6576,3.6449,3.6253,3.6313,3.6323,3.5048,3.4808,3.4203,3.3935,3.3913,3.3519,3.3231,3.3098,3.3098,3.3098,3.3124,3.3205,3.3299,3.335,3.2603,3.2577,3.3071,3.2942,3.2975,3.3197,3.3457,3.378,3.4092,3.443,3.4695,3.4858,3.4966,3.5138,3.5405,3.5745,3.6114,3.6549,3.6769,3.7338,3.8129,3.8448,3.8824,3.9355,3.9049,3.8943,3.9169,3.8387,3.8152,3.8616,3.8554,3.8572,3.865,3.8055,3.7657,3.7454,3.7454,3.7378,3.7248,3.7538,3.7785,3.7941,3.7811,3.7707,3.7731,3.7877,3.7768,3.7257,3.7678,3.7841,3.7331,3.7346,3.7492,3.7518,3.7358,3.6991,3.6826,3.6553,3.6446,3.6393,3.6207,3.6104,3.6234,3.6287,3.6247,3.6001,3.593,3.6042,3.6381,3.618,3.5888,3.587,3.589,3.5819,3.5636,3.5339,3.5121,3.4915,3.4609,3.425,3.3986,3.4469,3.4782,3.485,3.4968,3.523,3.5414,3.5435,3.557,3.5918,3.6164,3.636,3.6459,3.6735,3.6868,3.6703,3.6751,3.6711,3.6553,3.657,3.6557,3.5063,3.4908,3.4384,3.4093,3.3988,3.3677,3.3443,3.3258,3.3258,3.328,3.3258,3.3258,3.3316,3.3317,3.3032,3.3122,3.3454,3.3219,3.3105,3.3225,3.3503,3.3879,3.4274,3.4576,3.4841,3.5091,3.5119,3.5174,3.5307,3.5524,3.5841,3.6205,3.6557,3.7197,3.8048,3.8342,3.8736,3.9075,3.8812,3.8732,3.8916,3.8157,3.7877,3.8378,3.8641,3.8628,3.8419,3.7952,3.7627,3.7471,3.7547,3.7469,3.7257,3.7411,3.7625,3.7681,3.7548,3.7536,3.7678,3.7783,3.7719,3.7504,3.7769,3.7742,3.7391,3.7337,3.7376,3.734,3.7131,3.6921,3.6681,3.6526,3.6468,3.6522,3.6413,3.6386,3.6526,3.6553,3.6445,3.625,3.6104,3.6186,3.6347,3.6187,3.6048,3.5949,3.5928,3.5928,3.5817,3.5575,3.5243,3.5154,3.489,3.4671,3.4544,3.4927,3.4828,3.4828,3.5049,3.535,3.5694,3.5694,3.5832,3.62,3.651,3.6681,3.6955,3.7257,3.7192,3.6959,3.6959,3.6971,3.6871,3.678,3.6673,3.4367,3.4142,3.4086,3.3931,3.3663,3.362,3.36,3.3564,3.3557,3.355,3.3528,3.3557,3.3543,3.3565,3.3501,3.3565,3.3423,3.2812,3.2806,3.3326,3.3369,3.3744,3.4363,3.427,3.4363,3.4637,3.46,3.4718,3.5041,3.5663,3.6061,3.6269,3.7008,3.7491,3.7718,3.824,3.851,3.8608,3.855,3.8666,3.8885,3.8359,3.8161,3.8522,3.8512,3.8205,3.7634,3.7301,3.7197,3.7217,3.7408,3.7435,3.7163,3.7018,3.67,3.661,3.6455,3.6608,3.7026,3.7368,3.7692,3.7854,3.8372,3.8386,3.8143,3.8251,3.8139,3.7737,3.7478,3.7229,3.6703,3.626,3.605,3.6223,3.6223,3.6196,3.6254,3.6305,3.6413,3.6561,3.6549,3.6638,3.6661,3.6534,3.6487,3.6495,3.6514,3.6445,3.627,3.6031,3.6056,3.5832,3.5346,3.4941,3.5208,3.5428,3.5014,3.4729,3.5028,3.5315,3.5762,3.5942,3.6004,3.6302,3.6425,3.6622,3.6838,3.7089,3.7207,3.7069,3.7136,3.7102,3.6956,3.6816,3.6599,3.3812,3.3777,3.3749,3.372,3.3586,3.3586,3.3586,3.3586,3.3586,3.3586,3.3586,3.3586,3.3494,3.3409,3.3583,3.3644,3.3429,3.3137,3.3204,3.3479,3.3514,3.3655,3.3904,3.4147,3.4446,3.4819,3.5093,3.5056,3.5026,3.5639,3.5956,3.6013,3.649,3.7209,3.7894,3.8134,3.8455,3.8945,3.8585,3.8526,3.8746,3.7933,3.7511,3.7553,3.7311,3.6985,3.6827,3.7132,3.7409,3.7493,3.7321,3.7275,3.7419,3.7427,3.7371,3.726,3.7086,3.7132,3.741,3.7394,3.7298,3.7343,3.756,3.748,3.7223,3.736,3.7406,3.7224,3.7059,3.6912,3.6754,3.6543,3.6226,3.5968,3.5785,3.5813,3.6004,3.6168,3.6332,3.6413,3.644,3.644,3.6413,3.6409,3.6382,3.6413,3.6409,3.6371,3.631,3.5995,3.5726,3.56,3.5313,3.5218,3.5382,3.5497,3.5323,3.5149,3.5352,3.5506,3.5905,3.6121,3.6202,3.6271,3.6394,3.6549,3.6742,3.687,3.6963,3.7053,3.7053,3.6982,3.6906,3.6755,3.6566,3.3551,3.3466,3.3438,3.3381,3.3289,3.3301,3.3413,3.3499,3.3385,3.3413,3.3478,3.3331,3.3202,3.3119,3.3215,3.3223,3.3202,3.3058,3.3111,3.3302,3.36,3.3812,3.4089,3.4394,3.4612,3.4837,3.5144,3.5162,3.4926,3.5539,3.583,3.5802,3.618,3.6809,3.7569,3.7651,3.8007,3.8432,3.8036,3.7916,3.8029,3.7479,3.7146,3.7332,3.7126,3.6971,3.6986,3.7147,3.7264,3.7304,3.7076,3.7076,3.7349,3.7263,3.7172,3.7057,3.6937,3.6946,3.7248,3.7264,3.7289,3.7255,3.7527,3.7585,3.7264,3.7322,3.7343,3.7141,3.7126,3.6962,3.661,3.637,3.6095,3.582,3.5816,3.5808,3.5977,3.6059,3.6086,3.6086,3.6032,3.5977,3.5977,3.5977,3.6004,3.6059,3.6032,3.6032,3.5963,3.5731,3.5594,3.553,3.5511,3.5451,3.5451,3.5497,3.5543,3.5638,3.5784,3.5883,3.6133,3.6198,3.6286,3.6263,3.6336,3.6386,3.6549,3.6576,3.6622,3.6757,3.6919,3.6833,3.6769,3.6787,3.6649,3.3473,3.3245,3.3238,3.3129,3.2855,3.2974,3.3176,3.3293,3.3088,3.3147,3.324,3.2938,3.2765,3.2767,3.2632,3.2644,3.277,3.2656,3.2711,3.3062,3.3501,3.4098,3.4643,3.48,3.4787,3.466,3.4969,3.5095,3.5053,3.5567,3.5742,3.5747,3.617,3.6533,3.6876,3.688,3.708,3.7344,3.7093,3.7093,3.7344,3.705,3.708,3.7572,3.755,3.7506,3.7358,3.6999,3.6722,3.6731,3.6789,3.6856,3.6789,3.6593,3.6508,3.6377,3.6122,3.6436,3.675,3.7045,3.7266,3.756,3.7783,3.8291,3.8007,3.7858,3.7784,3.7509,3.7494,3.7211,3.6461,3.6108,3.5928,3.5858,3.5999,3.6114,3.6214,3.5968,3.5813,3.573,3.5561,3.5423,3.5505,3.5505,3.5588,3.5698,3.5593,3.5643,3.5676,3.5608,3.5571,3.5558,3.5532,3.5568,3.5495,3.5517,3.5563,3.5721,3.5889,3.6012,3.6185,3.6259,3.6282,3.6282,3.6282,3.6305,3.6305,3.6332,3.6451,3.6635,3.67,3.6668,3.6691,3.6759,3.6622,3.3718,3.3389,3.3722,3.3691,3.3396,3.34,3.3322,3.3203,3.3113,3.3113,3.3072,3.2707,3.2556,3.2529,3.2497,3.2527,3.2639,3.2771,3.3124,3.3477,3.3669,3.3978,3.4354,3.4694,3.481,3.4791,3.5293,3.5456,3.5242,3.5794,3.5979,3.5742,3.6097,3.6423,3.6514,3.6514,3.6575,3.6637,3.6606,3.6545,3.6637,3.6606,3.6484,3.6392,3.6484,3.6462,3.6462,3.6499,3.629,3.6062,3.6581,3.6875,3.6869,3.6989,3.6975,3.6915,3.6929,3.6935,3.6855,3.6928,3.6933,3.6798,3.7002,3.7032,3.7297,3.7305,3.733,3.735,3.7448,3.7338,3.7059,3.681,3.6646,3.6477,3.6218,3.596,3.5921,3.5652,3.5505,3.5478,3.5468,3.5435,3.5429,3.5457,3.5485,3.554,3.5512,3.5507,3.5624,3.5602,3.5586,3.549,3.5488,3.5488,3.5543,3.5543,3.5603,3.5772,3.5881,3.5963,3.6145,3.6282,3.6282,3.6282,3.6282,3.6305,3.6196,3.6141,3.6351,3.6548,3.6461,3.6406,3.6635,3.6759,3.6557,3.3936,3.3708,3.3978,3.3893,3.3615,3.3658,3.3558,3.3397,3.3245,3.3276,3.3266,3.2914,3.2714,3.2765,3.2635,3.2675,3.2835,3.2865,3.3115,3.3488,3.3699,3.3974,3.4227,3.4523,3.4655,3.4892,3.5417,3.5498,3.5382,3.5775,3.5712,3.5495,3.5785,3.5972,3.5993,3.6147,3.627,3.6361,3.63,3.6208,3.6178,3.6055,3.6003,3.588,3.588,3.588,3.5911,3.6064,3.6091,3.6125,3.6456,3.6698,3.6698,3.685,3.698,3.698,3.698,3.6859,3.6728,3.6719,3.6606,3.6453,3.6423,3.6484,3.6698,3.6789,3.7002,3.7132,3.7314,3.7287,3.712,3.6977,3.689,3.6692,3.6398,3.6133,3.6163,3.6032,3.5876,3.5775,3.5718,3.5634,3.5634,3.5662,3.5718,3.5791,3.5773,3.5779,3.5864,3.5718,3.5674,3.5663,3.5703,3.5798,3.5793,3.5781,3.5669,3.5791,3.5929,3.5967,3.61,3.6269,3.6277,3.6277,3.6277,3.6254,3.6196,3.6141,3.6264,3.6356,3.626,3.6305,3.6512,3.6745,3.6548,3.4205,3.4104,3.4166,3.3957,3.3689,3.375,3.3747,3.3686,3.3409,3.3439,3.3524,3.3256,3.3023,3.3217,3.2672,3.2731,3.3098,3.279,3.2922,3.3184,3.3495,3.3797,3.4129,3.4329,3.4452,3.4687,3.5108,3.5211,3.517,3.5242,3.5139,3.4984,3.518,3.5325,3.5418,3.5634,3.5963,3.6147,3.5993,3.587,3.5819,3.5665,3.5603,3.5757,3.5757,3.5788,3.5788,3.5839,3.5859,3.6248,3.6331,3.6361,3.6361,3.6361,3.6423,3.6484,3.6514,3.6453,3.6361,3.6361,3.63,3.6239,3.6239,3.6331,3.6361,3.6545,3.6758,3.6941,3.7162,3.7131,3.7011,3.6836,3.6866,3.683,3.68,3.681,3.68,3.6571,3.636,3.6331,3.6107,3.6041,3.6012,3.6034,3.6078,3.5956,3.5936,3.5943,3.5972,3.5921,3.5972,3.6095,3.613,3.6188,3.6124,3.6038,3.5859,3.5832,3.5944,3.6038,3.6095,3.6219,3.6214,3.6223,3.6223,3.6227,3.6254,3.6277,3.6246,3.6292,3.6246,3.6301,3.6379,3.6639,3.6639,3.4768,3.4288,3.4585,3.4389,3.3893,3.3868,3.3701,3.3481,3.3407,3.3399,3.3371,3.3049,3.292,3.2897,3.2594,3.2348,3.2564,3.267,3.2967,3.3262,3.3068,3.3265,3.3654,3.4053,3.4223,3.4265,3.4458,3.4641,3.4662,3.4754,3.4579,3.4568,3.4702,3.4735,3.5025,3.5097,3.5263,3.5541,3.5531,3.5479,3.551,3.5448,3.5418,3.551,3.5479,3.5479,3.5448,3.5263,3.5263,3.5572,3.587,3.5993,3.6055,3.6239,3.6331,3.6331,3.6361,3.627,3.6086,3.5993,3.588,3.5695,3.5695,3.5695,3.5972,3.6086,3.6392,3.6728,3.6972,3.7058,3.7161,3.7221,3.7178,3.7178,3.7208,3.7216,3.7138,3.6589,3.6253,3.6158,3.6129,3.6034,3.6056,3.6093,3.6151,3.6114,3.6114,3.6085,3.61,3.6173,3.6319,3.6487,3.6472,3.6465,3.6251,3.6124,3.5944,3.5839,3.5975,3.5997,3.6061,3.612,3.6107,3.6136,3.6168,3.6168,3.6168,3.6086,3.6,3.61,3.6201,3.6096,3.6132,3.6473,3.6728,3.4379,3.4379,3.4571,3.436,3.3953,3.389,3.3702,3.3418,3.3228,3.326,3.3284,3.3007,3.2949,3.3066,3.2871,3.2711,3.2545,3.2563,3.27,3.2835,3.2712,3.2751,3.3007,3.3645,3.4005,3.4161,3.4593,3.4693,3.4733,3.4842,3.4891,3.4524,3.463,3.4733,3.4747,3.4732,3.4766,3.4891,3.4922,3.4984,3.5139,3.517,3.517,3.5108,3.5046,3.4922,3.4922,3.4766,3.4859,3.5108,3.5325,3.551,3.5665,3.5839,3.5932,3.5942,3.5932,3.5849,3.5695,3.5634,3.5572,3.5418,3.5387,3.5479,3.5665,3.5788,3.6055,3.6361,3.6575,3.6789,3.7123,3.7184,3.7214,3.7374,3.7374,3.7374,3.7287,3.6915,3.6661,3.6661,3.6705,3.6705,3.6661,3.653,3.6617,3.6756,3.6778,3.6748,3.6792,3.6836,3.6822,3.6895,3.68,3.6669,3.6406,3.618,3.5995,3.5943,3.5978,3.5929,3.5892,3.5969,3.6033,3.5981,3.5903,3.5895,3.5868,3.5813,3.5785,3.5913,3.5936,3.5753,3.5793,3.6047,3.6329,3.3517,3.4093,3.4153,3.3985,3.3702,3.3639,3.3449,3.3197,3.2943,3.2943,3.3133,3.2962,3.2885,3.3146,3.3158,3.3019,3.2797,3.2575,3.2498,3.2498,3.2479,3.2536,3.2752,3.3238,3.3882,3.4509,3.4791,3.4932,3.5064,3.5316,3.501,3.4715,3.4868,3.49,3.4704,3.4512,3.4553,3.4667,3.4577,3.4579,3.4797,3.4828,3.4828,3.4797,3.4641,3.4597,3.4586,3.4503,3.4526,3.4879,3.4807,3.4922,3.517,3.5325,3.5325,3.5325,3.5294,3.5232,3.5201,3.5201,3.5232,3.5294,3.5325,3.5356,3.5448,3.5634,3.5819,3.6024,3.627,3.6545,3.6789,3.6819,3.6941,3.7132,3.7253,3.7305,3.7275,3.7305,3.7226,3.7295,3.7164,3.712,3.7186,3.7164,3.7295,3.7404,3.7404,3.7404,3.7404,3.7382,3.7229,3.7186,3.7098,3.7055,3.6806,3.6675,3.6443,3.6312,3.6282,3.6129,3.5983,3.5953,3.5995,3.5731,3.563,3.5673,3.5693,3.5671,3.5671,3.5726,3.5743,3.5656,3.5651,3.5651,3.5993,3.2514,3.2673,3.301,3.2943,3.2676,3.2676,3.2676,3.2581,3.2517,3.2517,3.2581,3.2517,3.2517,3.2594,3.2581,3.2517,3.2453,3.2326,3.2294,3.2294,3.2313,3.2407,3.2695,3.3028,3.3571,3.4241,3.4646,3.4812,3.4805,3.4799,3.4943,3.476,3.4753,3.4818,3.4927,3.4759,3.464,3.4667,3.4478,3.436,3.4454,3.4485,3.4485,3.4506,3.4401,3.455,3.4679,3.4361,3.4301,3.4937,3.4415,3.4338,3.4619,3.4921,3.5014,3.5034,3.4888,3.4886,3.4835,3.4722,3.4755,3.4891,3.5117,3.5232,3.5366,3.5469,3.5696,3.587,3.6147,3.6392,3.6453,3.6484,3.6484,3.6637,3.6819,3.688,3.6758,3.685,3.7093,3.7283,3.7344,3.7344,3.7314,3.7344,3.7404,3.7404,3.7404,3.7404,3.7404,3.7404,3.7361,3.7339,3.7361,3.7339,3.7243,3.7199,3.7076,3.6937,3.682,3.6657,3.6467,3.6158,3.5975,3.5903,3.5686,3.5608,3.5602,3.5518,3.5562,3.5702,3.5602,3.5524,3.5486,3.5491,3.5735,3.0759,3.1313,3.1883,3.2019,3.1974,3.2262,3.2422,3.2358,3.223,3.2262,3.2294,3.223,3.2262,3.2326,3.2211,3.2051,3.1891,3.1891,3.1782,3.1685,3.18,3.1986,3.2413,3.2777,3.341,3.4029,3.4494,3.4748,3.4799,3.5045,3.5015,3.5012,3.4893,3.494,3.5047,3.4654,3.4514,3.4497,3.4199,3.4004,3.413,3.4161,3.4161,3.417,3.4223,3.4378,3.4425,3.429,3.4262,3.4616,3.4254,3.4289,3.4558,3.4754,3.4828,3.4963,3.5009,3.5055,3.5055,3.5107,3.5286,3.5593,3.5616,3.5651,3.5727,3.579,3.5749,3.5665,3.5747,3.5963,3.6116,3.6147,3.6208,3.6392,3.6545,3.6514,3.6484,3.6545,3.6789,3.7032,3.7063,3.7093,3.7154,3.7214,3.7344,3.7404,3.7374,3.7374,3.7374,3.7404,3.7404,3.7404,3.7404,3.7404,3.7404,3.7404,3.7352,3.724,3.7231,3.7067,3.6876,3.6519,3.6405,3.6319,3.606,3.5545,3.5458,3.5374,3.5513,3.5669,3.5769,3.5779,3.5388,3.532,3.5665,2.8965,2.9954,3.0605,3.0918,3.1087,3.1685,3.1942,3.1942,3.1782,3.1846,3.2102,3.1782,3.175,3.1942,3.1731,3.1442,3.1184,3.1184,3.1073,3.0962,3.12,3.14,3.1898,3.2514,3.3326,3.3889,3.4402,3.4819,3.4863,3.5084,3.5288,3.5201,3.497,3.5003,3.5084,3.4791,3.4368,3.4135,3.3906,3.3819,3.3989,3.4053,3.4053,3.4053,3.4184,3.4303,3.4511,3.4374,3.4459,3.4613,3.448,3.4358,3.4848,3.4858,3.4886,3.5151,3.5468,3.5613,3.5678,3.569,3.5771,3.6094,3.6228,3.6257,3.6263,3.6173,3.6048,3.5573,3.5583,3.5645,3.582,3.5809,3.5932,3.6086,3.6208,3.627,3.6178,3.6187,3.627,3.6484,3.6637,3.688,3.7032,3.7184,3.7344,3.7253,3.7253,3.7253,3.7253,3.7374,3.7404,3.7404,3.7404,3.7404,3.7404,3.7404,3.7322,3.7218,3.7201,3.7162,3.7006,3.6833,3.6722,3.6552,3.5758,3.529,3.5285,3.5448,3.5735,3.5978,3.6133,3.6119,3.5916,3.5711,3.5872,2.7801,2.851,2.8921,2.9282,2.9674,3.0278,3.0538,3.0602,3.0847,3.1184,3.141,3.0879,3.0782,3.0894,3.0782,3.0588,3.0523,3.0606,3.0591,3.0597,3.0877,3.1366,3.1964,3.2428,3.3096,3.3596,3.4142,3.4627,3.4739,3.4865,3.5005,3.5013,3.5165,3.5271,3.5001,3.4945,3.5087,3.4718,3.4529,3.446,3.4505,3.4505,3.4453,3.4492,3.4577,3.4686,3.4848,3.4725,3.4766,3.5072,3.4812,3.4668,3.4818,3.5138,3.5262,3.5369,3.5389,3.5478,3.5721,3.5781,3.5944,3.6225,3.6314,3.6483,3.6497,3.649,3.623,3.567,3.5777,3.5728,3.5531,3.55,3.551,3.5634,3.5819,3.5778,3.5695,3.588,3.5942,3.6003,3.6208,3.6728,3.7041,3.7193,3.7314,3.7214,3.7123,3.7123,3.7093,3.7132,3.7283,3.7253,3.7283,3.7283,3.7404,3.7404,3.7322,3.7188,3.7171,3.7206,3.7162,3.7002,3.6831,3.6485,3.5772,3.5519,3.5787,3.6012,3.6144,3.6129,3.6114,3.6326,3.6559,3.637,3.5946,2.652,2.7382,2.8173,2.8606,2.8774,2.9283,2.9561,2.9691,2.9724,3.0018,3.0343,2.9985,2.9774,2.9789,2.9887,2.997,2.9905,3.0133,3.0372,3.0399,3.0694,3.1198,3.1728,3.2199,3.276,3.324,3.3347,3.3555,3.4041,3.4508,3.4681,3.4853,3.4853,3.4902,3.4712,3.4776,3.4503,3.4197,3.3946,3.3884,3.4016,3.4101,3.4101,3.412,3.4365,3.4629,3.4739,3.4834,3.4824,3.5026,3.4776,3.4863,3.5039,3.5326,3.5516,3.604,3.6036,3.6003,3.5937,3.5897,3.6124,3.6309,3.6422,3.6481,3.6501,3.6347,3.6029,3.5382,3.5647,3.56,3.5314,3.5314,3.5387,3.5448,3.5541,3.5541,3.5479,3.551,3.5634,3.5695,3.5819,3.6279,3.6676,3.6737,3.6767,3.6789,3.6728,3.6758,3.6698,3.6698,3.688,3.7063,3.7123,3.7154,3.7283,3.7404,3.7404,3.7262,3.7071,3.7115,3.7214,3.7144,3.7008,3.7016,3.6768,3.66,3.6511,3.6307,3.6207,3.6135,3.6034,3.6158,3.6209,3.5867,3.5553,2.5423,2.62,2.7198,2.767,2.7799,2.8213,2.8543,2.8708,2.8741,2.8954,2.9216,2.9135,2.8839,2.8675,2.8971,2.9004,2.879,2.9382,2.9622,2.9812,3.0102,3.0497,3.0978,3.1496,3.2035,3.2876,3.2403,3.2544,3.3033,3.3486,3.3817,3.4439,3.4163,3.4128,3.4227,3.4231,3.4081,3.3821,3.3459,3.3479,3.3815,3.3916,3.3931,3.4073,3.4345,3.4602,3.4636,3.4839,3.5008,3.5018,3.5012,3.5079,3.5172,3.5451,3.5602,3.5913,3.5995,3.6048,3.6034,3.6068,3.6369,3.6573,3.6634,3.6616,3.645,3.6115,3.5794,3.5461,3.5691,3.5527,3.5185,3.5282,3.5324,3.5345,3.5356,3.5387,3.5418,3.5448,3.5479,3.5541,3.5634,3.5757,3.6086,3.6116,3.6208,3.63,3.6331,3.6361,3.6392,3.6361,3.6606,3.6871,3.6941,3.7032,3.7253,3.7374,3.7374,3.7283,3.7093,3.7063,3.7214,3.7275,3.7166,3.727,3.7335,3.7106,3.6708,3.6432,3.6178,3.6167,3.6061,3.5816,3.5656,3.5358,3.5233,2.4667,2.4807,2.5512,2.604,2.635,2.7018,2.7319,2.7468,2.7981,2.8163,2.8263,2.823,2.8048,2.7866,2.7849,2.7799,2.7416,2.74,2.794,2.8212,2.8299,2.9257,2.9948,3.0547,3.0945,3.1595,3.1347,3.1418,3.17,3.1754,3.2439,3.3243,3.3191,3.3051,3.3103,3.3309,3.3497,3.3324,3.3059,3.3319,3.3803,3.4062,3.42,3.4614,3.5066,3.5397,3.5397,3.5271,3.5218,3.5218,3.5258,3.5133,3.5107,3.5452,3.5563,3.5431,3.5709,3.5743,3.5675,3.6253,3.6843,3.7011,3.6944,3.6702,3.6447,3.6756,3.6516,3.5746,3.5709,3.559,3.5335,3.5272,3.5187,3.5086,3.5108,3.5232,3.5294,3.5387,3.5418,3.5418,3.551,3.5603,3.5655,3.5747,3.5819,3.5932,3.6055,3.6086,3.6147,3.6178,3.6453,3.6667,3.6758,3.6941,3.7253,3.7283,3.7132,3.7102,3.698,3.7071,3.7275,3.7253,3.7063,3.7154,3.7123,3.7002,3.6807,3.6333,3.6016,3.6131,3.6073,3.57,3.5497,3.5321,3.519,2.4169,2.4032,2.4696,2.53,2.5792,2.5876,2.6165,2.6468,2.6584,2.6733,2.6951,2.7118,2.7051,2.6867,2.7016,2.7111,2.7149,2.7433,2.7765,2.8199,2.857,2.8934,2.947,2.9686,2.9997,3.0318,3.0159,3.0302,3.0799,3.0302,3.0586,3.126,3.1912,3.2123,3.2158,3.2123,3.2228,3.2333,3.2158,3.2263,3.2806,3.3033,3.3277,3.3921,3.399,3.4267,3.4405,3.4681,3.4784,3.4887,3.5059,3.499,3.4921,3.5264,3.5196,3.4921,3.523,3.5264,3.5333,3.5947,3.6389,3.6423,3.6389,3.6389,3.6214,3.6172,3.5797,3.5422,3.5329,3.5187,3.46,3.4653,3.4752,3.4713,3.4828,3.5015,3.517,3.5263,3.5387,3.5387,3.5418,3.5448,3.5448,3.5448,3.551,3.5572,3.5695,3.5788,3.587,3.5932,3.6147,3.6331,3.6423,3.6575,3.688,3.6859,3.6828,3.6828,3.6859,3.695,3.7032,3.6819,3.6667,3.6789,3.6785,3.6496,3.6207,3.5928,3.5754,3.5631,3.558,3.5482,3.5323,3.5255,3.5109,2.3659,2.3518,2.4065,2.471,2.5249,2.5137,2.5349,2.5712,2.5558,2.5626,2.5977,2.6264,2.6231,2.6127,2.6335,2.6476,2.6588,2.6809,2.7366,2.7608,2.7788,2.8268,2.8598,2.8851,2.8923,2.9102,2.8959,2.9066,2.9552,2.8871,2.923,2.9874,3.0302,3.0603,3.1135,3.0887,3.0852,3.1064,3.0958,3.1064,3.1683,3.2105,3.2456,3.3225,3.3573,3.3921,3.4163,3.4405,3.4474,3.4577,3.4681,3.4749,3.4784,3.4818,3.4853,3.4749,3.4784,3.4887,3.5093,3.5436,3.5899,3.605,3.6084,3.6069,3.5937,3.5742,3.5614,3.534,3.5067,3.4613,3.4191,3.4465,3.4455,3.443,3.4599,3.4766,3.4953,3.5108,3.5263,3.5356,3.5407,3.5407,3.5407,3.5397,3.5428,3.5469,3.551,3.5572,3.5572,3.5634,3.5726,3.588,3.6034,3.6178,3.6361,3.6484,3.6606,3.6597,3.6627,3.6627,3.6597,3.6413,3.6392,3.6554,3.6396,3.597,3.5689,3.5489,3.5227,3.4949,3.5027,3.5201,3.5257,3.5137,3.4875,2.3149,2.3164,2.3515,2.4013,2.465,2.4958,2.5105,2.5086,2.5018,2.5153,2.5472,2.5573,2.5603,2.561,2.5848,2.5859,2.5706,2.5667,2.6008,2.652,2.6572,2.6835,2.7337,2.7768,2.7913,2.8072,2.8072,2.8109,2.8274,2.813,2.8382,2.8599,2.8923,2.921,3.0299,3.0085,3.0121,3.0335,3.0069,3.0425,3.0958,3.1629,3.2175,3.286,3.3508,3.3875,3.4154,3.4223,3.4221,3.4112,3.4533,3.4445,3.4024,3.4715,3.4681,3.4059,3.4543,3.4784,3.4921,3.5299,3.5606,3.5967,3.6035,3.6035,3.5982,3.5903,3.582,3.5469,3.536,3.5046,3.4812,3.4568,3.4354,3.4334,3.4515,3.4716,3.4925,3.5134,3.5372,3.5476,3.5438,3.5397,3.5418,3.5418,3.5438,3.5418,3.5407,3.5387,3.5387,3.5418,3.551,3.5603,3.5757,3.587,3.6055,3.6239,3.6352,3.6373,3.6343,3.6281,3.6291,3.6208,3.6218,3.634,3.607,3.5687,3.539,3.5091,3.4893,3.4721,3.4862,3.498,3.505,3.5072,3.4856,2.3525,2.3761,2.3612,2.379,2.4204,2.4305,2.4362,2.4379,2.4374,2.4442,2.4553,2.4696,2.4776,2.4876,2.5117,2.5205,2.5157,2.5094,2.5399,2.5719,2.5654,2.6091,2.6627,2.6969,2.7078,2.7274,2.7384,2.742,2.7384,2.7456,2.7638,2.784,2.8093,2.8527,2.9066,2.9174,2.9282,2.9585,2.9585,2.9764,3.0316,3.1033,3.1812,3.2595,3.3109,3.3533,3.3955,3.399,3.381,3.356,3.3947,3.402,3.3611,3.4128,3.4024,3.3782,3.4198,3.4301,3.4543,3.4921,3.5401,3.5743,3.6001,3.5982,3.5982,3.5723,3.5644,3.5547,3.5312,3.4961,3.4714,3.4668,3.457,3.4602,3.4776,3.495,3.5164,3.5369,3.5601,3.5622,3.5596,3.559,3.5613,3.558,3.556,3.5562,3.5583,3.5449,3.5387,3.5387,3.5448,3.5448,3.5541,3.5603,3.5716,3.5901,3.5932,3.587,3.586,3.5809,3.5809,3.5932,3.6005,3.6087,3.5745,3.5413,3.5232,3.5008,3.4703,3.4593,3.4941,3.5049,3.5149,3.5135,3.5013,2.3648,2.3855,2.3596,2.3523,2.3685,2.387,2.3939,2.3836,2.3932,2.3932,2.3905,2.4141,2.428,2.4364,2.4519,2.4784,2.4876,2.4909,2.5212,2.5464,2.5542,2.5973,2.6306,2.6509,2.6874,2.6962,2.6998,2.7034,2.7071,2.7034,2.7165,2.7456,2.7746,2.8127,2.8485,2.8728,2.9054,2.9391,2.9527,2.9872,3.0304,3.0854,3.1552,3.2098,3.2498,3.2788,3.3269,3.3393,3.3251,3.3038,3.3249,3.3604,3.3421,3.3434,3.3539,3.3747,3.399,3.4163,3.4439,3.4921,3.5401,3.5709,3.5879,3.5982,3.5996,3.582,3.5723,3.5547,3.5156,3.5039,3.4961,3.4922,3.4798,3.4831,3.4877,3.5054,3.5263,3.5471,3.5601,3.5661,3.5673,3.5738,3.5796,3.577,3.574,3.5734,3.5706,3.5573,3.5469,3.5449,3.549,3.5542,3.55,3.5542,3.5552,3.551,3.551,3.5418,3.5448,3.551,3.551,3.5655,3.5717,3.5831,3.5644,3.5468,3.5219,3.4998,3.5122,3.5223,3.543,3.5443,3.5315,3.5206,3.5104,2.3495,2.3491,2.3477,2.325,2.3091,2.3643,2.37,2.3406,2.3795,2.3713,2.3372,2.3735,2.3845,2.3962,2.4199,2.4399,2.4613,2.4646,2.4974,2.5363,2.5326,2.5803,2.6188,2.6509,2.6582,2.6765,2.6838,2.6692,2.6925,2.6976,2.6998,2.7195,2.7539,2.7834,2.819,2.8648,2.909,2.9409,2.985,3.0076,3.0382,3.1007,3.1445,3.1803,3.1999,3.2246,3.2554,3.2609,3.2578,3.2756,3.3215,3.3355,3.344,3.3592,3.3712,3.3886,3.4163,3.4267,3.4474,3.499,3.5264,3.547,3.5777,3.5913,3.5996,3.5957,3.5898,3.5767,3.5566,3.5488,3.541,3.5176,3.4941,3.4922,3.4922,3.5067,3.5264,3.5428,3.556,3.5625,3.5651,3.5729,3.5819,3.5844,3.5709,3.5805,3.5781,3.5818,3.5696,3.5614,3.5656,3.5759,3.5676,3.5542,3.549,3.549,3.5387,3.5387,3.5387,3.5448,3.5418,3.55,3.5749,3.5863,3.5697,3.5542,3.55,3.5696,3.5954,3.6051,3.5999,3.5827,3.5674,3.5384,3.5278,2.3585,2.3801,2.331,2.3147,2.3249,2.3229,2.3167,2.3065,2.3167,2.2996,2.2632,2.2982,2.3142,2.3068,2.3272,2.3474,2.3651,2.3816,2.3991,2.4315,2.4738,2.5075,2.5451,2.5777,2.5924,2.6107,2.6166,2.6253,2.631,2.6557,2.7215,2.7642,2.743,2.7629,2.7977,2.8499,2.9021,2.9514,3.0033,3.0319,3.0548,3.1124,3.1428,3.1614,3.1592,3.1815,3.1866,3.1924,3.1863,3.1766,3.2293,3.2524,3.2509,3.2841,3.3121,3.3747,3.3955,3.4059,3.4405,3.4818,3.5059,3.5162,3.5436,3.5777,3.5933,3.5967,3.5967,3.5869,3.5845,3.5781,3.5723,3.5547,3.541,3.541,3.541,3.5477,3.5624,3.5658,3.5758,3.5718,3.5778,3.568,3.5817,3.5613,3.5509,3.5675,3.5856,3.5951,3.6033,3.5954,3.5945,3.6048,3.6007,3.5883,3.5728,3.5707,3.5511,3.5387,3.5387,3.5407,3.548,3.5604,3.5862,3.609,3.6255,3.6163,3.5935,3.6248,3.6687,3.6607,3.6535,3.6273,3.605,3.5761,3.5503,2.3406,2.3645,2.2825,2.2585,2.2722,2.2551,2.2448,2.2482,2.2619,2.2487,2.2285,2.2488,2.2557,2.2658,2.2824,2.2964,2.3079,2.331,2.3497,2.3749,2.4063,2.4563,2.4927,2.5226,2.5653,2.5726,2.58,2.591,2.5943,2.6138,2.6712,2.6918,2.7002,2.7287,2.7671,2.8342,2.9025,2.9561,3.0024,3.0486,3.0845,3.1199,3.1399,3.1457,3.1381,3.133,3.1344,3.1314,3.1276,3.1224,3.1822,3.2196,3.2452,3.2967,3.325,3.3814,3.3828,3.4057,3.4353,3.4549,3.4684,3.4784,3.5043,3.5299,3.5538,3.5606,3.5709,3.5724,3.5894,3.6016,3.6016,3.6016,3.5996,3.5996,3.5996,3.5996,3.5996,3.5996,3.5957,3.5937,3.5849,3.5715,3.5586,3.5395,3.5451,3.5841,3.6128,3.6307,3.6449,3.6541,3.6472,3.6515,3.64,3.6297,3.6121,3.5894,3.5697,3.5531,3.5387,3.5428,3.549,3.58,3.6141,3.6596,3.7094,3.6917,3.6729,3.7046,3.7366,3.7255,3.7123,3.6966,3.6647,3.6204,3.5951,2.2996,2.3167,2.222,2.1863,2.1807,2.1829,2.1829,2.1794,2.207,2.2164,2.2078,2.2128,2.2223,2.2323,2.2436,2.2625,2.2788,2.2986,2.3185,2.3401,2.3942,2.4351,2.4572,2.5139,2.5102,2.5469,2.5593,2.5437,2.5745,2.5968,2.6024,2.5892,2.6279,2.6692,2.7156,2.8095,2.8732,2.9131,2.9885,3.0569,3.1076,3.1325,3.1363,3.1297,3.1118,3.0943,3.0893,3.0986,3.1125,3.1423,3.1702,3.2181,3.2936,3.3317,3.3571,3.3857,3.389,3.4136,3.4342,3.4541,3.4442,3.4561,3.4718,3.4897,3.5126,3.5303,3.5401,3.5606,3.5762,3.5913,3.5947,3.6001,3.6035,3.6035,3.6035,3.6035,3.6035,3.6035,3.6016,3.5923,3.5781,3.5614,3.5164,3.4975,3.4915,3.5626,3.6084,3.6296,3.6769,3.691,3.6944,3.6864,3.6887,3.6722,3.6338,3.6111,3.5924,3.5738,3.5593,3.5583,3.5747,3.6087,3.6428,3.6814,3.7217,3.7641,3.7728,3.7744,3.7764,3.7989,3.7845,3.7684,3.7296,3.6749,3.6223,2.2345,2.2173,2.1897,2.1794,2.1794,2.1794,2.1587,2.1346,2.1415,2.1452,2.1445,2.146,2.1604,2.1833,2.1895,2.2116,2.2448,2.2732,2.2942,2.3129,2.3562,2.3785,2.3748,2.4105,2.4253,2.4327,2.4539,2.4938,2.5454,2.5699,2.5986,2.6416,2.6453,2.6453,2.6782,2.776,2.8268,2.8647,2.9537,3.0299,3.0778,3.1155,3.13,3.1147,3.093,3.0787,3.0676,3.0516,3.0928,3.1346,3.1509,3.2163,3.3181,3.3065,3.348,3.4019,3.4001,3.4231,3.4528,3.4605,3.4506,3.4541,3.4666,3.4657,3.4778,3.4916,3.5165,3.5425,3.5664,3.5889,3.6025,3.606,3.6113,3.6113,3.6094,3.6094,3.6094,3.6055,3.6055,3.5898,3.5723,3.5357,3.4914,3.4674,3.4609,3.4884,3.5356,3.5838,3.6703,3.7103,3.718,3.7167,3.731,3.7156,3.6763,3.6494,3.6349,3.6214,3.6058,3.6035,3.604,3.6149,3.6338,3.6826,3.7233,3.7467,3.758,3.7709,3.7806,3.8175,3.8376,3.81,3.7703,3.7192,3.6572,2.1829,2.1807,2.1587,2.1462,2.1311,2.1323,2.1081,2.0804,2.0908,2.0792,2.062,2.0938,2.1288,2.1486,2.1631,2.1776,2.2188,2.2471,2.257,2.2744,2.2968,2.3154,2.3228,2.3315,2.3587,2.3735,2.397,2.4457,2.5141,2.5398,2.5684,2.6075,2.6067,2.6315,2.6637,2.7269,2.7884,2.8225,2.9127,2.9858,3.0392,3.0747,3.1178,3.1049,3.1083,3.0871,3.0696,3.059,3.0927,3.1568,3.1986,3.2342,3.304,3.3206,3.3554,3.3957,3.4161,3.4325,3.47,3.4781,3.4593,3.4721,3.4813,3.4856,3.4892,3.513,3.5498,3.5832,3.6425,3.6688,3.6703,3.6758,3.6758,3.6758,3.6719,3.668,3.6523,3.6387,3.623,3.5942,3.5685,3.5307,3.4873,3.4527,3.4492,3.4536,3.4959,3.541,3.6301,3.6944,3.7123,3.7352,3.7456,3.7496,3.7198,3.6991,3.6846,3.669,3.649,3.6325,3.6209,3.6127,3.6246,3.6563,3.6764,3.6837,3.699,3.7245,3.7729,3.8154,3.8366,3.8456,3.8007,3.7484,3.7044,2.138,2.1587,2.1289,2.0977,2.07,2.0665,2.0457,2.0214,2.0422,2.0214,1.9854,2.0544,2.1078,2.1414,2.1667,2.1848,2.2018,2.2298,2.2321,2.2408,2.2669,2.2781,2.2918,2.3129,2.3317,2.3592,2.3879,2.4165,2.4605,2.4927,2.5173,2.5197,2.5558,2.6014,2.6478,2.7258,2.8019,2.8144,2.8773,2.9571,2.9989,3.0314,3.0879,3.1187,3.1363,3.122,3.1052,3.0994,3.1183,3.1706,3.2408,3.2729,3.3,3.3292,3.3693,3.4029,3.413,3.4408,3.4756,3.4794,3.4792,3.4882,3.4992,3.51,3.5172,3.5497,3.5909,3.6283,3.6907,3.7125,3.716,3.716,3.716,3.7211,3.7172,3.7168,3.6934,3.6738,3.6504,3.6162,3.584,3.5465,3.5022,3.4642,3.4417,3.4478,3.4685,3.5211,3.5694,3.6141,3.649,3.6963,3.7356,3.7377,3.7443,3.7351,3.7165,3.7023,3.6799,3.6574,3.6327,3.6043,3.5944,3.607,3.6243,3.6176,3.6422,3.6742,3.731,3.7872,3.7876,3.7832,3.771,3.7336,3.737,2.1081,2.0908,2.0839,2.0735,2.0631,2.0353,2.0191,2.0075,1.9854,1.9715,1.9702,1.9932,2.0424,2.1005,2.1313,2.1553,2.1917,2.2099,2.2247,2.2383,2.2345,2.2358,2.2568,2.289,2.315,2.3516,2.3871,2.4163,2.4403,2.4748,2.498,2.5031,2.5388,2.5711,2.5891,2.6749,2.7551,2.783,2.8424,2.9212,2.9756,3.0159,3.0717,3.101,3.1225,3.1309,3.13,3.1284,3.1552,3.1961,3.2454,3.2818,3.3119,3.3344,3.3716,3.4027,3.4132,3.425,3.4495,3.4648,3.4722,3.483,3.503,3.5431,3.565,3.6127,3.64,3.6509,3.6939,3.6967,3.6997,3.6997,3.7032,3.7174,3.719,3.7257,3.7191,3.7098,3.7,3.6743,3.6491,3.6024,3.5425,3.4941,3.4376,3.4304,3.4004,3.4488,3.4878,3.5349,3.5929,3.6463,3.7071,3.7393,3.7505,3.7493,3.7377,3.7242,3.6986,3.6602,3.6183,3.5797,3.5711,3.5547,3.5396,3.5304,3.5666,3.6181,3.6631,3.7053,3.7047,3.7035,3.709,3.7207,3.7241]},{"header":{"parameterUnit":"m.s-1","parameterCategory":1,"la1":31.0,"la2":29.5877,"lo1":-88.7671,"lo2":-86.6584,"dy":0.0162,"dx":0.0185,"nx":115,"ny":88,"refTime":"2023-04-22T00:00:00:Z","depth":0,"parameterNumber":3,"parameterNumberName":"V-component_of_WINDS"},"data":[0.0,0.0,0.0,0.0,0.0,0.0,0.0,0.0,0.0,0.0,0.0,0.0,0.0,0.0,0.0,0.0,0.0,0.0,0.0,0.0,0.0,0.0,0.0,0.0,0.0,0.0,0.0,0.0,0.0,0.0,0.0,0.0,0.0,0.0,0.0,0.0,0.0,0.0,0.0,0.0,0.0,0.0,0.0,0.0,0.0,0.0,0.0,0.0,0.0,0.0,0.0,0.0,0.0,0.0,0.0,0.0,0.0,0.0,0.0,0.0,0.0,0.0,0.0,0.0,0.0,0.0,0.0,0.0,0.0,0.0,0.0,0.0,0.0,0.0,0.0,0.0,0.0,0.0,0.0,0.0,0.0,0.0,0.0,0.0,0.0,0.0,0.0,0.0,0.0,0.0,0.0,0.0,0.0,0.0,0.0,0.0,0.0,0.0,0.0,0.0,0.0,0.0,0.0,0.0,0.0,0.0,0.0,0.0,0.0,0.0,0.0,0.0,0.0,0.0,0.0,0.0,0.0,0.0,0.0,0.0,0.0,0.0,0.0,0.0,0.0,0.0,0.0,0.0,0.0,0.0,0.0,0.0,0.0,0.0,0.0,0.0,0.0,0.0,0.0,0.0,0.0,0.0,0.0,0.0,0.0,0.0,0.0,0.0,0.0,0.0,0.0,0.0,0.0,0.0,0.0,0.0,0.0,0.0,0.0,0.0,0.0,0.0,0.0,0.0,0.0,0.0,0.0,0.0,0.0,0.0,0.0,0.0,0.0,0.0,0.0,0.0,0.0,0.0,0.0,0.0,0.0,0.0,0.0,0.0,0.0,0.0,0.0,0.0,0.0,0.0,0.0,0.0,0.0,0.0,0.0,0.0,0.0,0.0,0.0,0.0,0.0,0.0,0.0,0.0,0.0,0.0,0.0,0.0,0.0,0.0,0.0,0.0,0.0,0.0,0.0,0.0,0.0,0.0,0.0,0.0,0.0,0.0,0.0,0.0,0.0,0.0,0.0,0.0,0.0,0.0,0.0,0.0,0.0,0.0,0.0,0.0,0.0,0.0,0.0,0.0,0.0,0.0,0.0,0.0,0.0,0.0,0.0,0.0,0.0,0.0,0.0,0.0,0.0,0.0,0.0,0.0,0.0,0.0,0.0,0.0,0.0,0.0,0.0,0.0,0.0,0.0,0.0,0.0,0.0,0.0,0.0,0.0,0.0,0.0,0.0,0.0,0.0,0.0,0.0,0.0,0.0,0.0,0.0,0.0,0.0,0.0,0.0,0.0,0.0,0.0,0.0,0.0,0.0,0.0,0.0,0.0,0.0,0.0,0.0,0.0,0.0,0.0,0.0,0.0,0.0,0.0,0.0,0.0,0.0,0.0,0.0,0.0,0.0,0.0,0.0,0.0,0.0,0.0,0.0,0.0,0.0,0.0,0.0,0.0,0.0,0.0,0.0,0.0,0.0,0.0,0.0,0.0,0.0,0.0,0.0,0.0,0.0,0.0,0.0,0.0,0.0,0.0,0.0,0.0,0.0,0.0,0.0,0.0,0.0,0.0,0.0,0.0,0.0,0.0,0.0,0.0,0.0,0.0,0.0,0.0,0.0,0.0,0.0,0.0,0.0,0.0,0.0,0.0,0.0,0.0,0.0,0.0,0.0,0.0,0.0,0.0,0.0,0.0,0.0,0.0,0.0,0.0,0.0,0.0,0.0,0.0,0.0,0.0,0.0,0.0,0.0,0.0,0.0,0.0,0.0,0.0,0.0,0.0,0.0,0.0,0.0,0.0,0.0,0.0,0.0,0.0,0.0,0.0,0.0,0.0,0.0,0.0,0.0,0.0,0.0,0.0,0.0,0.0,0.0,0.0,0.0,0.0,0.0,0.0,0.0,0.0,0.0,0.0,0.0,0.0,0.0,0.0,0.0,0.0,0.0,0.0,0.0,0.0,0.0,0.0,0.0,0.0,0.0,0.0,0.0,0.0,0.0,0.0,0.0,0.0,0.0,0.0,0.0,0.0,0.0,0.0,0.0,0.0,0.0,0.0,0.0,0.0,0.0,0.0,0.0,0.0,0.0,0.0,0.0,0.0,0.0,0.0,0.0,0.0,0.0,0.0,0.0,0.0,0.0,0.0,0.0,0.0,0.0,0.0,0.0,0.0,0.0,0.0,0.0,0.0,0.0,0.0,0.0,0.0,0.0,0.0,0.0,0.0,0.0,0.0,0.0,0.0,0.0,0.0,0.0,0.0,0.0,0.0,0.0,0.0,0.0,0.0,0.0,0.0,0.0,0.0,0.0,0.0,0.0,0.0,0.0,0.0,0.0,0.0,0.0,0.0,0.0,0.0,0.0,0.0,0.0,0.0,0.0,0.0,0.0,0.0,0.0,0.0,0.0,0.0,0.0,0.0,0.0,0.0,0.0,0.0,0.0,0.0,0.0,0.0,0.0,0.0,0.0,0.0,0.0,0.0,0.0,0.0,0.0,0.0,0.0,0.0,0.0,0.0,0.0,0.0,0.0,0.0,0.0,0.0,0.0,0.0,0.0,0.0,0.0,0.0,0.0,0.0,0.0,0.0,0.0,0.0,0.0,0.0,0.0,0.0,0.0,0.0,0.0,0.0,0.0,0.0,0.0,0.0,0.0,0.0,0.0,0.0,0.0,0.0,0.0,0.0,0.0,0.0,0.0,0.0,0.0,0.0,0.0,0.0,0.0,0.0,0.0,0.0,0.0,0.0,0.0,0.0,0.0,0.0,0.0,0.0,0.0,0.0,0.0,0.0,0.0,0.0,0.0,0.0,0.0,0.0,0.0,0.0,0.0,0.0,0.0,0.0,0.0,0.0,0.0,0.0,0.0,0.0,0.0,0.0,0.0,0.0,0.0,0.0,0.0,0.0,0.0,0.0,0.0,0.0,0.0,0.0,0.0,0.0,0.0,0.0,0.0,0.0,0.0,0.0,0.0,0.0,0.0,0.0,0.0,0.0,0.0,0.0,0.0,0.0,0.0,0.0,0.0,0.0,0.0,0.0,0.0,0.0,0.0,0.0,0.0,0.0,0.0,0.0,0.0,0.0,0.0,0.0,0.0,0.0,0.0,0.0,0.0,0.0,0.0,0.0,0.0,0.0,0.0,0.0,0.0,0.0,0.0,0.0,0.0,0.0,0.0,0.0,0.0,0.0,0.0,0.0,0.0,0.0,0.0,0.0,0.0,0.0,0.0,0.0,0.0,0.0,0.0,0.0,0.0,0.0,0.0,0.0,0.0,0.0,0.0,0.0,0.0,0.0,0.0,0.0,0.0,0.0,0.0,0.0,0.0,0.0,0.0,0.0,0.0,0.0,0.0,0.0,0.0,0.0,0.0,0.0,0.0,0.0,0.0,0.0,0.0,0.0,0.0,0.0,0.0,0.0,0.0,0.0,0.0,0.0,0.0,0.0,0.0,0.0,0.0,0.0,0.0,0.0,0.0,0.0,0.0,0.0,0.0,0.0,0.0,0.0,0.0,0.0,0.0,0.0,0.0,0.0,0.0,0.0,0.0,0.0,0.0,0.0,0.0,0.0,0.0,0.0,0.0,0.0,0.0,0.0,0.0,0.0,0.0,0.0,0.0,0.0,0.0,0.0,0.0,0.0,0.0,0.0,0.0,0.0,0.0,0.0,0.0,0.0,0.0,0.0,0.0,0.0,0.0,0.0,0.0,0.0,0.0,0.0,0.0,0.0,0.0,0.0,0.0,0.0,0.0,0.0,0.0,0.0,0.0,0.0,0.0,0.0,0.0,0.0,0.0,0.0,0.0,0.0,0.0,0.0,0.0,0.0,0.0,0.0,0.0,0.0,0.0,0.0,0.0,0.0,0.0,0.0,0.0,0.0,0.0,0.0,0.0,0.0,0.0,0.0,0.0,0.0,0.0,0.0,0.0,0.0,0.0,0.0,0.0,0.0,0.0,0.0,0.0,0.0,0.0,0.0,0.0,0.0,0.0,0.0,0.0,0.0,0.0,0.0,0.0,0.0,0.0,0.0,0.0,0.0,0.0,0.0,0.0,0.0,0.0,0.0,0.0,0.0,0.0,0.0,0.0,0.0,0.0,0.0,0.0,0.0,0.0,0.0,0.0,0.0,0.0,0.0,0.0,0.0,0.0,0.0,0.0,0.0,0.0,0.0,0.0,0.0,0.0,0.0,0.0,0.0,0.0,0.0,0.0,0.0,0.0,0.0,0.0,0.0,0.0,0.0,0.0,0.0,0.0,0.0,0.0,0.0,0.0,0.0,0.0,0.0,0.0,0.0,0.473,0.0,0.0,0.0,0.0,0.0,0.0,0.0,0.0,0.0,0.0,0.0,0.0,0.0,0.0,0.0,0.0,0.0,0.0,0.0,0.0,0.0,0.0,0.0,0.0,0.0,0.0,0.0,0.0,0.0,0.0,0.0,0.0,0.0,0.0,0.0,0.0,0.0,0.0,0.0,0.0,0.0,0.0,0.0,0.0,0.0,0.0,0.0,0.0,0.0,0.0,0.0,0.0,0.0,0.0,0.0,0.0,0.0,0.0,0.0,0.0,0.0,0.0,0.0,0.0,0.0,0.0,0.0,0.0,0.0,0.0,0.0,0.0,0.0,0.0,0.0,0.0,0.0,0.0,0.0,0.0,0.0,0.0,0.0,0.0,0.0,0.0,0.0,0.0,0.0,0.0,0.0,0.0,0.0,0.0,0.0,0.0,0.0,0.0,0.0,0.0,0.0,0.0,0.0,0.0,0.0,0.0,0.0,0.0,0.0,0.0,0.4271,0.4577,0.4575,0.4754,0.5166,0.0,0.0,0.0,0.0,0.0,0.0,0.0,0.0,0.0,0.0,0.0,0.0,0.0,0.0,0.0,0.0,0.0,0.0,0.0,0.0,0.0,0.0,0.0,0.0,0.0,0.0,0.0,0.0,0.0,0.0,0.0,0.0,0.0,0.0,0.0,0.0,0.0,0.0,0.0,0.0,0.0,0.0,0.0,0.0,0.0,0.0,0.0,0.0,0.0,0.0,0.0,0.0,0.0,0.0,0.0,0.0,0.0,0.0,0.0,0.0,0.0,0.0,0.0,0.0,0.0,0.0,0.0,0.0,0.0,0.0,0.0,0.0,0.0,0.0,0.0,0.0,0.0,0.0,0.0,0.0,0.0,0.0,0.0,0.0,0.0,0.0,0.0,0.0,0.0,0.0,0.0,0.0,0.0,0.0,0.0,0.0,0.0,0.0,0.0,0.0,0.0,0.0,0.0,0.0,0.0,0.0,0.0,0.0,0.0,0.0,0.0,0.0,0.5034,0.5335,0.5984,0.0,0.0,0.0,0.0,0.0,0.0,0.0,0.0,0.0,0.0,0.0,0.0,0.0,0.0,0.0,0.0,0.0,0.0,0.0,0.0,0.0,0.0,0.0,0.0,0.0,0.0,0.0,0.0,0.0,0.0,0.0,0.0,0.0,0.0,0.0,0.0,0.0,0.0,0.0,0.0,0.0,0.0,0.0,0.0,0.0,0.0,0.0,0.0,0.0,0.0,0.0,0.0,0.0,0.0,0.0,0.0,0.0,0.0,0.0,0.0,0.0,0.0,0.0,0.0,0.0,0.0,0.0,0.0,0.0,0.0,0.0,0.0,0.0,0.0,0.0,0.0,0.0,0.0,0.0,0.0,0.0,0.0,0.0,0.0,0.0,0.0,0.0,0.0,0.0,0.0,0.0,0.0,0.0,0.0,0.0,0.0,0.0,0.0,0.0,0.0,0.0,0.0,0.0,0.0,0.0,0.0,0.0,0.0,0.0,0.0,0.5314,0.5538,0.5825,0.0,0.7672,0.0,0.0,0.0,0.0,0.0,0.0,0.0,0.0,0.0,0.0,0.0,0.0,0.0,0.0,0.0,0.0,0.0,0.0,0.0,0.0,0.0,0.0,0.0,0.0,0.0,0.0,0.0,0.0,0.0,0.0,0.0,0.0,0.0,0.0,0.0,0.0,0.0,0.0,0.0,0.0,0.0,0.0,0.0,0.0,0.0,0.0,0.0,0.0,0.0,0.0,0.0,0.0,0.0,0.0,0.0,0.0,0.0,0.0,0.0,0.0,0.0,0.0,0.0,0.0,0.0,0.0,0.0,0.0,0.0,0.0,0.0,0.0,0.0,0.0,0.0,0.0,0.0,0.0,0.0,0.0,0.0,0.0,0.0,0.0,0.0,0.0,0.0,0.0,0.0,0.0,0.0,0.0,0.0,0.0,0.0,0.0,0.0,0.0,0.0,0.0,0.0,0.0,0.0,0.0,0.0,0.0,0.0,0.0,0.0,0.0,0.5462,0.5823,0.6388,0.7121,0.0,0.0,0.0,0.0,0.0,0.0,0.0,0.0,0.0,0.0,0.0,0.0,0.0,0.0,0.0,0.0,0.0,0.0,0.0,0.0,0.0,0.0,0.0,0.0,0.0,0.0,0.0,0.0,0.0,0.0,0.0,0.0,0.0,0.0,0.0,0.0,0.0,0.0,0.0,0.0,0.0,0.0,0.0,0.0,0.0,0.0,0.0,0.0,0.0,0.0,0.0,0.0,0.0,0.0,0.0,0.0,0.0,0.0,0.0,0.0,0.0,0.0,0.0,0.0,0.0,0.0,0.0,0.0,0.0,0.0,0.0,0.0,0.0,0.0,0.0,0.0,0.0,0.0,0.0,0.0,0.0,0.0,0.0,0.0,0.0,0.0,0.0,0.0,0.0,0.0,0.0,0.0,0.0,0.0,0.0,0.0,0.0,0.0,0.0,0.0,0.0,0.0,0.0,0.0,0.0,0.0,0.0,0.0,0.0,0.0,0.5698,0.5978,0.6464,0.7018,0.7626,0.8263,0.0,0.0,0.0,0.0,0.0,0.0,0.0,0.0,0.0,0.0,0.0,0.0,0.0,0.0,0.0,0.0,0.0,0.0,0.0,0.0,0.0,0.0,0.0,0.0,0.0,0.0,0.0,0.0,0.0,0.0,0.0,0.0,0.0,0.0,0.0,0.0,0.0,0.0,0.0,0.0,0.0,0.0,0.0,0.0,0.0,0.0,0.0,0.0,0.0,0.0,0.0,0.0,0.0,0.0,0.0,0.0,0.0,0.0,0.0,0.0,0.0,0.0,0.0,0.0,0.0,0.0,0.0,0.0,0.0,0.0,0.0,0.0,0.0,0.0,0.0,0.0,0.0,0.0,0.0,0.0,0.0,0.0,0.0,0.0,0.0,0.0,0.0,0.0,0.0,0.0,0.0,0.0,0.0,0.0,0.0,0.0,0.0,0.0,0.0,0.0,0.0,0.0,0.0,0.0,0.0,0.0,0.0,0.0,0.6335,0.6656,0.7086,0.7581,0.7782,0.8167,0.0,0.0,0.0,0.0,0.0,0.0,0.0,0.0,0.0,0.0,0.0,0.0,0.0,0.0,0.0,0.0,0.0,0.0,0.0,0.0,0.0,0.0,0.0,0.0,0.0,0.0,0.0,0.0,0.0,0.0,0.0,0.0,0.0,0.0,0.0,0.0,0.0,0.0,0.0,0.0,0.0,0.0,0.0,0.0,0.0,0.0,0.0,0.0,0.0,0.0,0.0,0.0,0.0,0.0,0.0,0.0,0.0,0.0,0.0,0.0,0.0,0.0,0.0,0.0,0.0,0.0,0.0,0.0,0.0,0.0,0.0,0.0,0.0,0.0,0.0,0.0,0.0,0.0,0.0,0.0,0.0,0.0,0.0,0.0,0.0,0.0,0.0,0.0,0.0,0.0,0.0,0.0,0.0,0.0,0.0,0.0,0.0,0.0,0.0,0.0,0.0,0.0,0.0,0.0,0.0,0.0,0.0,0.0,0.0,0.6537,0.6943,0.7353,0.7764,0.8088,0.8488,0.0,0.0,0.0,0.0,0.0,0.0,0.0,0.0,0.0,0.0,0.0,0.0,0.0,0.0,0.0,0.0,0.0,0.0,0.0,0.0,0.0,0.0,0.0,0.0,0.0,0.0,0.0,0.0,0.0,0.0,0.0,0.0,0.0,0.0,0.0,0.0,0.0,0.0,0.0,0.0,0.0,0.0,0.0,0.0,0.0,0.0,0.0,0.0,0.0,0.0,0.0,0.0,0.0,0.0,0.0,0.0,0.0,0.0,0.0,0.0,0.0,0.0,0.0,0.0,0.0,0.0,0.0,0.0,0.0,0.0,0.0,0.0,0.0,0.0,0.0,0.0,0.0,0.0,0.0,0.0,0.0,0.0,0.0,0.0,0.0,0.0,0.0,0.0,0.0,0.0,0.0,0.0,0.0,0.0,0.0,0.0,0.0,0.0,0.0,0.0,0.0,0.0,0.0,0.0,0.0,0.0,0.0,0.0,0.0,0.6948,0.0,0.7791,0.8049,0.8574,0.8971,0.0,0.0,0.0,0.0,0.0,0.0,0.0,0.0,0.0,0.0,0.0,0.0,0.0,0.0,0.0,0.0,0.0,0.0,0.0,0.0,0.0,0.0,0.0,0.0,0.0,0.0,0.0,0.0,0.0,0.0,0.0,0.0,0.0,0.0,0.0,0.0,0.0,0.0,0.0,0.0,0.0,0.0,0.0,0.0,0.0,0.0,0.0,0.0,0.0,0.0,0.0,0.0,0.0,0.0,0.0,0.0,0.0,0.0,0.0,0.0,0.0,0.0,0.0,0.0,0.0,0.0,0.0,0.0,0.0,0.0,0.0,0.0,0.0,0.0,0.0,0.0,0.0,0.0,0.0,0.0,0.0,0.0,0.0,0.0,0.0,0.0,0.0,0.0,0.0,0.0,0.0,0.0,0.0,0.0,0.0,0.0,0.0,0.0,0.0,0.0,0.0,0.0,0.0,0.0,0.0,0.0,0.0,0.0,0.706,0.7684,0.8241,0.8569,0.8622,0.9269,0.9661,0.0,0.0,0.0,0.0,0.0,0.0,0.0,0.0,0.0,0.0,0.0,0.0,0.0,0.0,0.0,0.0,0.0,0.0,0.0,0.0,0.0,0.0,0.0,0.0,0.0,0.0,0.0,0.0,0.0,0.0,0.0,0.0,0.0,0.0,0.0,0.0,0.0,0.0,0.0,0.0,0.0,0.0,0.0,0.0,0.0,0.0,0.0,0.0,0.0,0.0,0.0,0.0,0.0,0.0,0.0,0.0,0.0,0.0,0.0,0.0,0.0,0.0,0.0,0.0,0.0,0.0,0.0,0.0,0.0,0.0,0.0,0.0,0.0,0.0,0.0,0.0,0.0,0.0,0.0,0.0,0.0,0.0,0.0,0.0,0.0,0.0,0.0,0.0,0.0,0.0,0.0,0.0,0.0,0.0,0.0,0.0,0.0,0.0,0.0,0.0,0.0,0.0,0.0,0.0,0.0,0.0,0.0,0.0,0.0,0.8343,0.9074,0.9655,1.0025,1.0248,1.0613,0.0,0.0,0.0,0.0,0.0,0.0,0.0,0.0,0.0,0.0,0.0,0.0,0.0,0.0,0.0,0.0,0.0,0.0,0.0,0.0,0.0,0.0,0.0,0.0,0.0,0.0,0.0,0.0,0.0,0.0,0.0,0.0,0.0,0.0,0.0,0.0,0.0,0.0,0.0,0.0,0.0,0.0,0.0,0.0,0.0,0.0,0.0,0.0,0.0,0.0,0.0,0.0,0.0,0.0,0.0,0.0,0.0,0.0,0.0,0.0,0.0,0.0,0.0,0.0,0.0,0.0,0.0,0.0,0.0,0.0,0.0,0.0,0.0,0.0,0.0,0.0,0.0,0.0,0.0,0.0,0.0,0.0,0.0,0.0,0.0,0.0,0.0,0.0,0.0,0.0,0.0,0.0,0.0,0.0,0.0,0.0,0.0,0.0,0.0,0.0,0.0,0.0,0.0,0.0,0.0,0.0,0.0,0.0,0.0,1.0001,1.0319,1.0711,1.1179,1.1461,1.1746,1.2098,0.0,0.0,0.0,0.0,0.0,0.0,0.0,0.0,0.0,0.0,0.0,0.0,0.0,0.0,0.0,0.0,0.0,0.0,0.0,0.0,0.0,0.0,0.0,0.0,0.0,0.0,0.0,0.0,0.0,0.0,0.0,0.0,0.0,0.0,0.0,0.0,0.0,0.0,0.0,0.0,0.0,0.0,0.0,0.0,0.0,0.0,0.0,0.0,0.0,0.0,0.0,0.0,0.0,0.0,0.0,0.0,0.0,0.0,0.0,0.0,0.0,0.0,0.0,0.0,0.0,0.0,0.0,0.0,0.0,0.0,0.0,0.0,0.0,0.0,0.0,0.0,0.0,0.0,0.0,0.0,0.0,0.0,0.0,0.0,0.0,0.0,0.0,0.0,0.0,0.0,0.0,0.0,0.0,0.0,0.0,0.0,0.0,0.0,0.0,0.0,0.0,0.0,0.0,0.0,0.0,0.0,0.0,0.0,1.2479,1.2052,1.1912,1.2145,1.283,1.3076,0.0,0.0,0.0,0.0,0.0,0.0,0.0,0.0,0.0,0.0,0.0,0.0,0.0,0.0,0.0,0.0,0.0,0.0,0.0,0.0,0.0,0.0,0.0,0.0,0.0,0.0,0.0,0.0,0.0,0.0,0.0,0.0,0.0,0.0,0.0,0.0,0.0,0.0,0.0,0.0,0.0,0.0,0.0,0.0,0.0,0.0,0.0,0.0,0.0,0.0,0.0,0.0,0.0,0.0,0.0,0.0,0.0,0.0,0.0,0.0,0.0,0.0,0.0,0.0,0.0,0.0,0.0,0.0,0.0,0.0,0.0,0.0,0.0,0.0,0.0,0.0,0.0,0.0,0.0,0.0,0.0,0.0,0.0,0.0,0.0,0.0,0.0,0.0,0.0,0.0,0.0,0.0,0.0,0.0,0.0,0.0,0.0,0.0,0.0,0.0,0.0,0.0,0.0,0.0,0.0,0.0,0.0,0.0,0.0,1.466,1.5127,1.4879,1.3906,1.4379,1.4815,0.0,0.0,0.0,0.0,0.0,0.0,0.0,0.0,0.0,0.0,0.0,0.0,0.0,0.0,0.0,0.0,0.0,0.0,0.0,0.0,0.0,0.0,0.0,0.0,0.0,0.0,0.0,0.0,0.0,0.0,0.0,0.0,0.0,0.0,0.0,0.0,0.0,0.0,0.0,0.0,0.0,0.0,0.0,0.0,0.0,0.0,0.0,0.0,0.0,0.0,0.0,0.0,0.0,0.0,0.0,0.0,0.0,0.0,0.0,0.0,0.0,0.0,0.0,0.0,0.0,0.0,0.0,0.0,0.0,0.0,0.0,0.0,0.0,0.0,0.0,0.0,0.0,0.0,0.0,0.0,0.0,0.0,0.0,0.0,0.0,0.0,0.0,0.0,0.0,0.0,0.0,0.0,0.0,0.0,0.0,0.0,0.0,0.0,0.0,0.0,0.0,0.0,0.0,0.0,0.0,0.0,0.0,0.0,1.4715,1.6369,1.7217,1.7322,1.6677,1.6665,1.6606,0.0,0.0,0.0,0.0,0.0,0.0,0.0,0.0,0.0,0.0,0.0,0.0,0.0,0.0,0.0,0.0,0.0,0.0,0.0,0.0,0.0,0.0,0.0,0.0,0.0,0.0,0.0,0.0,0.0,0.0,0.0,0.0,0.0,0.0,0.0,0.0,0.0,0.0,0.0,0.0,0.0,0.0,0.0,0.0,0.0,0.0,0.0,0.0,0.0,0.0,0.0,0.0,0.0,0.0,0.0,0.0,0.0,0.0,0.0,0.0,0.0,0.0,0.0,0.0,0.0,0.0,0.0,0.0,0.0,0.0,0.0,0.0,0.0,0.0,0.0,0.0,0.0,0.0,0.0,0.0,0.0,0.0,0.0,0.0,0.0,0.0,0.0,0.0,0.0,0.0,0.0,0.0,0.0,0.0,0.0,0.0,0.0,0.0,0.0,0.0,0.0,0.0,0.0,0.0,0.0,0.0,0.0,0.0,1.6399,1.7749,1.8649,1.9385,1.9851,1.9199,1.8385,0.0,0.0,0.0,0.0,0.0,0.0,0.0,0.0,0.0,0.0,0.0,0.0,0.0,0.0,0.0,0.0,0.0,0.0,0.0,0.0,0.0,0.0,0.0,0.0,0.0,0.0,0.0,0.0,0.0,0.0,0.0,0.0,0.0,0.0,0.0,0.0,0.0,0.0,0.0,0.0,0.0,0.0,0.0,0.0,0.0,0.0,0.0,0.0,0.0,0.0,0.0,0.0,0.0,0.0,0.0,0.0,0.0,0.0,0.0,0.0,0.0,0.0,0.0,0.0,0.0,0.0,0.0,0.0,0.0,0.0,0.0,0.0,0.0,0.0,0.0,0.0,0.0,0.0,0.0,0.0,0.0,0.0,0.0,0.0,0.0,0.0,0.0,0.0,0.0,0.0,0.0,0.0,0.0,0.0,0.0,0.0,0.0,0.0,0.0,0.0,0.0,0.0,0.0,0.0,0.0,0.0,0.0,0.0,1.7589,1.9411,2.0263,2.105,2.1764,2.0391,1.9504,0.0,0.0,0.0,0.0,0.0,0.0,0.0,0.0,0.0,0.0,0.0,0.0,0.0,0.0,0.0,0.0,0.0,0.0,0.0,0.0,0.0,0.0,0.0,0.0,0.0,0.0,0.0,0.0,0.0,0.0,0.0,0.0,0.0,0.0,0.0,0.0,0.0,0.0,0.0,0.0,0.0,0.0,0.0,0.0,0.0,0.0,0.0,0.0,1.2209,0.0,0.0,0.0,0.0,0.0,0.0,0.0,0.0,0.0,0.0,0.0,0.0,0.0,0.0,0.0,0.0,0.0,0.0,0.0,0.0,0.0,0.0,0.0,0.0,0.0,0.0,0.0,0.0,0.0,0.0,0.0,0.0,0.0,0.0,0.0,0.0,0.0,0.0,0.0,0.0,0.0,0.0,0.0,0.0,0.0,0.0,0.0,0.0,0.0,0.0,0.0,0.0,0.0,0.0,0.0,0.0,0.0,0.0,0.0,1.9127,2.1327,2.1749,2.2322,2.3152,2.2084,2.1174,0.0,0.0,0.0,0.0,0.0,0.0,0.0,0.0,0.0,0.0,0.0,0.0,0.0,0.0,0.0,0.0,0.0,0.0,0.0,0.0,0.0,0.0,0.0,0.0,0.0,0.0,0.0,0.0,0.0,0.0,0.0,0.0,0.0,0.0,0.0,0.0,0.0,0.0,0.0,0.0,0.0,0.0,0.0,0.0,0.0,0.0,0.0,0.0,0.0,0.0,0.0,0.0,0.0,0.0,0.0,0.0,0.0,0.0,0.0,0.0,0.0,0.0,0.0,0.0,0.0,0.0,0.0,0.0,0.0,0.0,0.0,0.0,0.0,0.0,0.0,0.0,0.0,0.0,0.0,0.0,0.0,0.0,0.0,0.0,0.0,0.0,0.0,0.0,0.0,0.0,0.0,0.0,0.0,0.0,0.0,0.0,0.0,0.0,0.0,0.0,0.0,0.0,0.0,0.0,0.0,0.0,0.0,1.8985,2.0699,2.294,2.3008,2.3406,2.4304,2.3702,2.29,2.1931,0.0,0.0,0.0,0.0,0.0,0.0,0.0,0.0,0.0,0.0,0.0,0.0,0.0,0.0,0.0,0.0,0.0,0.0,0.0,0.0,0.0,0.0,0.0,0.0,0.0,0.0,0.0,0.0,0.0,0.0,0.0,0.0,0.0,0.0,0.0,0.0,0.0,0.0,1.055,1.2103,0.0,0.0,0.0,0.0,0.0,0.0,0.0,0.0,1.4197,0.0,0.0,0.0,0.0,0.0,0.0,0.0,0.0,0.0,0.0,0.0,0.0,0.0,0.0,0.0,0.0,0.0,0.0,0.0,0.0,0.0,0.0,0.0,0.0,0.0,0.0,0.0,0.0,0.0,0.0,0.0,0.0,0.0,0.0,0.0,0.0,0.0,0.0,0.0,0.0,0.0,0.0,0.0,0.0,0.0,0.0,0.0,0.0,0.0,0.0,0.0,0.0,0.0,0.0,0.0,0.0,1.8515,2.025,2.1856,2.3301,2.3854,2.4373,2.4885,2.4344,2.3925,2.3632,0.0,0.0,0.0,0.0,0.0,0.0,0.0,0.0,0.0,0.0,0.0,0.0,0.0,0.0,0.0,0.0,0.0,0.0,0.0,0.0,0.0,0.0,0.0,0.0,0.0,0.0,0.0,0.0,0.0,0.0,0.0,0.0,0.0,0.0,0.0,0.0,0.0,0.0,0.0,1.3907,1.4924,0.0,0.0,0.0,0.0,0.0,0.0,0.0,0.0,1.5657,0.0,0.0,0.0,0.0,0.0,0.0,0.0,0.0,0.0,0.0,0.0,0.0,0.0,0.0,0.0,0.0,0.0,0.0,0.0,0.0,0.0,0.0,0.0,0.0,0.0,0.0,0.0,0.0,0.0,0.0,0.0,0.0,0.0,0.0,0.0,0.0,0.0,0.0,0.0,0.0,0.0,0.0,0.0,0.0,0.0,0.0,0.0,0.0,0.0,0.0,0.0,0.0,0.0,0.0,0.0,2.0089,2.1492,2.3096,2.4936,2.5358,2.5712,2.6054,2.5331,2.4829,0.0,0.0,0.0,0.0,0.0,0.0,0.0,0.0,0.0,0.0,0.0,0.0,0.0,0.0,0.0,0.0,0.0,0.0,0.0,0.0,0.0,0.0,0.0,0.0,0.0,0.0,0.0,0.0,0.0,0.0,0.0,0.0,0.0,0.0,0.0,0.0,0.0,0.0,0.0,0.0,1.4751,1.5567,1.6284,0.0,0.0,0.0,0.0,0.0,0.0,1.6582,1.6924,0.0,0.0,0.0,0.0,0.0,0.0,0.0,0.0,0.0,0.0,0.0,0.0,0.0,0.0,0.0,0.0,0.0,0.0,0.0,0.0,0.0,0.0,0.0,0.0,0.0,0.0,0.0,0.0,0.0,0.0,0.0,0.0,0.0,0.0,0.0,0.0,0.0,0.0,0.0,0.0,0.0,0.0,0.0,0.0,0.0,0.0,0.0,0.0,0.0,0.0,0.0,0.0,0.0,0.0,0.0,2.1511,2.2704,2.4332,2.6415,2.662,2.6802,2.7031,2.6272,2.5701,0.0,0.0,0.0,0.0,0.0,0.0,0.0,0.0,0.0,0.0,0.0,0.0,0.0,0.0,0.0,0.0,0.0,0.0,0.0,0.0,0.0,0.0,0.0,0.0,0.0,0.0,0.0,0.0,0.0,0.0,0.0,0.0,0.0,0.0,0.0,0.0,0.0,0.0,0.0,0.0,0.0,1.6284,1.7069,1.7048,0.0,0.0,0.0,0.0,1.72,1.7832,0.0,0.0,0.0,0.0,0.0,0.0,0.0,0.0,0.0,0.0,0.0,0.0,0.0,0.0,0.0,0.0,0.0,0.0,0.0,0.0,0.0,0.0,0.0,0.0,0.0,0.0,0.0,0.0,0.0,0.0,0.0,0.0,0.0,0.0,0.0,0.0,0.0,0.0,0.0,0.0,0.0,0.0,0.0,0.0,0.0,0.0,0.0,0.0,0.0,0.0,0.0,0.0,0.0,0.0,0.0,0.0,2.1938,2.3912,2.5447,2.6519,2.6834,2.7059,2.7259,2.6933,2.6505,0.0,0.0,0.0,0.0,0.0,0.0,0.0,0.0,0.0,0.0,0.0,0.0,0.0,0.0,0.0,0.0,0.0,0.0,0.0,0.0,0.0,0.0,0.0,0.0,0.0,0.0,0.0,0.0,0.0,0.0,0.0,0.0,0.0,0.0,0.0,0.0,0.0,0.0,0.0,0.0,0.0,1.7839,1.7579,1.8018,1.8156,0.0,0.0,1.8187,1.8654,1.9394,0.0,0.0,0.0,0.0,0.0,0.0,0.0,0.0,0.0,0.0,0.0,0.0,0.0,0.0,0.0,0.0,0.0,0.0,0.0,0.0,0.0,0.0,0.0,0.0,0.0,0.0,0.0,0.0,0.0,0.0,0.0,0.0,0.0,0.0,0.0,0.0,0.0,0.0,0.0,0.0,0.0,0.0,0.0,0.0,0.0,0.0,0.0,0.0,0.0,0.0,0.0,0.0,0.0,0.0,0.0,2.1188,2.3112,2.5052,2.6555,2.7566,2.8135,2.8274,2.7921,2.7546,2.7004,0.0,0.0,0.0,0.0,0.0,0.0,0.0,0.0,0.0,0.0,0.0,0.0,0.0,0.0,0.0,0.0,0.0,0.0,0.0,0.0,0.0,0.0,0.0,0.0,0.0,0.0,0.0,0.0,0.0,0.0,0.0,0.0,0.0,0.0,0.0,0.0,0.0,0.0,0.0,0.0,0.0,0.0,1.8542,1.9219,0.0,0.0,0.0,2.0168,2.057,0.0,0.0,0.0,0.0,0.0,0.0,0.0,0.0,0.0,0.0,0.0,0.0,0.0,0.0,0.0,0.0,0.0,0.0,0.0,0.0,0.0,0.0,0.0,0.0,0.0,0.0,0.0,0.0,0.0,0.0,0.0,0.0,0.0,0.0,0.0,0.0,0.0,0.0,0.0,0.0,0.0,0.0,0.0,0.0,0.0,0.0,0.0,0.0,0.0,0.0,0.0,0.0,0.0,0.0,0.0,0.0,0.0,2.4503,2.6291,2.7707,2.8746,2.937,2.9397,2.888,2.8321,0.0,0.0,0.0,0.0,0.0,0.0,0.0,0.0,0.0,0.0,0.0,0.0,0.0,0.0,0.0,0.0,0.0,0.0,0.0,0.0,0.0,0.0,0.0,0.0,0.0,0.0,0.0,1.1475,0.0,0.0,0.0,0.0,0.0,0.0,0.0,0.0,0.0,0.0,0.0,0.0,0.0,0.0,1.9061,1.9594,2.0363,2.0987,0.0,0.0,2.1848,2.2062,2.2674,2.3011,0.0,0.0,0.0,0.0,0.0,0.0,0.0,0.0,0.0,0.0,0.0,0.0,0.0,0.0,0.0,0.0,0.0,0.0,0.0,0.0,0.0,0.0,0.0,0.0,0.0,0.0,0.0,0.0,0.0,0.0,0.0,0.0,0.0,0.0,0.0,0.0,0.0,0.0,0.0,0.0,0.0,0.0,0.0,0.0,0.0,0.0,0.0,0.0,0.0,0.0,0.0,0.0,0.0,0.0,0.0,2.5936,2.769,2.8959,2.976,3.0011,3.0125,3.0079,2.9315,2.8535,0.0,0.0,0.0,0.0,0.0,0.0,0.0,0.0,0.0,0.0,0.0,0.0,0.0,0.0,0.0,0.0,0.0,0.0,0.0,0.0,0.0,0.0,0.0,0.0,0.0,0.0,0.0,0.0,0.0,0.0,0.0,0.0,0.0,0.0,0.0,0.0,0.0,0.0,0.0,0.0,0.0,2.044,2.0694,2.1396,2.1883,0.0,0.0,2.2753,2.2674,2.3624,2.4119,2.3347,0.0,0.0,0.0,0.0,0.0,0.0,0.0,0.0,0.0,0.0,0.0,0.0,0.0,0.0,0.0,0.0,0.0,0.0,0.0,0.0,0.0,0.0,0.0,0.0,0.0,0.0,0.0,0.0,0.0,0.0,0.0,0.0,0.0,0.0,0.0,0.0,0.0,0.0,0.0,0.0,0.0,0.0,0.0,0.0,0.0,0.0,0.0,0.0,0.0,0.0,0.0,0.0,0.0,2.4619,2.6884,2.825,2.9462,3.0464,3.0892,3.0861,3.0401,2.9783,2.9041,0.0,0.0,0.0,0.0,0.0,0.0,0.0,0.0,0.0,0.0,0.0,0.0,0.0,0.0,0.0,0.0,0.0,0.0,0.0,0.0,0.0,0.0,0.0,0.0,0.0,0.0,0.0,0.0,1.3479,1.4379,1.5361,0.0,0.0,0.0,0.0,0.0,0.0,0.0,0.0,0.0,0.0,2.2011,2.2771,2.3473,0.0,0.0,2.4485,2.456,2.4761,2.5004,2.4996,2.4498,2.4394,0.0,0.0,0.0,0.0,0.0,0.0,0.0,0.0,0.0,0.0,0.0,0.0,0.0,0.0,0.0,0.0,0.0,0.0,0.0,0.0,0.0,0.0,0.0,0.0,0.0,0.0,0.0,0.0,0.0,0.0,0.0,0.0,0.0,0.0,0.0,0.0,0.0,0.0,0.0,0.0,0.0,0.0,0.0,0.0,0.0,0.0,0.0,0.0,0.0,0.0,0.0,0.0,2.5594,2.7982,2.916,3.023,3.1204,3.1695,3.1658,3.1076,3.0446,2.9653,0.0,0.0,0.0,0.0,0.0,0.0,0.0,0.0,0.0,0.0,0.0,0.0,0.0,0.0,0.0,0.0,0.0,0.0,0.0,0.0,0.0,0.0,0.0,0.0,0.0,0.0,0.0,0.0,1.5087,1.6038,1.6946,0.0,0.0,0.0,0.0,0.0,0.0,0.0,0.0,0.0,0.0,2.3313,2.4501,2.5153,2.5689,2.6291,2.6169,2.6107,2.6245,2.6121,2.5956,2.5778,0.0,0.0,0.0,0.0,0.0,0.0,0.0,0.0,0.0,0.0,0.0,0.0,0.0,0.0,0.0,0.0,0.0,0.0,0.0,0.0,0.0,0.0,0.0,0.0,0.0,0.0,0.0,0.0,0.0,0.0,1.354,0.0,0.0,0.0,0.0,0.0,0.0,0.0,0.0,0.0,0.0,0.0,0.0,0.0,0.0,0.0,0.0,0.0,0.0,0.0,0.0,0.0,0.0,2.7247,2.9341,3.059,3.1468,3.1955,3.2245,3.2376,3.2329,3.1343,3.0532,2.9942,0.0,0.0,0.0,0.0,0.0,0.0,0.0,0.0,0.0,0.0,0.0,0.0,0.0,0.0,0.0,0.0,0.0,0.0,0.0,0.0,0.0,0.0,0.0,0.0,0.0,0.0,1.6397,1.7048,1.7559,0.0,0.0,0.0,0.0,0.0,0.0,0.0,0.0,0.0,0.0,2.3423,2.4193,2.5593,2.6134,2.6557,2.694,2.716,2.7133,2.6784,2.6858,2.703,0.0,0.0,0.0,0.0,0.0,0.0,0.0,0.0,0.0,0.0,0.0,0.0,0.0,0.0,0.0,0.0,0.0,0.0,0.0,0.0,0.0,0.0,0.0,0.0,0.0,0.0,0.0,1.5336,1.5178,0.0,0.0,0.0,0.0,0.0,0.0,0.0,0.0,0.0,0.0,0.0,2.1116,2.1488,0.0,0.0,0.0,0.0,0.0,0.0,0.0,0.0,0.0,0.0,0.0,0.0,2.8081,3.0247,3.1101,3.1961,3.2889,3.315,3.3193,3.3068,3.2361,3.1198,2.951,0.0,0.0,0.0,0.0,0.0,0.0,0.0,0.0,0.0,0.0,0.0,0.0,0.0,0.0,0.0,0.0,0.0,0.0,0.0,0.0,0.0,0.0,0.0,0.0,0.0,1.7508,0.0,0.0,0.0,0.0,0.0,0.0,0.0,0.0,0.0,0.0,0.0,2.2697,2.4333,2.4958,2.5857,2.7548,2.8047,2.8261,0.0,0.0,0.0,0.0,0.0,0.0,0.0,0.0,0.0,0.0,0.0,0.0,0.0,0.0,2.6328,2.49,2.4704,2.4902,2.5407,0.0,0.0,0.0,0.0,0.0,0.0,0.0,0.0,0.0,0.0,0.0,0.0,0.0,0.0,1.7151,0.0,1.6888,0.0,0.0,0.0,0.0,0.0,0.0,0.0,0.0,2.0836,2.1911,2.2874,2.3241,2.3721,0.0,2.468,2.4294,0.0,0.0,0.0,0.0,0.0,0.0,0.0,0.0,2.9405,3.1643,3.2177,3.2861,3.3751,3.3947,3.3845,3.3492,3.2979,3.1878,3.0159,2.9095,2.815,0.0,0.0,0.0,0.0,0.0,0.0,0.0,0.0,0.0,0.0,0.0,0.0,0.0,0.0,0.0,0.0,0.0,0.0,0.0,0.0,0.0,0.0,0.0,1.9356,0.0,0.0,0.0,0.0,0.0,0.0,0.0,0.0,0.0,2.2705,2.3288,2.4351,2.6019,2.6581,2.7392,2.8905,0.0,0.0,0.0,0.0,0.0,0.0,0.0,2.9642,2.9795,2.9619,2.9603,3.011,2.9747,2.941,2.9428,0.0,0.0,2.6725,2.6465,2.6686,2.7238,2.7721,2.8119,2.826,2.8874,2.9431,0.0,0.0,0.0,0.0,0.0,0.0,0.0,0.0,1.9051,1.8469,0.0,1.8056,0.0,0.0,0.0,0.0,0.0,1.9518,0.0,0.0,2.288,2.3624,2.4245,2.4893,2.5297,2.5561,2.6085,2.6399,2.6474,2.5475,0.0,0.0,0.0,0.0,0.0,0.0,3.1231,3.339,3.3788,3.4157,3.4589,3.4589,3.4311,3.3725,3.3203,3.2583,3.1863,3.0755,2.9947,2.9516,2.8131,0.0,0.0,0.0,0.0,0.0,0.0,0.0,0.0,0.0,0.0,0.0,0.0,0.0,0.0,0.0,0.0,0.0,0.0,0.0,0.0,2.1009,0.0,0.0,0.0,0.0,0.0,0.0,0.0,0.0,0.0,0.0,2.4836,2.5115,2.6037,2.7805,0.0,0.0,0.0,0.0,3.0305,3.0693,3.0769,3.0681,3.0275,3.0863,3.1381,3.1362,0.0,0.0,3.1729,3.1021,3.0353,3.0309,3.0075,2.9556,2.9011,2.8728,2.8692,2.8913,2.9577,3.0017,3.0105,3.0993,3.1614,2.6469,0.0,0.0,0.0,0.0,2.1702,2.1325,2.1231,2.0822,2.0579,2.0455,2.0346,0.0,0.0,0.0,0.0,0.0,0.0,2.2642,2.3132,2.4346,2.551,2.6596,2.6942,2.7559,2.8413,2.8551,2.8999,2.9597,2.878,2.7797,2.6671,0.0,0.0,0.0,0.0,3.2872,3.3555,3.4446,3.4902,3.4978,3.4805,3.458,3.4209,3.3802,3.3375,3.2874,3.1992,3.111,3.0164,2.9473,0.0,0.0,0.0,0.0,0.0,0.0,0.0,0.0,0.0,0.0,0.0,0.0,0.0,0.0,0.0,0.0,0.0,0.0,0.0,2.1891,2.2196,2.2526,0.0,0.0,0.0,0.0,0.0,0.0,0.0,0.0,0.0,2.7896,2.7367,2.7428,0.0,0.0,2.9447,3.0474,3.1047,3.1428,3.1543,3.2268,0.0,0.0,3.2676,3.3013,3.3013,3.2924,3.3065,3.3628,3.3157,3.2688,3.2688,3.2619,3.2474,3.2243,3.1418,3.1125,3.2,3.2562,3.282,3.2866,3.3246,3.3525,2.8697,2.6886,2.5164,2.4403,2.4251,2.3643,2.3398,2.3404,2.3132,2.2943,2.2784,2.2469,2.231,2.2293,2.2204,0.0,0.0,0.0,2.4548,2.5288,2.618,2.7259,2.8456,2.8637,2.9094,2.9793,2.9945,3.0529,3.1487,3.0992,3.0544,3.0071,0.0,0.0,3.1334,3.3096,3.4329,3.4878,3.5705,3.6018,3.5778,3.5222,3.488,3.4791,3.4529,3.4137,3.3663,3.2946,3.2117,3.1111,3.0474,2.9877,0.0,0.0,0.0,0.0,0.0,0.0,0.0,0.0,0.0,0.0,0.0,2.2479,0.0,0.0,0.0,0.0,2.3665,2.395,2.3863,2.4114,0.0,0.0,0.0,0.0,0.0,0.0,0.0,2.6735,2.8158,2.9249,2.9589,2.9599,2.9665,2.9942,3.0186,3.0658,3.1495,0.0,3.2525,3.2602,3.3223,3.3638,3.3451,3.3807,3.4224,3.4468,3.4553,3.4679,3.4905,3.4582,3.4306,3.4279,3.4166,3.4142,3.436,3.3694,3.3238,3.3818,3.429,3.4588,3.4607,3.4953,3.5242,3.0966,3.054,2.8265,2.6919,2.6221,2.5813,2.5746,2.5974,2.5588,2.5244,2.4931,2.4368,2.406,2.3998,2.3998,0.0,2.4153,2.4992,2.6316,2.7947,2.8219,2.8916,3.0038,3.0119,3.0215,3.04,3.0806,3.1505,3.2445,3.2466,3.3154,3.4467,3.3043,3.2804,3.3758,3.4606,3.5641,3.6823,3.7284,3.7338,3.6882,3.5829,3.5344,3.5487,3.5317,3.4921,3.4393,3.3779,3.3068,3.2318,3.1381,3.058,2.9998,0.0,0.0,0.0,0.0,0.0,0.0,0.0,0.0,0.0,0.0,0.0,0.0,0.0,0.0,0.0,2.563,0.0,2.5836,2.6436,0.0,0.0,0.0,2.6263,2.6818,2.7105,2.7634,2.8543,0.0,0.0,3.0414,3.167,3.225,3.1371,3.1727,3.2203,3.2547,3.3131,3.3583,3.3738,3.3869,3.3954,3.4159,3.4617,3.5098,3.5486,3.575,3.5763,3.5885,3.5631,3.5394,3.5523,3.5168,3.5128,3.5654,3.5745,3.5579,3.4909,3.5281,3.5729,3.5925,3.6431,3.69,3.3003,3.1671,3.1557,3.0067,2.7665,2.6988,2.6749,2.6809,2.6544,2.643,2.6396,2.6072,2.5913,2.5777,2.5883,2.5883,2.5876,2.7336,2.815,2.8503,2.9689,3.0644,3.1357,3.1858,3.237,3.2845,3.3413,3.4027,3.468,3.4712,3.527,3.6317,3.6467,3.6006,3.5131,3.6457,3.7152,3.7195,3.8173,3.8334,3.7655,3.7064,3.6641,3.6306,3.6184,3.5896,3.5573,3.4982,3.4384,3.3813,3.2772,3.1957,3.1419,3.0769,0.0,0.0,0.0,0.0,0.0,0.0,0.0,0.0,0.0,2.5373,2.6063,0.0,2.6542,0.0,2.7146,2.7532,2.7586,2.7887,0.0,0.0,2.8052,2.8149,2.8293,2.9065,2.9701,2.9984,3.1073,3.1974,3.2359,3.2869,3.328,3.3457,3.3514,3.3519,3.3584,3.4128,3.4546,3.462,3.5083,3.5529,3.5561,3.5817,3.5919,3.5732,3.5989,3.6518,3.7431,3.7143,3.6932,3.7366,3.7549,3.7636,3.7732,3.7945,3.807,3.801,3.7717,3.7593,3.8183,3.858,3.8814,3.418,3.3004,3.3269,3.2362,3.0656,2.9707,2.9004,2.8536,2.8555,2.8324,2.7876,2.7767,2.7363,2.6852,2.7732,2.7935,2.7725,2.9109,2.986,3.0096,3.1329,3.2198,3.2808,3.3419,3.3964,3.4371,3.4706,3.5274,3.6013,3.6332,3.6994,3.7947,3.8428,3.83,3.7627,3.8539,3.8886,3.8672,3.9166,3.913,3.8566,3.8007,3.7476,3.7078,3.6877,3.6456,3.5786,3.5456,3.5008,3.4469,3.3791,3.3238,3.2866,3.2329,3.1696,0.0,0.0,0.0,0.0,0.0,0.0,0.0,0.0,0.0,0.0,0.0,2.8263,2.8288,2.8779,2.9117,2.9117,2.9662,2.9936,2.9751,2.9995,3.0269,3.0435,3.0974,3.1524,3.2003,3.2762,3.3412,3.3834,3.4147,3.4479,3.4913,3.5093,3.506,3.4744,3.5163,3.5648,3.5902,3.6111,3.6286,3.6338,3.6405,3.635,3.6172,3.6255,3.6658,3.7357,3.7394,3.7434,3.7761,3.8335,3.8805,3.8834,3.917,3.9567,3.9897,3.9794,3.9513,3.9361,3.955,3.9662,3.5091,3.4473,3.4393,3.4324,3.4117,3.3028,3.1862,3.0643,3.0861,3.0395,2.9477,2.9477,2.8882,2.8024,2.9549,2.9961,2.9529,3.0726,3.1542,3.2069,3.3055,3.3796,3.4311,3.4965,3.5414,3.5655,3.5722,3.6201,3.707,3.7806,3.8525,3.9257,3.9668,4.0034,4.0333,4.0582,4.0625,4.0531,4.0179,3.9873,3.9599,3.8887,3.8344,3.7977,3.7656,3.6952,3.5917,3.5695,3.537,3.4806,3.4534,3.427,3.408,3.3869,3.3219,0.0,3.1734,0.0,0.0,0.0,0.0,0.0,0.0,0.0,0.0,2.9678,2.9895,3.0028,3.0585,3.0882,3.0808,3.1677,3.203,3.1536,3.1925,3.2395,3.2699,3.2775,3.3141,3.4025,3.4289,3.4554,3.5022,3.5402,3.5697,3.616,3.6448,3.6443,3.6047,3.6199,3.6515,3.7123,3.6756,3.6524,3.6713,3.6654,3.6642,3.6808,3.678,3.6773,3.7474,3.7642,3.7774,3.806,3.8974,3.9605,3.9576,4.008,4.0622,4.1116,4.1324,4.1069,4.0311,4.0236,4.018,3.6947,3.5978,3.6626,3.6503,3.585,3.5758,3.4495,3.2445,3.1993,3.1659,3.1464,3.1464,3.1338,3.1167,3.1448,3.1496,3.1375,3.2709,3.33,3.3331,3.4949,3.5754,3.5916,3.6707,3.7489,3.8187,3.8554,3.8799,3.8973,4.012,4.0354,3.9744,4.1153,4.1759,4.1666,0.0,0.0,0.0,4.1133,4.0964,4.0696,4.0464,4.0175,3.9939,3.8902,0.0,3.7746,3.6786,3.6099,3.5807,3.5086,0.0,0.0,0.0,0.0,0.0,0.0,0.0,0.0,0.0,0.0,0.0,3.3211,3.289,3.1856,3.1674,3.1978,3.281,3.274,3.289,3.3501,3.3845,3.4024,3.3942,3.4043,3.4116,3.4192,3.4351,3.4529,3.4696,3.4892,3.534,3.6024,3.6193,3.6722,3.7774,3.7544,3.7399,3.7698,3.7102,3.6658,3.6603,3.6666,3.68,3.7134,3.7162,3.739,3.7992,3.791,3.8475,4.0198,4.0007,3.9969,4.0712,4.1305,4.1436,4.1436,4.159,4.1721,4.2097,4.2187,4.2138,4.1899,4.2012,4.2173,3.8375,0.0,3.7996,3.8033,0.0,3.7116,3.6236,3.5293,3.3758,3.2844,3.2503,3.2475,3.2725,3.3094,3.3511,3.3693,3.3785,3.4864,3.5334,3.5294,3.6605,3.7234,3.7263,3.8336,3.9066,3.9521,4.0124,4.044,4.0499,4.1632,4.1858,4.1232,4.2228,4.2572,4.2356,4.2248,4.2034,4.1681,4.1998,4.1851,4.122,4.1011,4.0759,4.0473,3.9743,0.0,0.0,0.0,0.0,0.0,0.0,0.0,0.0,0.0,0.0,3.4717,3.4612,3.4437,3.4164,3.4042,3.4306,3.4987,3.5884,3.5719,3.4083,3.3687,3.3854,3.4492,3.4142,3.3998,3.4432,3.4973,3.5338,3.5338,3.5712,3.5918,3.5937,3.5918,3.5975,3.6126,3.6447,3.6977,3.7567,3.7833,3.8223,3.9,3.8767,3.8487,3.8675,3.7715,3.6831,3.685,3.7316,3.7751,3.8083,3.7844,3.816,3.9247,3.9083,3.9392,4.1086,4.096,4.0842,4.1459,4.1951,4.2307,4.2236,4.2423,4.2679,4.2809,4.296,4.304,4.304,4.293,4.2809,3.9556,3.9689,3.9218,3.9293,3.9681,3.8168,3.7683,3.7825,0.0,0.0,0.0,3.3696,3.4119,3.4828,3.5465,3.5854,3.6067,3.6808,3.7173,3.722,3.8096,3.8513,3.859,3.9773,4.042,4.0576,4.1355,4.1761,4.1761,4.2728,4.313,4.296,4.304,4.301,4.2729,4.2295,4.2146,4.2291,4.2636,4.2455,4.168,4.1382,4.111,4.0797,4.0448,4.0093,3.9713,3.9132,3.8789,3.875,3.8049,3.757,3.7394,3.7086,3.6629,3.6,3.5925,3.5723,3.5289,3.5211,3.5681,3.6869,3.8074,3.7997,3.63,3.5761,3.5659,3.6022,3.5402,3.5012,3.5123,3.5854,3.6353,3.6381,3.6967,3.7327,3.7327,3.7353,3.7353,3.7593,3.8126,3.8699,3.9024,3.9388,3.9799,3.9976,3.9801,3.9662,3.9467,3.8436,3.7664,3.7926,3.8414,3.8926,3.9286,3.9014,3.9168,4.0722,4.0283,4.0059,4.0985,4.1364,4.1498,4.1797,4.2396,4.2803,4.2756,4.3098,4.3428,4.3409,4.3596,4.3734,4.3714,4.3448,4.317,4.0441,4.0644,4.0899,4.0545,3.9807,3.9884,3.9295,3.8256,3.6864,3.6295,3.6364,3.6364,3.663,3.7033,3.7157,3.7233,3.728,3.7891,3.819,3.8237,3.9244,3.9753,3.9783,4.069,4.1504,4.226,4.2792,4.3041,4.3102,4.377,4.401,4.3827,4.3634,4.3349,4.302,4.3269,4.3419,4.3452,4.2598,4.2265,4.2516,4.2333,4.2117,4.1864,4.1273,4.0874,4.0637,3.9983,3.9567,3.9407,3.9073,3.8924,3.8875,3.8166,3.7677,3.7573,3.7545,3.7625,3.7766,3.8238,3.8685,3.9036,3.9247,3.9187,3.8702,3.7633,3.7296,3.8012,3.7111,3.6646,3.7111,3.732,3.7415,3.7405,3.751,3.7567,3.7691,3.8091,3.8483,3.8687,3.9244,3.9746,3.9953,4.0207,4.0606,4.0967,4.0791,4.0363,4.0195,3.9587,3.9384,3.9651,3.9718,4.0032,4.0546,4.0594,4.0837,4.1976,4.1692,4.167,4.2827,4.285,4.2864,4.3447,4.3607,4.3717,4.3709,4.3819,4.3871,4.3851,4.391,4.3918,4.3819,4.3791,4.3801,4.2139,4.2275,4.2169,4.1877,4.1539,4.1465,4.111,4.0485,3.9932,3.8972,3.7921,3.7891,3.821,3.8814,3.9039,3.9194,3.9327,3.9684,3.9858,3.992,4.0646,4.0988,4.108,4.2153,4.2939,4.3333,4.4019,4.4328,4.4371,4.4913,4.5126,4.5022,4.4798,4.4478,4.413,4.4199,4.439,4.4714,4.3864,4.3541,4.377,4.322,4.296,4.2931,4.2214,4.1831,4.1823,4.119,4.078,4.07,4.0272,4.0019,3.9892,3.9513,3.9271,3.9152,3.9152,3.9231,3.9496,4.0153,4.0532,4.0541,4.1186,4.1397,4.0969,3.9419,3.8831,3.9502,3.8758,3.8187,3.8187,3.8639,3.8919,3.8639,3.9044,3.9324,3.9353,3.9576,3.978,3.9828,4.0421,4.0939,4.1155,4.1469,4.1803,4.2158,4.1902,4.1655,4.1695,4.1536,4.1113,4.0539,4.0471,4.0919,4.1631,4.1507,4.1899,4.3185,4.2841,4.2967,4.3891,4.3865,4.3857,4.409,4.4151,4.4123,4.4046,4.4007,4.4007,4.4007,4.4104,4.4112,4.4051,4.4159,4.4189,4.3606,4.378,4.3353,4.3233,4.3227,4.272,4.254,4.2618,4.2533,4.1546,4.0004,3.9703,3.9899,4.0427,4.0741,4.0949,4.11,4.1267,4.1429,4.1599,4.1959,4.2107,4.2248,4.341,4.3987,4.4049,4.48,4.5279,4.5447,4.5744,4.597,4.6059,4.6001,4.5764,4.5284,4.5105,4.5276,4.5747,4.531,4.4989,4.4862,4.4103,4.3772,4.3859,4.3104,4.2761,4.2865,4.2275,4.1931,4.1902,4.1499,4.1146,4.1008,4.0842,4.0705,4.0548,4.0528,4.0675,4.1018,4.1724,4.2019,4.1732,4.2863,4.3362,4.2688,4.1491,4.0645,4.0662,4.0118,3.9562,3.9323,3.9896,4.0314,3.996,4.0505,4.0837,4.0916,4.1064,4.1095,4.1028,4.1578,4.2149,4.2357,4.2624,4.2871,4.3031,4.301,4.301,4.319,4.322,4.2634,4.1823,4.1515,4.2013,4.2694,4.2595,4.2955,4.4213,4.3831,4.3827,4.4335,4.4438,4.4362,4.4343,4.4343,4.4305,4.4181,4.4162,4.4181,4.42,4.4297,4.4343,4.4312,4.473,4.4699,4.4131,4.4515,4.4655,4.4477,4.4071,4.3421,4.3335,4.3553,4.3399,4.3441,4.3341,4.259,4.2085,4.1932,4.1939,4.1973,4.1991,4.1991,4.2369,4.2948,4.3069,4.3083,4.3194,4.3876,4.4187,4.4343,4.4986,4.5647,4.6146,4.6062,4.616,4.6551,4.6946,4.6814,4.6234,4.6001,4.609,4.6485,4.6455,4.613,4.5524,4.4899,4.4575,4.4596,4.3947,4.3593,4.3605,4.2974,4.262,4.262,4.2561,4.2531,4.2452,4.1961,4.1617,4.1597,4.1597,4.1833,4.2482,4.3121,4.326,4.2777,4.3859,4.4301,4.3711,4.3973,4.3327,4.1886,4.1018,4.0783,4.0626,4.1139,4.143,4.1245,4.1458,4.1324,4.1613,4.1874,4.2243,4.2243,4.2862,4.316,4.319,4.325,4.3349,4.3577,4.3557,4.3616,4.3762,4.3801,4.384,4.3601,4.3512,4.3568,4.4044,4.4201,4.4109,4.4465,4.4503,4.4441,4.4522,4.4572,4.4584,4.468,4.4626,4.4638,4.4668,4.4534,4.4576,4.4715,4.4722,4.4595,4.4683,4.5429,4.5646,4.6083,4.637,4.6344,4.6091,4.5649,4.5025,4.4907,4.5193,4.5172,4.5207,4.5312,4.496,4.4165,4.3057,4.3039,4.3091,4.3229,4.3229,4.3456,4.389,4.4545,4.4849,4.4849,4.5906,4.6322,4.6222,4.6598,4.6938,4.7183,4.7387,4.7675,4.7976,4.804,4.7875,4.7507,4.729,4.7245,4.7404,4.7434,4.7286,4.6971,4.6105,4.5658,4.5569,4.5025,4.4638,4.4578,4.3992,4.3696,4.3817,4.3867,4.3928,4.4068,4.4038,4.4107,4.4228,4.4127,4.4247,4.4609,4.4807,4.4816,4.4669,4.5355,4.5562,4.4994,4.5472,4.5281,4.4154,4.3515,4.3248,4.318,4.3716,4.3983,4.3789,4.4145,4.4386,4.433,4.4484,4.4516,4.4084,4.4498,4.4609,4.4052,4.3849,4.383,4.391,4.3951,4.4079,4.4143,4.4181,4.4258,4.4305,4.4247,4.4247,4.4419,4.4477,4.4496,4.4572,4.4591,4.4591,4.4641,4.4591,4.4683,4.5114,4.5195,4.5411,4.5803,4.5422,4.5268,4.5434,4.551,4.546,4.5878,4.6447,4.6508,4.7629,4.7808,4.7744,4.7542,4.7315,4.6875,4.6815,4.7016,4.7034,4.7034,4.7034,4.6981,4.6294,4.5126,4.4449,4.4328,4.4626,4.4434,4.4631,4.5166,4.6099,4.648,4.6639,4.7527,4.7991,4.7877,4.7902,4.8029,4.8206,4.8643,4.8943,4.9036,4.878,4.8552,4.8406,4.8391,4.8429,4.8365,4.8344,4.8344,4.8125,4.7283,4.674,4.6616,4.6079,4.574,4.5648,4.5109,4.483,4.4961,4.5012,4.5122,4.5263,4.5597,4.5869,4.5991,4.5869,4.5849,4.5981,4.602,4.603,4.6052,4.6575,4.6703,4.6301,4.6634,4.6806,4.6454,4.6156,4.5785,4.5263,4.5808,4.6088,4.5898,4.6445,4.6711,4.6531,4.6583,4.6238,4.5712,4.5796,4.5878,4.5092,4.4797,4.4758,4.4811,4.4761,4.4647,4.471,4.4937,4.5145,4.5006,4.4982,4.4901,4.4576,4.4515,4.461,4.4648,4.4667,4.4671,4.4833,4.4963,4.5267,4.5982,4.5959,4.6024,4.629,4.6147,4.5976,4.6337,4.637,4.6298,4.6604,4.7198,4.7452,4.8091,4.8491,4.8675,4.868,4.8689,4.872,4.881,4.8681,4.8796,4.8828,4.8727,4.8651,4.861,4.8284,4.6293,4.5629,4.6127,4.5647,4.6031,4.7105,4.7343,4.7741,4.8381,4.8445,4.8491,4.8557,4.8445,4.8548,4.8896,4.9324,4.9481,4.9259,4.8872,4.8625,4.8737,4.926,4.9462,4.9271,4.9292,4.9164,4.8952,4.8311,4.784,4.7597,4.712,4.6777,4.652,4.6142,4.593,4.5951,4.593,4.5951,4.5971,4.6011,4.6123,4.6093,4.6042,4.6042,4.6153,4.6639,4.6751,4.6356,4.7279,4.7672,4.7199,4.7625,4.7962,4.8107,4.8172,4.7702,4.6629,4.6817,4.7035,4.7021,4.7197,4.7337,4.7337,4.7403,4.7158,4.6838,4.6672,4.6502,4.6211,4.6038,4.6105,4.6206,4.6126,4.585,4.575,4.6412,4.6466,4.6004,4.5825,4.5796,4.5048,4.4934,4.4866,4.4984,4.5139,4.4994,4.5479,4.5947,4.6435,4.6816,4.6854,4.6888,4.6829,4.6782,4.6713,4.6828,4.692,4.6969,4.7514,4.7862,4.8148,4.9707,4.9827,4.9534,4.9434,4.9402,4.9056,4.8921,4.9012,4.9012,4.9012,4.8994,4.8939,4.9252,4.9736,4.845,4.7902,4.7895,4.7652,4.7866,4.8472,4.8909,4.9208,4.9373,4.9804,4.9954,4.984,4.9764,4.9834,4.9981,5.017,5.005,4.9733,4.9521,4.9437,4.9522,4.9769,4.9972,5.0202,5.0489,5.0522,5.0248,4.9915,4.9553,4.9094,4.8145,4.7579,4.7516,4.6942,4.6711,4.6824,4.6824,4.6885,4.7038,4.7456,4.7609,4.7485,4.7588,4.7671,4.7701,4.7885,4.807,4.8172,4.8389,4.8708,4.8706,4.8891,4.9026,4.9006,4.9128,4.8867,4.8649,4.8562,4.8642,4.8681,4.882,4.8848,4.88,4.8761,4.8596,4.8048,4.7465,4.7184,4.7466,4.7472,4.7302,4.7119,4.7251,4.7158,4.6757,4.6737,4.6608,4.6176,4.5771,4.5503,4.5409,4.5534,4.5689,4.5882,4.6038,4.633,4.673,4.6811,4.715,4.7719,4.7828,4.7924,4.7947,4.7982,4.7831,4.7563,4.7625,4.7951,4.8562,4.8695,4.89,5.0839,5.0851,5.0499,5.0366,5.039,4.9987,4.9815,4.9892,4.9892,4.9924,4.9892,4.9892,5.0275,5.0696,5.0322,4.9982,4.9714,4.9307,4.9195,4.9491,4.9963,5.0228,5.0338,5.0841,5.0991,5.082,5.0801,5.0762,5.0717,5.0852,5.0772,5.0466,5.0549,5.0614,5.0663,5.0882,5.1172,5.1503,5.1799,5.181,5.1526,5.1215,5.0839,5.0413,4.957,4.8835,4.8353,4.7926,4.7784,4.7907,4.7896,4.7958,4.8172,4.8645,4.8924,4.8831,4.8934,4.914,4.9326,4.9295,4.9491,4.9997,4.9895,4.9915,5.013,5.0171,4.9995,4.9778,4.9837,4.9896,4.9684,4.9701,4.9793,4.9753,4.9832,4.9852,4.9701,4.9681,4.9421,4.8934,4.8459,4.8349,4.8619,4.8737,4.8549,4.8087,4.8443,4.8443,4.7747,4.7586,4.7249,4.7023,4.683,4.6749,4.6843,4.7094,4.6535,4.6535,4.6564,4.7071,4.7692,4.7692,4.793,4.8533,4.8838,4.8954,4.9041,4.9107,4.891,4.8548,4.8548,4.8784,4.9153,4.9367,4.9447,5.1312,5.1462,5.1499,5.1508,5.159,5.1525,5.1678,5.1561,5.1612,5.1477,5.1445,5.1612,5.1528,5.1747,5.1649,5.1747,5.1467,5.0466,5.0097,5.041,5.0475,5.0741,5.1126,5.1471,5.155,5.1413,5.1297,5.117,5.1044,5.1469,5.162,5.1618,5.1764,5.1898,5.1975,5.2513,5.2944,5.3018,5.306,5.2976,5.267,5.2136,5.1748,5.1528,5.134,5.0642,4.9212,4.922,4.925,4.9333,4.9139,4.9118,4.9373,4.9629,4.9767,4.993,4.9947,5.0271,5.0787,5.0731,5.088,5.1391,5.1445,5.1288,5.1372,5.1341,5.1132,5.0652,5.0649,5.0542,5.0056,5.0137,5.0192,4.9971,4.9971,4.9991,4.99,4.9912,4.9832,4.9579,4.9393,4.957,4.9602,4.9599,4.9536,4.9433,4.9516,4.9421,4.8627,4.8804,4.9174,4.8757,4.8096,4.7763,4.8294,4.8762,4.7807,4.7095,4.7068,4.7293,4.8275,4.8628,4.8824,4.9284,4.9339,4.9436,4.9276,4.9331,4.9487,4.9249,4.9394,4.9517,4.9772,4.9924,4.9744,5.1633,5.1702,5.1721,5.1739,5.178,5.178,5.178,5.178,5.178,5.178,5.178,5.178,5.1886,5.2127,5.2525,5.2811,5.2854,5.2392,5.1933,5.143,5.1361,5.1455,5.1712,5.2207,5.2665,5.2981,5.2894,5.259,5.2234,5.2527,5.25,5.2034,5.2417,5.2771,5.3003,5.3216,5.3418,5.3787,5.4094,5.4136,5.3883,5.3551,5.3323,5.3198,5.2794,5.2212,5.1749,5.0758,5.0555,5.1075,5.0668,5.0605,5.1033,5.122,5.1261,5.1342,5.1516,5.1579,5.1668,5.1824,5.1989,5.2293,5.2234,5.2243,5.2426,5.2377,5.22,5.1946,5.2015,5.1928,5.1706,5.1232,5.0787,5.0251,5.0285,5.0266,5.0129,5.001,4.9892,4.9832,4.9812,4.9812,4.9832,4.9884,4.9904,4.9832,4.9884,4.9718,4.9521,4.9316,4.9173,4.883,4.8604,4.8529,4.8699,4.8857,4.8452,4.8047,4.7995,4.7929,4.88,4.932,4.96,4.9694,4.9749,4.9733,4.9541,4.9544,4.9669,4.9846,4.9846,5.0093,5.0391,5.0357,5.0156,5.1849,5.1904,5.1922,5.1959,5.2064,5.2335,5.2448,5.2394,5.2466,5.2448,5.2361,5.213,5.2305,5.2681,5.2897,5.3169,5.3458,5.3226,5.2732,5.2148,5.2236,5.2378,5.2618,5.3025,5.3489,5.3902,5.3795,5.3503,5.3144,5.3629,5.3623,5.3266,5.3765,5.4188,5.4282,5.4274,5.4406,5.4633,5.4957,5.504,5.4819,5.4724,5.462,5.4446,5.4019,5.3793,5.3689,5.2623,5.2061,5.2177,5.1859,5.1859,5.2241,5.2302,5.2415,5.2496,5.2629,5.2765,5.2887,5.2972,5.3192,5.3454,5.3407,5.3366,5.3591,5.355,5.3393,5.3105,5.3021,5.2849,5.2285,5.1881,5.131,5.0978,5.0503,5.0317,5.0148,5.0089,5.007,5.007,5.0109,5.0148,5.0148,5.0148,5.0129,5.0089,5.0109,5.0109,5.0014,4.9748,4.9557,4.9411,4.9328,4.9131,4.8794,4.8857,4.892,4.8996,4.9083,4.9107,4.9505,4.9651,4.9829,4.9797,4.984,4.9852,4.9733,4.9713,4.9776,5.0016,5.0236,5.0348,5.0492,5.0575,5.0385,5.2039,5.2185,5.2236,5.2443,5.2707,5.3415,5.3612,5.3539,5.3666,5.363,5.3389,5.284,5.2948,5.3405,5.3121,5.3205,5.3541,5.329,5.3119,5.3039,5.3225,5.3587,5.3794,5.3972,5.4213,5.434,5.4235,5.4107,5.4041,5.4638,5.5038,5.4848,5.5365,5.5921,5.5648,5.5786,5.556,5.543,5.5645,5.5645,5.543,5.558,5.556,5.5181,5.5149,5.5084,5.4996,5.4531,5.387,5.301,5.297,5.3066,5.297,5.3058,5.3306,5.349,5.3427,5.3828,5.4228,5.4217,5.4349,5.4906,5.4847,5.4875,5.4787,5.47,5.4466,5.3944,5.3859,5.339,5.2436,5.2111,5.2093,5.1809,5.0996,5.0339,5.0074,5.0251,5.0266,5.0324,5.0492,5.0589,5.0531,5.0531,5.0473,5.0395,5.0421,5.0434,5.0363,5.0267,5.0389,5.0255,4.9986,4.9864,4.9533,4.9564,4.9628,4.9563,4.9682,4.9738,4.9805,4.9848,4.988,4.988,4.988,4.9912,4.9912,4.9892,4.9998,5.0251,5.0397,5.0469,5.05,5.0595,5.0405,5.3504,5.3111,5.364,5.3982,5.4165,5.4437,5.4577,5.4649,5.4704,5.4704,5.4501,5.3899,5.3717,5.387,5.3752,5.3735,5.3986,5.4272,5.4789,5.5168,5.528,5.4907,5.458,5.492,5.517,5.5274,5.5466,5.5454,5.4988,5.5515,5.5536,5.5038,5.5785,5.6086,5.6026,5.6026,5.5986,5.5947,5.5966,5.6006,5.5947,5.5966,5.6046,5.6106,5.6046,5.6013,5.6013,5.5803,5.5286,5.4548,5.4812,5.4992,5.4854,5.4774,5.4689,5.4729,5.4814,5.4952,5.5287,5.5332,5.547,5.5794,5.5706,5.5685,5.5556,5.5503,5.5345,5.5049,5.4935,5.4773,5.4301,5.3809,5.3258,5.252,5.1844,5.1357,5.1241,5.0857,5.0531,5.055,5.0653,5.0724,5.0775,5.0756,5.0736,5.0698,5.0717,5.0768,5.0877,5.0845,5.0999,5.0685,5.0448,5.0448,5.0409,5.0409,5.0319,5.0151,5.0073,5.0014,4.9979,4.988,4.988,4.988,4.988,4.9912,4.9991,5.003,5.0264,5.0362,5.0473,5.0513,5.054,5.0595,5.0259,5.4243,5.3879,5.4309,5.4638,5.4855,5.5195,5.5439,5.5582,5.5673,5.5655,5.5433,5.4778,5.4716,5.5004,5.4718,5.4785,5.5053,5.5172,5.5386,5.5664,5.5947,5.5918,5.5717,5.5856,5.5866,5.6179,5.6404,5.6261,5.601,5.6224,5.6125,5.5985,5.6171,5.633,5.6362,5.6264,5.6185,5.6126,5.6165,5.6225,5.6244,5.6323,5.631,5.6388,5.6388,5.6388,5.6369,5.6271,5.5975,5.5627,5.5738,5.5906,5.5906,5.5806,5.5673,5.5673,5.5673,5.5754,5.5886,5.5939,5.5966,5.6066,5.6086,5.6046,5.5906,5.5846,5.5706,5.5572,5.545,5.528,5.4968,5.4499,5.3991,5.3512,5.3145,5.2758,5.2311,5.1879,5.1654,5.1629,5.1668,5.1726,5.1726,5.1707,5.1668,5.1713,5.1868,5.1816,5.1758,5.1668,5.1604,5.1469,5.1346,5.1423,5.1236,5.1101,5.0941,5.076,5.0662,5.054,5.0204,5.0034,4.9931,4.9931,4.9931,4.99,4.9991,5.003,5.0086,5.0212,5.0426,5.0489,5.0485,5.075,5.0362,5.4674,5.4645,5.4744,5.4874,5.5314,5.5962,5.6374,5.6411,5.6575,5.6557,5.6279,5.5621,5.5714,5.6461,5.5604,5.5705,5.6259,5.5806,5.5683,5.5846,5.616,5.6526,5.7011,5.6433,5.6358,5.6673,5.6734,5.6762,5.6696,5.6743,5.6853,5.6811,5.6782,5.6738,5.668,5.6544,5.6382,5.6264,5.6362,5.6441,5.6427,5.6525,5.6564,5.6466,5.6466,5.6447,5.6447,5.646,5.6355,5.6152,5.6145,5.6126,5.6126,5.6126,5.6086,5.6046,5.6026,5.6066,5.6126,5.6126,5.6165,5.6205,5.6205,5.6145,5.6126,5.6006,5.5866,5.5746,5.5552,5.5244,5.4806,5.4547,5.4527,5.441,5.443,5.3999,5.3295,5.3025,5.3028,5.3048,5.3154,5.3245,5.3265,5.3298,5.3174,5.25,5.2656,5.2604,5.2584,5.2572,5.2584,5.2642,5.257,5.2531,5.2195,5.1827,5.157,5.1352,5.1273,5.1111,5.0544,5.0311,5.0074,4.9971,4.9971,4.992,4.99,4.9931,5.0003,5.0066,5.0291,5.0252,5.0244,5.0778,5.0778,5.598,5.568,5.6231,5.6671,5.6969,5.7211,5.7355,5.7483,5.7572,5.7486,5.7367,5.6741,5.659,5.6693,5.6101,5.5747,5.6119,5.6373,5.6743,5.725,5.6775,5.7112,5.7563,5.7238,5.6817,5.6746,5.6995,5.7158,5.7191,5.7272,5.7195,5.7248,5.7258,5.7101,5.7015,5.6925,5.6776,5.6603,5.6655,5.6641,5.6622,5.6661,5.668,5.6622,5.6641,5.6641,5.6661,5.6776,5.6776,5.6583,5.6441,5.6362,5.6323,5.6205,5.6145,5.6145,5.6126,5.6185,5.6303,5.6362,5.6388,5.6505,5.6505,5.6505,5.633,5.6303,5.6106,5.5886,5.5726,5.5527,5.5223,5.5183,5.5118,5.5118,5.5098,5.5045,5.4673,5.3865,5.3432,5.3355,5.3375,5.3298,5.333,5.3447,5.3407,5.3291,5.3291,5.331,5.3395,5.344,5.3529,5.3651,5.3567,5.343,5.3055,5.2622,5.2177,5.1964,5.1918,5.195,5.1382,5.0814,5.0679,5.037,5.001,5.001,5.001,5.007,5.018,5.0204,5.0228,5.0255,5.0422,5.0898,5.1196,5.6586,5.6586,5.6972,5.7327,5.7569,5.7606,5.7717,5.7881,5.7991,5.7972,5.7868,5.7532,5.743,5.7273,5.6934,5.6801,5.6942,5.7336,5.7797,5.8035,5.7745,5.7813,5.8117,5.8201,5.7946,5.7491,5.7643,5.7811,5.7878,5.8131,5.8284,5.7957,5.7848,5.7878,5.7687,5.7377,5.7082,5.7006,5.6987,5.6949,5.6853,5.6834,5.6834,5.6872,5.6911,5.6987,5.6987,5.7082,5.7025,5.6872,5.6738,5.6622,5.6525,5.646,5.6402,5.6349,5.6402,5.6408,5.6505,5.6544,5.6583,5.668,5.6699,5.6641,5.6525,5.6447,5.6323,5.6126,5.5986,5.5846,5.5625,5.5584,5.5564,5.5409,5.5409,5.5409,5.528,5.4729,5.4288,5.4288,5.4353,5.4353,5.4288,5.4094,5.4224,5.4365,5.4398,5.4418,5.4483,5.4547,5.4462,5.4507,5.443,5.4236,5.3848,5.3388,5.2805,5.2604,5.2532,5.2708,5.2591,5.197,5.1401,5.0912,5.0393,5.0207,5.0227,5.0266,5.0285,5.029,5.0322,5.0356,5.0471,5.077,5.1049,5.6829,5.7305,5.7406,5.7551,5.7717,5.7753,5.7863,5.8009,5.8153,5.8153,5.8045,5.8187,5.8051,5.7993,5.7941,5.8065,5.8191,5.8315,5.8403,5.8403,5.8369,5.8471,5.8708,5.8973,5.9282,5.91,5.8843,5.8715,5.8864,5.9213,5.9213,5.8934,5.8753,5.8734,5.8623,5.801,5.7576,5.7553,5.7333,5.7195,5.7063,5.7044,5.7044,5.7063,5.7158,5.7367,5.7419,5.7423,5.7319,5.7196,5.7149,5.6987,5.6834,5.6738,5.6738,5.6738,5.6757,5.6796,5.6815,5.6815,5.6796,5.6757,5.6738,5.6719,5.6661,5.6544,5.6427,5.6343,5.6185,5.6006,5.5846,5.5826,5.5746,5.5572,5.5491,5.5503,5.5523,5.5503,5.532,5.5227,5.5033,5.4968,5.5065,5.5033,5.5227,5.5389,5.5389,5.5389,5.5389,5.5357,5.513,5.5065,5.4936,5.4871,5.4567,5.4373,5.3776,5.3582,5.3413,5.3563,5.3662,5.2928,5.2189,5.1327,5.0825,5.0652,5.0446,5.0414,5.0414,5.0375,5.0459,5.0568,5.062,5.062,5.1047,5.6959,5.7093,5.7755,5.8153,5.8348,5.8348,5.8348,5.8401,5.8437,5.8437,5.8401,5.8437,5.8437,5.835,5.8401,5.8437,5.8472,5.8543,5.8561,5.8561,5.8595,5.8766,5.9365,5.9583,6.0175,6.083,6.0465,5.9918,5.9831,5.9971,6.0068,5.9903,5.9817,5.9779,5.9443,5.8862,5.8297,5.8054,5.7666,5.7327,5.7271,5.7252,5.7252,5.7285,5.7394,5.7714,5.8001,5.7827,5.7726,5.8074,5.7704,5.7431,5.7262,5.7125,5.7068,5.7101,5.7282,5.742,5.7406,5.7291,5.7134,5.7006,5.7096,5.6934,5.6804,5.6694,5.6643,5.6441,5.6264,5.6106,5.6066,5.6046,5.6046,5.5947,5.5826,5.5786,5.5866,5.5806,5.5645,5.547,5.543,5.543,5.545,5.543,5.5389,5.5389,5.5389,5.5389,5.5389,5.5389,5.5324,5.5292,5.5324,5.5292,5.5215,5.515,5.4903,5.4762,5.4652,5.4668,5.4513,5.3732,5.296,5.23,5.1501,5.1031,5.0845,5.0666,5.073,5.087,5.0845,5.0852,5.0974,5.116,5.1752,5.7395,5.7672,5.8341,5.8667,5.8736,5.8578,5.849,5.8525,5.8596,5.8578,5.8561,5.8596,5.8578,5.8543,5.8562,5.8649,5.8736,5.8736,5.884,5.8892,5.8875,5.9218,6.0009,6.0211,6.0978,6.1708,6.1673,6.1261,6.0962,6.1316,6.1109,6.0795,6.0819,6.0747,6.0323,5.9422,5.8961,5.8564,5.8059,5.7584,5.751,5.7491,5.7491,5.7577,5.7954,5.8362,5.8515,5.8504,5.8384,5.8402,5.7936,5.7779,5.78,5.7911,5.7821,5.783,5.8122,5.8414,5.8414,5.8428,5.8365,5.8225,5.8119,5.7822,5.7454,5.7276,5.7072,5.6663,5.6519,5.6382,5.6284,5.6264,5.6225,5.6106,5.6006,5.6026,5.6046,5.6006,5.5846,5.5685,5.5665,5.5645,5.5604,5.5564,5.543,5.5389,5.5409,5.5409,5.5409,5.5389,5.5389,5.5389,5.5389,5.5389,5.5389,5.5389,5.5377,5.5406,5.5458,5.5474,5.532,5.4525,5.4037,5.3529,5.2713,5.1598,5.1231,5.1051,5.1192,5.1417,5.1681,5.1816,5.1611,5.1752,5.232,5.7622,5.8082,5.8713,5.9078,5.9166,5.8892,5.8753,5.8753,5.884,5.8806,5.8666,5.884,5.8858,5.8753,5.8823,5.8978,5.9115,5.9115,5.9217,5.932,5.9459,5.984,6.0549,6.1151,6.178,6.2497,6.2706,6.2654,6.2093,6.2327,6.2212,6.1902,6.1809,6.179,6.1384,6.0336,5.9678,5.9272,5.8727,5.8281,5.8137,5.81,5.81,5.81,5.8837,5.9265,5.955,5.9314,5.931,5.913,5.8755,5.8328,5.8719,5.9031,5.9151,5.9084,5.9395,5.9491,5.9452,5.9399,5.9168,5.8972,5.9118,5.8734,5.8316,5.7959,5.776,5.7136,5.6945,5.6768,5.6565,5.648,5.6402,5.6303,5.6225,5.6185,5.6244,5.6192,5.6185,5.6046,5.5947,5.5786,5.5685,5.5584,5.543,5.5491,5.5491,5.5491,5.5491,5.5409,5.5389,5.5389,5.5389,5.5389,5.5389,5.5389,5.5397,5.5373,5.5479,5.5552,5.5515,5.5255,5.4765,5.4126,5.3201,5.2197,5.1823,5.1759,5.2178,5.2532,5.2758,5.2862,5.2811,5.2573,5.2747,5.7238,5.7892,5.8647,5.9297,5.9844,5.9584,5.9451,5.9418,5.9336,5.9115,5.8995,5.9319,5.9369,5.9267,5.9369,5.947,5.9503,5.9504,5.9556,5.9728,6.0112,6.0738,6.1484,6.2212,6.2655,6.3186,6.3293,6.3117,6.2833,6.2897,6.2908,6.2681,6.2551,6.258,6.2419,6.1374,6.1157,6.1053,6.0261,5.9761,5.9689,5.9689,5.9674,5.9742,5.9964,6.0306,6.0664,6.0374,6.0216,6.067,6.0144,5.9821,6.0005,6.0632,6.0921,6.0724,6.0305,5.9708,5.9745,5.9845,5.9748,5.9624,5.9478,5.9099,5.8907,5.8681,5.8475,5.7994,5.7745,5.7315,5.6793,5.6674,5.6622,5.6544,5.6427,5.6499,5.6505,5.6388,5.6349,5.631,5.6225,5.5886,5.5633,5.5531,5.545,5.5564,5.5625,5.5625,5.5645,5.5572,5.547,5.5491,5.547,5.547,5.5389,5.5389,5.5397,5.5393,5.5499,5.5617,5.5552,5.5377,5.4927,5.4219,5.3474,5.322,5.3182,5.3265,5.3459,5.3375,5.3291,5.3666,5.4074,5.3731,5.298,5.7198,5.8304,5.9399,6.0059,6.0325,6.0123,5.9943,5.9879,5.9862,5.9716,5.9551,5.9732,5.9881,5.983,5.9781,5.9783,5.9816,5.9701,5.9931,6.0311,6.0731,6.1395,6.2353,6.277,6.3184,6.3683,6.3803,6.3694,6.3436,6.3227,6.3133,6.3038,6.3038,6.2966,6.3026,6.2097,6.1847,6.1615,6.1084,6.0582,6.0508,6.0505,6.0505,6.0539,6.0894,6.1284,6.1401,6.1257,6.1083,6.1282,6.0615,6.0385,6.0689,6.111,6.1361,6.1644,6.1329,6.1122,6.1161,6.1094,6.0869,6.0804,6.0691,6.0565,6.0004,5.9458,5.9011,5.8308,5.81,5.767,5.7066,5.679,5.6699,5.6661,5.6603,5.6603,5.6641,5.6622,5.6544,5.6505,5.6427,5.6132,5.5874,5.5834,5.5814,5.5846,5.5886,5.5866,5.5906,5.5906,5.5786,5.5665,5.5625,5.5604,5.547,5.5389,5.5389,5.5438,5.5612,5.5677,5.5564,5.5329,5.4996,5.4944,5.464,5.4518,5.4578,5.4338,5.4123,5.3889,5.3675,5.3732,5.3745,5.3175,5.2586,5.7438,5.8503,5.9681,6.0453,6.0823,6.0589,6.0434,6.0356,6.0341,6.0195,6.0068,6.0151,6.0294,6.0372,6.0231,6.0215,6.036,6.0075,6.0566,6.1038,6.1548,6.2269,6.3164,6.3518,6.3817,6.4091,6.4287,6.4217,6.3966,6.373,6.36,6.3265,6.3414,6.3433,6.3202,6.28,6.2526,6.2534,6.2107,6.1741,6.1558,6.1502,6.145,6.1549,6.1801,6.2105,6.2086,6.1972,6.1877,6.1737,6.1336,6.1297,6.1694,6.1714,6.1898,6.2124,6.2032,6.2046,6.2099,6.208,6.213,6.201,6.1883,6.1394,6.1039,6.0329,5.9792,5.9309,5.9034,5.8402,5.7558,5.7224,5.7014,5.6909,5.6719,5.6699,5.668,5.6661,5.6641,5.6603,5.6544,5.6466,5.6303,5.6284,5.6225,5.6165,5.6145,5.6126,5.6106,5.6126,5.5966,5.5839,5.5746,5.5685,5.5491,5.5409,5.5409,5.547,5.5645,5.5665,5.5564,5.5523,5.5361,5.5385,5.5483,5.5402,5.5197,5.4912,5.4658,5.4384,5.4033,5.335,5.2987,5.2482,5.2236,5.7936,5.8089,5.8849,6.0067,6.1423,6.1131,6.0912,6.0888,6.0696,6.0569,6.0523,6.0538,6.0666,6.0707,6.0757,6.0823,6.104,6.1004,6.1575,6.2266,6.2913,6.3463,6.4133,6.4586,6.4786,6.4689,6.4809,6.4775,6.4637,6.4567,6.427,6.3945,6.3929,6.4001,6.393,6.3647,6.3415,6.3506,6.3337,6.3244,6.3076,6.298,6.2906,6.2768,6.2696,6.2644,6.2644,6.258,6.2566,6.2566,6.2319,6.2255,6.2449,6.2343,6.246,6.2625,6.2557,6.2537,6.2576,6.2243,6.185,6.175,6.179,6.1843,6.1721,6.1629,6.1226,6.0457,5.9798,5.9231,5.8518,5.8055,5.742,5.7115,5.6872,5.6796,5.6757,5.6699,5.668,5.668,5.6622,5.6564,5.6577,5.6519,5.6427,5.6402,5.6323,5.6303,5.6264,5.6244,5.6066,5.5927,5.5866,5.5746,5.5491,5.547,5.5572,5.5592,5.5673,5.5612,5.5523,5.5491,5.5665,5.5604,5.5625,5.5706,5.5741,5.5351,5.4999,5.4783,5.4306,5.3428,5.2812,5.2365,5.2171,5.7637,5.8287,5.8984,5.9874,6.0854,6.0775,6.0992,6.1329,6.1321,6.1299,6.1161,6.1087,6.1117,6.1241,6.1218,6.1432,6.1885,6.1888,6.2638,6.3428,6.4075,6.4512,6.5041,6.5329,6.5445,6.5297,6.5327,6.5261,6.5028,6.5261,6.5128,6.4808,6.4533,6.4428,6.4411,6.4428,6.4375,6.4323,6.4411,6.4358,6.4039,6.3966,6.384,6.3544,6.3507,6.3358,6.3283,6.3133,6.3076,6.3019,6.2923,6.2962,6.3,6.2808,6.2847,6.3,6.2828,6.2808,6.277,6.242,6.2164,6.2144,6.2164,6.2164,6.2175,6.1793,6.1152,6.0512,5.9977,5.929,5.823,5.7744,5.741,5.7205,5.7044,5.693,5.6834,5.6776,5.6699,5.6699,5.668,5.6661,5.6661,5.6661,5.6622,5.6583,5.6505,5.6447,5.6441,5.6402,5.6264,5.6145,5.6086,5.5986,5.5786,5.5754,5.5774,5.5774,5.5754,5.5693,5.5685,5.5826,5.5927,5.5846,5.5708,5.5665,5.5621,5.5522,5.5123,5.4411,5.3883,5.3292,5.274,5.2268,5.199,5.7384,5.8117,5.8822,5.9655,6.0489,6.0873,6.1293,6.1692,6.1798,6.177,6.1666,6.1501,6.1516,6.1645,6.1854,6.2091,6.2637,6.2968,6.3792,6.4453,6.4971,6.5402,6.577,6.5958,6.5927,6.5848,6.5911,6.5863,6.5604,6.5907,6.5748,6.5458,6.5261,6.5164,6.4911,6.503,6.5046,6.4945,6.4996,6.4945,6.4602,6.4393,6.4217,6.391,6.3728,6.3544,6.3414,6.3283,6.3246,6.3189,6.3133,6.3095,6.3076,6.3057,6.3038,6.3095,6.3076,6.3019,6.2904,6.2712,6.2493,6.2361,6.2341,6.2395,6.2245,6.1907,6.153,6.1057,6.0131,5.913,5.8336,5.8219,5.7771,5.7513,5.7229,5.7082,5.6968,5.6872,5.6776,5.6719,5.6732,5.6732,5.6732,5.6785,5.6766,5.6694,5.6622,5.6583,5.6583,5.6544,5.6486,5.6388,5.629,5.6244,5.6126,5.6046,5.5966,5.6019,5.5999,5.5999,5.6019,5.6139,5.6106,5.5954,5.5777,5.5588,5.5351,5.5108,5.444,5.3689,5.3171,5.2681,5.2455,5.1971,5.1582,5.7297,5.7333,5.8202,5.9434,6.0819,6.158,6.1942,6.1992,6.2019,6.1964,6.1876,6.1834,6.1907,6.2115,6.2693,6.3111,6.3426,6.4031,6.4779,6.533,6.5562,6.6003,6.6304,6.6421,6.6361,6.6336,6.6336,6.632,6.6207,6.6269,6.6161,6.6068,6.5927,6.58,6.5349,6.5447,6.5431,6.5332,6.5412,6.5247,6.4996,6.4759,6.462,6.4318,6.4027,6.3878,6.373,6.3692,6.3605,6.3486,6.3436,6.3439,6.3489,6.3114,6.3133,6.347,6.3208,6.3076,6.3,6.2789,6.2615,6.2454,6.2415,6.2415,6.24,6.2265,6.2042,6.1434,6.1091,6.055,5.9918,5.9201,5.8467,5.807,5.7871,5.7706,5.7625,5.7544,5.7581,5.7609,5.7128,5.6785,5.6818,5.6818,5.6851,5.6818,5.6732,5.6699,5.6699,5.668,5.6622,5.6564,5.6466,5.6441,5.6323,5.6205,5.6178,5.6211,5.6231,5.6271,5.6218,5.6225,5.6172,5.6093,5.5942,5.5816,5.5218,5.4621,5.4052,5.3465,5.2484,5.1982,5.1841,5.1874,5.1737,5.8872,5.8903,5.9846,6.049,6.0956,6.1211,6.165,6.2189,6.2275,6.2248,6.2331,6.2694,6.2998,6.3253,6.3662,6.4089,6.4276,6.4426,6.5104,6.5817,6.5969,6.6343,6.6635,6.675,6.6706,6.6668,6.6623,6.6608,6.6623,6.6593,6.6518,6.6391,6.6284,6.6099,6.5863,6.5816,6.5768,6.5675,6.5675,6.5594,6.5384,6.5522,6.5495,6.5109,6.4893,6.4587,6.4366,6.4348,6.4178,6.3956,6.3929,6.4067,6.3885,6.3433,6.3489,6.3618,6.3396,6.334,6.3208,6.3,6.2731,6.2537,6.2434,6.24,6.24,6.1873,6.1738,6.1569,6.1163,6.0554,5.9975,5.9821,5.9426,5.9407,5.926,5.9112,5.9031,5.8863,5.8814,5.8847,5.8589,5.8364,5.8258,5.7637,5.7465,5.7188,5.7083,5.6799,5.6699,5.6699,5.6661,5.6661,5.6603,5.6564,5.6538,5.6421,5.6402,5.6441,5.6493,5.648,5.648,5.6402,5.6448,5.6442,5.6243,5.5991,5.5504,5.4952,5.4081,5.3269,5.2853,5.2454,5.2481,5.2584,5.2525,5.9748,5.9792,6.0775,6.118,6.1202,6.1381,6.1857,6.2399,6.2446,6.2446,6.2582,6.2993,6.3149,6.3368,6.3978,6.4671,6.4803,6.5209,6.5679,6.6335,6.6431,6.6683,6.6888,6.6976,6.683,6.6837,6.6822,6.6808,6.6793,6.6808,6.6712,6.6593,6.6473,6.6567,6.65,6.6565,6.6423,6.6403,6.6514,6.6702,6.6593,6.6641,6.6617,6.6268,6.5899,6.5493,6.5294,6.5099,6.4908,6.4579,6.4558,6.4638,6.4117,6.3801,6.3747,6.3637,6.3507,6.3414,6.3265,6.3,6.2731,6.2557,6.2459,6.24,6.2347,6.2042,6.1873,6.1569,6.0892,6.0689,6.0554,6.0486,6.0197,6.0178,6.0106,5.9958,5.979,5.9621,5.9544,5.9644,5.9591,5.9552,5.9427,5.8803,5.818,5.7817,5.7421,5.7136,5.6832,5.6799,5.6865,5.6879,5.6812,5.6741,5.6688,5.6622,5.6622,5.668,5.6661,5.6622,5.6622,5.6577,5.6677,5.6789,5.663,5.6418,5.6021,5.5468,5.5065,5.4629,5.4168,5.3739,5.3356,5.3381,5.3542,5.9934,6.002,6.0863,6.1368,6.1554,6.2097,6.2451,6.2603,6.2498,6.2488,6.2616,6.2647,6.2939,6.2936,6.3557,6.44,6.5071,6.581,6.6354,6.6834,6.6847,6.7,6.7018,6.6976,6.6947,6.6874,6.6845,6.6903,6.6852,6.7084,6.7033,6.6995,6.6897,6.7198,6.7431,6.7492,6.7303,6.7334,6.7439,6.7552,6.7544,6.7646,6.753,6.7146,6.662,6.6023,6.5741,6.5582,6.5074,6.481,6.4751,6.4503,6.4151,6.3763,6.3655,6.3563,6.3414,6.3358,6.3246,6.2962,6.2808,6.2693,6.2518,6.244,6.2347,6.2279,6.2178,6.2028,6.1603,6.1467,6.1332,6.0926,6.052,6.0486,6.0486,6.0357,6.0242,6.0146,6.0068,6.0029,5.9923,5.9831,5.9686,5.9215,5.8703,5.8644,5.8247,5.7811,5.7473,5.7064,5.713,5.7296,5.7163,5.6879,5.6865,5.6865,5.6699,5.6699,5.6699,5.6661,5.668,5.6812,5.7072,5.7185,5.7058,5.6879,5.6674,5.6643,5.6573,5.6047,5.5103,5.4515,5.3961,5.4618,5.478,6.1742,6.1701,6.2139,6.2325,6.2287,6.2544,6.2692,6.273,6.2692,6.2755,6.2929,6.3467,6.3908,6.4806,6.5604,6.5946,6.6215,6.6447,6.6591,6.6806,6.6942,6.7067,6.7176,6.7261,6.7204,6.7134,6.7069,6.7076,6.7222,6.7419,6.7998,6.8416,6.7574,6.7957,6.8279,6.8486,6.8267,6.8183,6.8255,6.8299,6.8411,6.8494,6.827,6.7796,6.7461,6.6794,6.625,6.6092,6.5601,6.504,6.5303,6.5145,6.4322,6.4109,6.3965,6.3637,6.3526,6.347,6.3283,6.3057,6.2923,6.2866,6.2712,6.2518,6.2473,6.2454,6.2454,6.2285,6.2164,6.1975,6.1873,6.1569,6.1332,6.1332,6.1332,6.1293,6.1163,6.1143,6.1085,6.1017,6.0891,6.0496,6.0279,5.9491,5.9098,5.9226,5.9162,5.8738,5.8229,5.7819,5.7594,5.776,5.7693,5.7495,5.7177,5.7144,5.6898,5.6699,5.6699,5.6732,5.6779,5.6978,5.7461,5.7826,5.8091,5.7873,5.7508,5.7589,5.7866,5.6572,5.5593,5.5063,5.479,5.5397,5.5795,6.2603,6.2513,6.2818,6.2904,6.2855,6.2917,6.2953,6.2941,6.2892,6.3064,6.3591,6.4058,6.482,6.5571,6.605,6.6457,6.6789,6.675,6.6933,6.7299,6.7022,6.7257,6.7455,6.747,6.7266,6.7238,6.721,6.7168,6.7364,6.754,6.8029,6.8116,6.7789,6.818,6.8488,6.8636,6.8901,6.9013,6.9154,6.908,6.9177,6.9361,6.9099,6.8729,6.8463,6.7669,6.693,6.6772,6.6315,6.5648,6.5881,6.583,6.5268,6.5228,6.4733,6.444,6.4212,6.4136,6.3933,6.3383,6.322,6.3076,6.2977,6.2789,6.2654,6.2615,6.2557,6.2503,6.2406,6.2381,6.2381,6.2381,6.2347,6.2347,6.2347,6.2347,6.2347,6.2347,6.2279,6.2245,6.1936,6.1472,6.0868,5.9939,5.9588,5.9946,6.0275,6.035,5.9625,5.8834,5.8509,5.8436,5.8323,5.8157,5.7806,5.7442,5.7196,5.6931,5.6699,5.6766,5.6865,5.7362,5.7978,5.8708,5.9363,5.9151,5.8993,5.9071,5.9008,5.7781,5.7028,5.6991,5.6499,5.5949,5.6297,6.2755,6.2692,6.3075,6.3159,6.322,6.3171,6.3171,6.3183,6.3087,6.3468,6.4118,6.4266,6.477,6.5644,6.5977,6.6532,6.7012,6.7234,6.7455,6.8083,6.7728,6.7707,6.7627,6.746,6.7474,6.7336,6.7331,6.7474,6.7398,6.7648,6.7794,6.7342,6.736,6.7869,6.861,6.878,6.9151,6.9789,7.0192,7.0408,7.0314,7.046,7.0443,7.0087,6.9483,6.8791,6.8084,6.7699,6.742,6.6721,6.6372,6.6532,6.6423,6.6189,6.5622,6.5299,6.493,6.4624,6.4249,6.3699,6.3352,6.3242,6.3201,6.3281,6.3288,6.2877,6.2731,6.2615,6.2571,6.244,6.242,6.2434,6.2415,6.2415,6.2415,6.2415,6.2415,6.2415,6.2381,6.2299,6.1975,6.153,6.0752,5.9823,5.9496,6.0256,6.0802,6.1085,6.0893,5.9937,5.9411,5.9138,5.9032,5.8767,5.8224,5.7859,5.7561,5.7263,5.7031,5.7221,5.7625,5.8104,5.8582,5.9491,6.0436,6.0679,6.0671,6.0477,6.0142,5.963,5.912,5.9223,5.8543,5.727,5.6586,6.299,6.3051,6.3147,6.3183,6.3183,6.3183,6.3254,6.3336,6.3312,6.3423,6.3632,6.3791,6.4567,6.585,6.6035,6.6702,6.7703,6.7815,6.8074,6.8134,6.8068,6.7991,6.8004,6.7836,6.7784,6.7757,6.7764,6.7826,6.7968,6.8168,6.8477,6.8815,6.8466,6.8466,6.9092,6.9252,6.9637,7.0242,7.0762,7.0949,7.0785,7.0492,7.03,6.9855,6.9267,6.8946,6.8397,6.804,6.7768,6.7317,6.7284,6.7148,6.6825,6.6228,6.5975,6.5787,6.5489,6.5148,6.4681,6.4152,6.3717,6.3699,6.3764,6.408,6.397,6.3315,6.2953,6.2853,6.2717,6.2634,6.2555,6.2536,6.255,6.255,6.2516,6.2516,6.2516,6.2448,6.2448,6.2178,6.1873,6.1318,6.0626,6.0133,5.9719,5.9967,6.055,6.0993,6.1388,6.0918,6.0229,5.9916,5.9781,5.9463,5.8833,5.8403,5.8171,5.8025,5.7846,5.809,5.8454,5.8846,5.9371,6.0538,6.1434,6.1291,6.1176,6.1235,6.0945,6.0576,6.031,6.0022,5.9396,5.8239,5.7337,6.3171,6.322,6.3254,6.3338,6.3347,6.3384,6.3465,6.3557,6.3522,6.3519,6.3699,6.3965,6.4796,6.6128,6.6451,6.6896,6.8036,6.8272,6.8321,6.8346,6.8271,6.8208,6.8183,6.8195,6.8018,6.7967,6.7926,6.8001,6.8376,6.8614,6.8925,6.9279,6.9031,6.923,6.9734,6.9783,7.0002,7.0413,7.0974,7.1094,7.0952,7.0714,7.044,6.9941,6.9712,6.9337,6.8944,6.8606,6.8455,6.8377,6.8398,6.7711,6.7461,6.7335,6.7207,6.6916,6.6505,6.6025,6.5519,6.49,6.4381,6.4534,6.4706,6.5126,6.5107,6.4534,6.4288,6.4147,6.3812,6.3706,6.3652,6.3666,6.3666,6.3666,6.3599,6.3531,6.326,6.3024,6.2753,6.2333,6.212,6.1931,6.1325,6.1027,6.0732,6.0887,6.1321,6.1332,6.1627,6.1562,6.0952,6.0582,6.0381,6.0079,5.9529,5.9198,5.8966,5.8787,5.8681,5.9059,5.9451,5.9683,6.025,6.0926,6.1261,6.108,6.1033,6.1152,6.1268,6.0912,6.0733,6.0583,5.9804,5.8979,5.8148,6.3324,6.3254,6.3396,6.35,6.359,6.3602,6.3669,6.3747,6.368,6.3747,6.3941,6.4543,6.5357,6.6151,6.6932,6.7243,6.7639,6.8246,6.8444,6.8457,6.8371,6.8334,6.837,6.8382,6.8566,6.8637,6.862,6.8478,6.8529,6.8953,6.9279,6.9229,6.9513,6.9927,7.0003,7.0207,7.0453,7.0656,7.0992,7.1171,7.1081,7.0985,7.0699,7.0564,7.0443,7.0122,6.9641,6.941,6.9325,6.9173,6.9106,6.8522,6.8132,6.8164,6.8228,6.7973,6.7529,6.7256,6.6945,6.6132,6.5868,6.5864,6.5983,6.6014,6.5976,6.589,6.5622,6.5372,6.5066,6.4627,6.4607,6.4607,6.4607,6.4532,6.4465,6.4377,6.3971,6.3632,6.3226,6.2792,6.2707,6.2605,6.2138,6.1858,6.185,6.204,6.2014,6.2076,6.198,6.1585,6.1106,6.0912,6.081,6.0475,6.0067,5.9847,5.9549,5.9683,5.9684,6.0051,6.0384,6.0508,6.0567,6.0628,6.0844,6.0656,6.0691,6.0772,6.0884,6.0904,6.0395,5.9961,5.9622,5.8888,5.8589,6.3465,6.3522,6.3545,6.3579,6.3613,6.3702,6.3795,6.3791,6.3819,6.3862,6.4193,6.4817,6.5523,6.6241,6.7086,6.7584,6.7959,6.8393,6.8468,6.8506,6.8642,6.8556,6.8692,6.9162,6.9693,6.9776,6.9821,6.9927,6.9513,6.9764,7.0054,7.0078,6.9991,7.0164,7.0181,7.0486,7.0847,7.099,7.1133,7.1404,7.1179,7.1051,7.0855,7.0684,7.0547,7.0424,7.03,7.0264,7.0144,6.983,6.9301,6.8999,6.8855,6.8746,6.8652,6.8716,6.8271,6.795,6.7519,6.6913,6.6611,6.6466,6.6581,6.6811,6.6872,6.706,6.6867,6.6719,6.6213,6.5256,6.506,6.506,6.504,6.4959,6.4905,6.4776,6.4498,6.4417,6.4248,6.4125,6.4089,6.3591,6.2853,6.2631,6.2498,6.2448,6.19,6.19,6.1726,6.1458,6.1301,6.1213,6.1166,6.0649,6.0166,6.022,6.0107,6.0329,6.0578,6.0765,6.097,6.1152,6.1157,6.0574,6.0391,6.0309,6.0323,6.0289,6.0291,6.017,5.9577,5.9124,5.8997,5.897,5.881]}]]